Time,TemperatureF,DewpointF,PressureIn,WindDirection,WindDirectionDegrees,WindSpeedMPH,WindSpeedGustMPH,Humidity,HourlyPrecipIn,Conditions,Clouds,dailyrainin,SoftwareType,DateUTC
2013-01-30 00:00:00,32.7,24.0,29.12,SSE,158,2.2,2.5,70,0.00,,---,0.00,VWS V14.01,2013-01-30 05:00:00,
2013-01-30 00:01:00,32.7,24.0,29.12,SSE,158,0.0,2.2,70,0.00,,---,0.00,VWS V14.01,2013-01-30 05:01:00,
2013-01-30 00:02:00,32.5,23.5,29.11,ESE,112,0.0,0.0,69,0.00,,---,0.00,VWS V14.01,2013-01-30 05:02:00,
2013-01-30 00:03:00,32.5,23.5,29.12,ESE,112,2.5,2.5,69,0.00,,---,0.00,VWS V14.01,2013-01-30 05:03:00,
2013-01-30 00:04:00,32.7,24.0,29.11,WNW,292,2.5,2.5,70,0.00,,---,0.00,VWS V14.01,2013-01-30 05:04:00,
2013-01-30 00:05:00,32.7,24.0,29.11,WSW,248,1.6,2.5,70,0.00,,---,0.00,VWS V14.01,2013-01-30 05:05:00,
2013-01-30 00:06:00,32.7,24.0,29.11,WNW,292,3.1,3.1,70,0.00,,---,0.00,VWS V14.01,2013-01-30 05:06:00,
2013-01-30 00:07:00,32.7,24.0,29.11,ESE,112,2.7,3.1,70,0.00,,---,0.00,VWS V14.01,2013-01-30 05:07:00,
2013-01-30 00:08:00,32.7,24.0,29.09,SSW,202,1.3,2.7,70,0.00,,---,0.00,VWS V14.01,2013-01-30 05:08:00,
2013-01-30 00:09:00,32.7,24.0,29.09,WNW,292,3.4,3.4,70,0.00,,---,0.00,VWS V14.01,2013-01-30 05:09:00,
2013-01-30 00:10:00,32.7,24.0,29.09,ENE,68,5.6,5.6,70,0.00,,---,0.00,VWS V14.01,2013-01-30 05:10:00,
2013-01-30 00:11:00,32.7,24.0,29.09,ESE,112,3.1,5.6,70,0.00,,---,0.00,VWS V14.01,2013-01-30 05:11:00,
2013-01-30 00:12:00,32.7,24.0,29.09,WSW,248,3.6,3.6,70,0.00,,---,0.00,VWS V14.01,2013-01-30 05:12:00,
2013-01-30 00:13:00,32.7,24.0,29.09,SE,135,4.5,4.5,70,0.00,,---,0.00,VWS V14.01,2013-01-30 05:13:00,
2013-01-30 00:14:00,32.7,24.0,29.09,SSE,158,1.6,4.5,70,0.00,,---,0.00,VWS V14.01,2013-01-30 05:14:00,
2013-01-30 00:15:00,32.7,24.0,29.09,West,270,2.7,2.7,70,0.00,,---,0.00,VWS V14.01,2013-01-30 05:15:00,
2013-01-30 00:16:00,32.7,24.0,29.09,West,270,2.7,2.7,70,0.00,,---,0.00,VWS V14.01,2013-01-30 05:16:00,
2013-01-30 00:17:00,32.7,24.0,29.09,South,180,1.3,2.7,70,0.00,,---,0.00,VWS V14.01,2013-01-30 05:17:00,
2013-01-30 00:18:00,32.7,24.0,29.09,South,180,1.3,1.3,70,0.00,,---,0.00,VWS V14.01,2013-01-30 05:18:00,
2013-01-30 00:19:00,32.7,24.0,29.09,WSW,248,2.5,2.7,70,0.00,,---,0.00,VWS V14.01,2013-01-30 05:19:00,
2013-01-30 00:20:00,32.7,24.0,29.09,ENE,68,2.7,2.7,70,0.00,,---,0.00,VWS V14.01,2013-01-30 05:20:00,
2013-01-30 00:21:00,32.7,24.0,29.09,ENE,68,2.7,2.7,70,0.00,,---,0.00,VWS V14.01,2013-01-30 05:21:00,
2013-01-30 00:22:00,32.7,24.0,29.09,SSE,158,2.5,2.7,70,0.00,,---,0.00,VWS V14.01,2013-01-30 05:22:00,
2013-01-30 00:23:00,32.7,24.0,29.09,ESE,112,3.6,3.6,70,0.00,,---,0.00,VWS V14.01,2013-01-30 05:23:00,
2013-01-30 00:24:00,32.7,24.0,29.09,WSW,248,3.4,3.4,70,0.00,,---,0.00,VWS V14.01,2013-01-30 05:24:00,
2013-01-30 00:25:00,32.7,24.0,29.09,SW,225,1.1,3.4,70,0.00,,---,0.00,VWS V14.01,2013-01-30 05:25:00,
2013-01-30 00:26:00,32.7,24.0,29.09,SW,225,0.0,1.1,70,0.00,,---,0.00,VWS V14.01,2013-01-30 05:26:00,
2013-01-30 00:27:00,32.7,24.0,29.09,SW,225,0.0,0.0,70,0.00,,---,0.00,VWS V14.01,2013-01-30 05:27:00,
2013-01-30 00:28:00,32.7,24.0,29.09,SW,225,0.0,0.0,70,0.00,,---,0.00,VWS V14.01,2013-01-30 05:28:00,
2013-01-30 00:29:00,32.7,24.0,29.09,NE,45,1.1,3.6,70,0.00,,---,0.00,VWS V14.01,2013-01-30 05:29:00,
2013-01-30 00:30:00,32.9,24.5,29.09,NE,45,1.1,1.1,71,0.00,,---,0.00,VWS V14.01,2013-01-30 05:30:00,
2013-01-30 00:31:00,32.9,24.5,29.09,WNW,292,2.7,2.7,71,0.00,,---,0.00,VWS V14.01,2013-01-30 05:31:00,
2013-01-30 00:32:00,32.9,24.5,29.09,ENE,68,2.0,2.7,71,0.00,,---,0.00,VWS V14.01,2013-01-30 05:32:00,
2013-01-30 00:33:00,32.9,24.5,29.09,ENE,68,2.0,2.0,71,0.00,,---,0.00,VWS V14.01,2013-01-30 05:33:00,
2013-01-30 00:34:00,32.9,24.2,29.09,ENE,68,0.0,2.0,70,0.00,,---,0.00,VWS V14.01,2013-01-30 05:34:00,
2013-01-30 00:35:00,32.9,24.2,29.09,ENE,68,0.0,0.0,70,0.00,,---,0.00,VWS V14.01,2013-01-30 05:35:00,
2013-01-30 00:36:00,32.7,24.0,29.09,WNW,292,2.0,2.0,70,0.00,,---,0.00,VWS V14.01,2013-01-30 05:36:00,
2013-01-30 00:37:00,32.9,24.5,29.09,WNW,292,2.0,2.0,71,0.00,,---,0.00,VWS V14.01,2013-01-30 05:37:00,
2013-01-30 00:38:00,32.9,24.5,29.09,NNE,22,2.2,2.2,71,0.00,,---,0.00,VWS V14.01,2013-01-30 05:38:00,
2013-01-30 00:39:00,32.9,24.5,29.09,ESE,112,1.3,2.2,71,0.00,,---,0.00,VWS V14.01,2013-01-30 05:39:00,
2013-01-30 00:40:00,32.9,24.5,29.09,ESE,112,1.3,1.3,71,0.00,,---,0.00,VWS V14.01,2013-01-30 05:40:00,
2013-01-30 00:41:00,32.9,24.5,29.09,SSE,158,0.0,1.3,71,0.00,,---,0.00,VWS V14.01,2013-01-30 05:41:00,
2013-01-30 00:42:00,32.9,24.5,29.09,East,90,4.7,4.7,71,0.00,,---,0.00,VWS V14.01,2013-01-30 05:42:00,
2013-01-30 00:43:00,32.9,24.2,29.09,ESE,112,2.7,4.7,70,0.00,,---,0.00,VWS V14.01,2013-01-30 05:43:00,
2013-01-30 00:44:00,32.9,24.2,29.09,SE,135,3.1,3.1,70,0.00,,---,0.00,VWS V14.01,2013-01-30 05:44:00,
2013-01-30 00:45:00,32.9,24.2,29.09,East,90,0.0,3.1,70,0.00,,---,0.00,VWS V14.01,2013-01-30 05:45:00,
2013-01-30 00:46:00,32.9,24.2,29.09,ESE,112,2.7,2.7,70,0.00,,---,0.00,VWS V14.01,2013-01-30 05:46:00,
2013-01-30 00:47:00,32.9,24.2,29.09,SSE,158,1.1,2.7,70,0.00,,---,0.00,VWS V14.01,2013-01-30 05:47:00,
2013-01-30 00:48:00,32.9,24.2,29.09,SSE,158,0.0,1.1,70,0.00,,---,0.00,VWS V14.01,2013-01-30 05:48:00,
2013-01-30 00:49:00,32.9,24.2,29.09,SSE,158,0.0,0.0,70,0.00,,---,0.00,VWS V14.01,2013-01-30 05:49:00,
2013-01-30 00:50:00,32.9,24.5,29.09,SSE,158,0.0,0.0,71,0.00,,---,0.00,VWS V14.01,2013-01-30 05:50:00,
2013-01-30 00:51:00,32.9,24.5,29.09,ESE,112,3.8,3.8,71,0.00,,---,0.00,VWS V14.01,2013-01-30 05:51:00,
2013-01-30 00:52:00,32.9,24.5,29.09,ESE,112,3.8,3.8,71,0.00,,---,0.00,VWS V14.01,2013-01-30 05:52:00,
2013-01-30 00:53:00,32.9,24.5,29.09,East,90,1.1,3.8,71,0.00,,---,0.00,VWS V14.01,2013-01-30 05:53:00,
2013-01-30 00:54:00,32.9,24.5,29.09,ENE,68,0.0,1.1,71,0.00,,---,0.00,VWS V14.01,2013-01-30 05:54:00,
2013-01-30 00:55:00,33.1,24.7,29.09,ESE,112,2.9,2.9,71,0.00,,---,0.00,VWS V14.01,2013-01-30 05:55:00,
2013-01-30 00:56:00,33.1,24.7,29.09,West,270,2.9,2.9,71,0.00,,---,0.00,VWS V14.01,2013-01-30 05:56:00,
2013-01-30 00:57:00,33.1,24.7,29.09,West,270,2.9,2.9,71,0.00,,---,0.00,VWS V14.01,2013-01-30 05:57:00,
2013-01-30 00:58:00,33.1,24.7,29.09,West,270,2.9,2.9,71,0.00,,---,0.00,VWS V14.01,2013-01-30 05:58:00,
2013-01-30 00:59:00,33.1,24.7,29.09,SW,225,1.6,2.9,71,0.00,,---,0.00,VWS V14.01,2013-01-30 05:59:00,
2013-01-30 01:00:00,33.1,24.7,29.09,WNW,292,2.7,2.7,71,0.00,,---,0.00,VWS V14.01,2013-01-30 06:00:00,
2013-01-30 01:01:00,33.1,24.7,29.09,WNW,292,1.1,3.1,71,0.00,,---,0.00,VWS V14.01,2013-01-30 06:01:00,
2013-01-30 01:02:00,33.1,24.7,29.09,WNW,292,1.1,1.1,71,0.00,,---,0.00,VWS V14.01,2013-01-30 06:02:00,
2013-01-30 01:03:00,33.1,24.7,29.09,SSW,202,0.0,1.1,71,0.00,,---,0.00,VWS V14.01,2013-01-30 06:03:00,
2013-01-30 01:04:00,33.1,24.7,29.09,NW,315,2.0,2.0,71,0.00,,---,0.00,VWS V14.01,2013-01-30 06:04:00,
2013-01-30 01:05:00,33.1,24.7,29.09,NW,315,1.1,2.0,71,0.00,,---,0.00,VWS V14.01,2013-01-30 06:05:00,
2013-01-30 01:06:00,33.1,24.7,29.09,NW,315,0.0,1.1,71,0.00,,---,0.00,VWS V14.01,2013-01-30 06:06:00,
2013-01-30 01:07:00,33.1,24.7,29.09,ENE,68,2.0,2.0,71,0.00,,---,0.00,VWS V14.01,2013-01-30 06:07:00,
2013-01-30 01:08:00,33.1,24.7,29.09,NNE,22,0.0,2.0,71,0.00,,---,0.00,VWS V14.01,2013-01-30 06:08:00,
2013-01-30 01:09:00,33.1,24.7,29.09,NNE,22,0.0,0.0,71,0.00,,---,0.00,VWS V14.01,2013-01-30 06:09:00,
2013-01-30 01:10:00,33.1,24.7,29.09,NNW,338,0.9,0.9,71,0.00,,---,0.00,VWS V14.01,2013-01-30 06:10:00,
2013-01-30 01:11:00,33.1,24.7,29.09,NNW,338,0.9,0.9,71,0.00,,---,0.00,VWS V14.01,2013-01-30 06:11:00,
2013-01-30 01:12:00,33.1,24.7,29.09,NNW,338,0.0,0.0,71,0.00,,---,0.00,VWS V14.01,2013-01-30 06:12:00,
2013-01-30 01:13:00,33.1,24.7,29.09,NNW,338,0.0,0.0,71,0.00,,---,0.00,VWS V14.01,2013-01-30 06:13:00,
2013-01-30 01:14:00,33.1,24.7,29.09,NNW,338,0.0,0.0,71,0.00,,---,0.00,VWS V14.01,2013-01-30 06:14:00,
2013-01-30 01:15:00,33.1,24.7,29.09,WSW,248,2.0,4.3,71,0.00,,---,0.00,VWS V14.01,2013-01-30 06:15:00,
2013-01-30 01:16:00,33.1,24.7,29.09,WSW,248,2.0,2.0,71,0.00,,---,0.00,VWS V14.01,2013-01-30 06:16:00,
2013-01-30 01:17:00,33.1,25.4,29.09,ESE,112,2.7,2.7,73,0.00,,---,0.00,VWS V14.01,2013-01-30 06:17:00,
2013-01-30 01:18:00,33.1,25.4,29.09,West,270,2.7,2.7,73,0.00,,---,0.00,VWS V14.01,2013-01-30 06:18:00,
2013-01-30 01:19:00,33.1,25.4,29.09,WNW,292,2.7,2.7,73,0.00,,---,0.00,VWS V14.01,2013-01-30 06:19:00,
2013-01-30 01:20:00,33.3,25.6,29.09,WNW,292,2.5,2.7,73,0.00,,---,0.00,VWS V14.01,2013-01-30 06:20:00,
2013-01-30 01:21:00,33.3,25.6,29.09,WNW,292,2.2,2.5,73,0.00,,---,0.00,VWS V14.01,2013-01-30 06:21:00,
2013-01-30 01:22:00,33.3,25.6,29.09,WNW,292,0.0,0.0,73,0.00,,---,0.00,VWS V14.01,2013-01-30 06:22:00,
2013-01-30 01:23:00,33.3,25.6,29.09,WNW,292,0.0,0.0,73,0.00,,---,0.00,VWS V14.01,2013-01-30 06:23:00,
2013-01-30 01:24:00,33.1,25.4,29.09,WNW,292,0.0,0.0,73,0.00,,---,0.00,VWS V14.01,2013-01-30 06:24:00,
2013-01-30 01:25:00,33.1,25.0,29.09,WNW,292,0.0,0.0,72,0.00,,---,0.00,VWS V14.01,2013-01-30 06:25:00,
2013-01-30 01:26:00,33.1,25.0,29.09,East,90,0.0,0.0,72,0.00,,---,0.00,VWS V14.01,2013-01-30 06:26:00,
2013-01-30 01:27:00,33.1,25.0,29.09,SE,135,0.9,1.1,72,0.00,,---,0.00,VWS V14.01,2013-01-30 06:27:00,
2013-01-30 01:28:00,33.1,25.0,29.09,SE,135,0.9,1.1,72,0.00,,---,0.00,VWS V14.01,2013-01-30 06:28:00,
2013-01-30 01:29:00,33.1,25.0,29.09,SSE,158,1.3,3.4,72,0.00,,---,0.00,VWS V14.01,2013-01-30 06:29:00,
2013-01-30 01:30:00,33.1,25.0,29.09,SSE,158,1.3,1.3,72,0.00,,---,0.00,VWS V14.01,2013-01-30 06:30:00,
2013-01-30 01:31:00,33.1,25.0,29.09,ENE,68,1.6,1.6,72,0.00,,---,0.00,VWS V14.01,2013-01-30 06:31:00,
2013-01-30 01:32:00,33.1,25.0,29.09,South,180,0.0,4.3,72,0.00,,---,0.00,VWS V14.01,2013-01-30 06:32:00,
2013-01-30 01:33:00,33.1,25.0,29.09,SSE,158,2.0,4.3,72,0.00,,---,0.00,VWS V14.01,2013-01-30 06:33:00,
2013-01-30 01:34:00,33.3,25.2,29.09,ESE,112,3.4,3.4,72,0.00,,---,0.00,VWS V14.01,2013-01-30 06:34:00,
2013-01-30 01:35:00,33.3,25.2,29.09,East,90,2.2,3.4,72,0.00,,---,0.00,VWS V14.01,2013-01-30 06:35:00,
2013-01-30 01:36:00,33.3,25.2,29.09,East,90,2.2,2.2,72,0.00,,---,0.00,VWS V14.01,2013-01-30 06:36:00,
2013-01-30 01:37:00,33.3,25.2,29.09,ESE,112,2.0,2.2,72,0.00,,---,0.00,VWS V14.01,2013-01-30 06:37:00,
2013-01-30 01:38:00,33.3,25.2,29.09,ESE,112,0.0,2.2,72,0.00,,---,0.00,VWS V14.01,2013-01-30 06:38:00,
2013-01-30 01:39:00,33.3,25.2,29.09,ESE,112,0.0,0.0,72,0.00,,---,0.00,VWS V14.01,2013-01-30 06:39:00,
2013-01-30 01:40:00,33.3,25.2,29.09,ESE,112,1.6,1.6,72,0.00,,---,0.00,VWS V14.01,2013-01-30 06:40:00,
2013-01-30 01:41:00,33.1,25.0,29.09,SSE,158,1.6,1.6,72,0.00,,---,0.00,VWS V14.01,2013-01-30 06:41:00,
2013-01-30 01:42:00,33.3,25.2,29.09,SSE,158,0.0,0.0,72,0.00,,---,0.00,VWS V14.01,2013-01-30 06:42:00,
2013-01-30 01:43:00,33.3,25.2,29.09,SSE,158,0.0,0.0,72,0.00,,---,0.00,VWS V14.01,2013-01-30 06:43:00,
2013-01-30 01:44:00,33.3,25.2,29.09,SSE,158,0.0,0.0,72,0.00,,---,0.00,VWS V14.01,2013-01-30 06:44:00,
2013-01-30 01:45:00,33.3,25.2,29.09,SE,135,1.3,1.3,72,0.00,,---,0.00,VWS V14.01,2013-01-30 06:45:00,
2013-01-30 01:46:00,33.3,25.6,29.09,SE,135,0.0,1.3,73,0.00,,---,0.00,VWS V14.01,2013-01-30 06:46:00,
2013-01-30 01:47:00,33.3,25.6,29.09,NNE,22,2.0,2.2,73,0.00,,---,0.00,VWS V14.01,2013-01-30 06:47:00,
2013-01-30 01:48:00,33.3,25.6,29.09,NNE,22,0.0,2.2,73,0.00,,---,0.00,VWS V14.01,2013-01-30 06:48:00,
2013-01-30 01:49:00,33.3,25.6,29.09,ESE,112,3.1,3.1,73,0.00,,---,0.00,VWS V14.01,2013-01-30 06:49:00,
2013-01-30 01:50:00,33.3,25.6,29.09,SE,135,2.2,3.1,73,0.00,,---,0.00,VWS V14.01,2013-01-30 06:50:00,
2013-01-30 01:51:00,33.3,25.6,29.09,West,270,2.7,2.7,73,0.00,,---,0.00,VWS V14.01,2013-01-30 06:51:00,
2013-01-30 01:52:00,33.3,25.6,29.09,WNW,292,1.6,1.6,73,0.00,,---,0.00,VWS V14.01,2013-01-30 06:52:00,
2013-01-30 01:53:00,33.3,25.6,29.09,WNW,292,1.6,1.6,73,0.00,,---,0.00,VWS V14.01,2013-01-30 06:53:00,
2013-01-30 01:54:00,33.4,26.1,29.09,NNW,338,2.0,2.5,74,0.00,,---,0.00,VWS V14.01,2013-01-30 06:54:00,
2013-01-30 01:55:00,33.4,26.1,29.09,NNW,338,2.0,2.0,74,0.00,,---,0.00,VWS V14.01,2013-01-30 06:55:00,
2013-01-30 01:56:00,33.4,26.1,29.09,SSE,158,1.1,2.0,74,0.00,,---,0.00,VWS V14.01,2013-01-30 06:56:00,
2013-01-30 01:57:00,33.3,25.9,29.09,SSW,202,1.6,1.6,74,0.00,,---,0.00,VWS V14.01,2013-01-30 06:57:00,
2013-01-30 01:58:00,33.3,25.9,29.09,SSW,202,1.6,1.6,74,0.00,,---,0.00,VWS V14.01,2013-01-30 06:58:00,
2013-01-30 01:59:00,33.4,26.1,29.09,NNW,338,4.0,5.6,74,0.00,,---,0.00,VWS V14.01,2013-01-30 06:59:00,
2013-01-30 02:00:00,33.4,26.1,29.09,NW,315,5.6,5.6,74,0.00,,---,0.00,VWS V14.01,2013-01-30 07:00:00,
2013-01-30 02:01:00,33.4,26.1,29.09,NW,315,5.6,5.6,74,0.00,,---,0.00,VWS V14.01,2013-01-30 07:01:00,
2013-01-30 02:02:00,33.6,26.2,29.09,SSE,158,2.0,2.0,74,0.00,,---,0.00,VWS V14.01,2013-01-30 07:02:00,
2013-01-30 02:03:00,33.6,26.2,29.09,WNW,292,2.0,2.0,74,0.00,,---,0.00,VWS V14.01,2013-01-30 07:03:00,
2013-01-30 02:04:00,33.6,26.2,29.09,WNW,292,2.5,2.5,74,0.00,,---,0.00,VWS V14.01,2013-01-30 07:04:00,
2013-01-30 02:05:00,33.6,26.2,29.09,WNW,292,4.0,4.0,74,0.00,,---,0.00,VWS V14.01,2013-01-30 07:05:00,
2013-01-30 02:06:00,33.6,26.2,29.09,NW,315,3.6,4.0,74,0.00,,---,0.00,VWS V14.01,2013-01-30 07:06:00,
2013-01-30 02:07:00,33.6,26.6,29.09,SE,135,2.5,3.6,75,0.00,,---,0.00,VWS V14.01,2013-01-30 07:07:00,
2013-01-30 02:08:00,33.6,26.6,29.09,ESE,112,3.1,3.6,75,0.00,,---,0.00,VWS V14.01,2013-01-30 07:08:00,
2013-01-30 02:09:00,33.6,26.2,29.09,ESE,112,3.1,3.1,74,0.00,,---,0.00,VWS V14.01,2013-01-30 07:09:00,
2013-01-30 02:10:00,33.6,26.2,29.09,WNW,292,3.1,3.1,74,0.00,,---,0.00,VWS V14.01,2013-01-30 07:10:00,
2013-01-30 02:11:00,33.4,26.1,29.06,WNW,292,1.6,3.1,74,0.00,,---,0.00,VWS V14.01,2013-01-30 07:11:00,
2013-01-30 02:12:00,33.6,26.2,29.06,South,180,2.2,2.2,74,0.00,,---,0.00,VWS V14.01,2013-01-30 07:12:00,
2013-01-30 02:13:00,33.6,26.2,29.06,ENE,68,2.7,2.7,74,0.00,,---,0.00,VWS V14.01,2013-01-30 07:13:00,
2013-01-30 02:14:00,33.6,26.2,29.06,SSE,158,2.7,2.7,74,0.00,,---,0.00,VWS V14.01,2013-01-30 07:14:00,
2013-01-30 02:15:00,33.6,26.2,29.06,SSE,158,1.6,2.7,74,0.00,,---,0.00,VWS V14.01,2013-01-30 07:15:00,
2013-01-30 02:16:00,33.6,26.2,29.06,WSW,248,3.8,3.8,74,0.00,,---,0.00,VWS V14.01,2013-01-30 07:16:00,
2013-01-30 02:17:00,33.6,26.2,29.06,NNW,338,4.3,4.3,74,0.00,,---,0.00,VWS V14.01,2013-01-30 07:17:00,
2013-01-30 02:18:00,33.6,26.2,29.06,WSW,248,1.1,4.3,74,0.00,,---,0.00,VWS V14.01,2013-01-30 07:18:00,
2013-01-30 02:19:00,33.6,26.2,29.06,East,90,1.1,1.1,74,0.00,,---,0.00,VWS V14.01,2013-01-30 07:19:00,
2013-01-30 02:20:00,33.6,26.2,29.06,NNE,22,1.3,1.3,74,0.00,,---,0.00,VWS V14.01,2013-01-30 07:20:00,
2013-01-30 02:21:00,33.4,26.1,29.06,ESE,112,2.7,2.7,74,0.00,,---,0.00,VWS V14.01,2013-01-30 07:21:00,
2013-01-30 02:22:00,33.4,26.1,29.06,NW,315,4.3,4.3,74,0.00,,---,0.00,VWS V14.01,2013-01-30 07:22:00,
2013-01-30 02:23:00,33.4,26.1,29.06,NW,315,4.3,4.3,74,0.00,,---,0.00,VWS V14.01,2013-01-30 07:23:00,
2013-01-30 02:24:00,33.6,26.2,29.06,SW,225,0.0,4.7,74,0.00,,---,0.00,VWS V14.01,2013-01-30 07:24:00,
2013-01-30 02:25:00,33.6,26.6,29.06,SW,225,0.0,0.0,75,0.00,,---,0.00,VWS V14.01,2013-01-30 07:25:00,
2013-01-30 02:26:00,33.6,26.6,29.06,WNW,292,2.2,2.2,75,0.00,,---,0.00,VWS V14.01,2013-01-30 07:26:00,
2013-01-30 02:27:00,33.6,26.6,29.06,SW,225,2.0,2.0,75,0.00,,---,0.00,VWS V14.01,2013-01-30 07:27:00,
2013-01-30 02:28:00,33.6,26.2,29.06,SW,225,2.0,2.0,74,0.00,,---,0.00,VWS V14.01,2013-01-30 07:28:00,
2013-01-30 02:29:00,33.6,26.2,29.06,ESE,112,0.0,2.0,74,0.00,,---,0.00,VWS V14.01,2013-01-30 07:29:00,
2013-01-30 02:30:00,33.6,26.2,29.06,ESE,112,0.0,0.0,74,0.00,,---,0.00,VWS V14.01,2013-01-30 07:30:00,
2013-01-30 02:31:00,33.6,26.2,29.06,ENE,68,0.0,0.0,74,0.00,,---,0.00,VWS V14.01,2013-01-30 07:31:00,
2013-01-30 02:32:00,33.6,26.2,29.06,ENE,68,0.0,0.0,74,0.00,,---,0.00,VWS V14.01,2013-01-30 07:32:00,
2013-01-30 02:33:00,33.6,26.2,29.06,ENE,68,0.0,0.0,74,0.00,,---,0.00,VWS V14.01,2013-01-30 07:33:00,
2013-01-30 02:34:00,33.4,26.1,29.06,ENE,68,0.0,0.0,74,0.00,,---,0.00,VWS V14.01,2013-01-30 07:34:00,
2013-01-30 02:35:00,33.4,26.1,29.06,ENE,68,0.0,0.0,74,0.00,,---,0.00,VWS V14.01,2013-01-30 07:35:00,
2013-01-30 02:36:00,33.4,26.1,29.06,ESE,112,1.1,2.9,74,0.00,,---,0.00,VWS V14.01,2013-01-30 07:36:00,
2013-01-30 02:37:00,33.6,26.2,29.06,ESE,112,1.3,1.3,74,0.00,,---,0.00,VWS V14.01,2013-01-30 07:37:00,
2013-01-30 02:38:00,33.6,26.2,29.06,SSE,158,2.7,2.7,74,0.00,,---,0.00,VWS V14.01,2013-01-30 07:38:00,
2013-01-30 02:39:00,33.6,26.2,29.06,East,90,5.6,5.6,74,0.00,,---,0.00,VWS V14.01,2013-01-30 07:39:00,
2013-01-30 02:40:00,33.6,26.2,29.06,ESE,112,2.7,5.6,74,0.00,,---,0.00,VWS V14.01,2013-01-30 07:40:00,
2013-01-30 02:41:00,33.6,26.2,29.06,NNW,338,1.3,2.7,74,0.00,,---,0.00,VWS V14.01,2013-01-30 07:41:00,
2013-01-30 02:42:00,33.6,26.2,29.06,NNE,22,0.0,1.3,74,0.00,,---,0.00,VWS V14.01,2013-01-30 07:42:00,
2013-01-30 02:43:00,33.6,26.2,29.06,NNE,22,5.4,5.4,74,0.00,,---,0.00,VWS V14.01,2013-01-30 07:43:00,
2013-01-30 02:44:00,33.6,26.6,29.06,SE,135,2.0,5.4,75,0.00,,---,0.00,VWS V14.01,2013-01-30 07:44:00,
2013-01-30 02:45:00,33.6,26.6,29.06,WSW,248,0.0,2.0,75,0.00,,---,0.00,VWS V14.01,2013-01-30 07:45:00,
2013-01-30 02:46:00,33.6,26.6,29.06,ESE,112,2.5,2.5,75,0.00,,---,0.00,VWS V14.01,2013-01-30 07:46:00,
2013-01-30 02:47:00,33.6,26.6,29.06,ESE,112,3.4,3.4,75,0.00,,---,0.00,VWS V14.01,2013-01-30 07:47:00,
2013-01-30 02:48:00,33.6,26.2,29.06,ESE,112,3.4,3.4,74,0.00,,---,0.00,VWS V14.01,2013-01-30 07:48:00,
2013-01-30 02:49:00,33.6,26.2,29.06,East,90,3.1,3.4,74,0.00,,---,0.00,VWS V14.01,2013-01-30 07:49:00,
2013-01-30 02:50:00,33.6,26.6,29.06,ENE,68,2.5,3.1,75,0.00,,---,0.00,VWS V14.01,2013-01-30 07:50:00,
2013-01-30 02:51:00,33.6,26.6,29.06,ENE,68,0.0,2.5,75,0.00,,---,0.00,VWS V14.01,2013-01-30 07:51:00,
2013-01-30 02:52:00,33.6,26.6,29.06,ENE,68,1.3,1.3,75,0.00,,---,0.00,VWS V14.01,2013-01-30 07:52:00,
2013-01-30 02:53:00,33.6,26.6,29.06,ENE,68,1.3,1.3,75,0.00,,---,0.00,VWS V14.01,2013-01-30 07:53:00,
2013-01-30 02:54:00,33.6,26.6,29.06,ESE,112,1.3,3.4,75,0.00,,---,0.00,VWS V14.01,2013-01-30 07:54:00,
2013-01-30 02:55:00,33.6,26.6,29.06,ESE,112,1.3,1.3,75,0.00,,---,0.00,VWS V14.01,2013-01-30 07:55:00,
2013-01-30 02:56:00,33.6,26.6,29.06,ENE,68,2.9,2.9,75,0.00,,---,0.00,VWS V14.01,2013-01-30 07:56:00,
2013-01-30 02:57:00,33.4,26.4,29.06,ESE,112,3.6,3.6,75,0.00,,---,0.00,VWS V14.01,2013-01-30 07:57:00,
2013-01-30 02:58:00,33.4,26.4,29.06,ENE,68,2.9,3.6,75,0.00,,---,0.00,VWS V14.01,2013-01-30 07:58:00,
2013-01-30 02:59:00,33.6,26.6,29.06,East,90,3.6,3.6,75,0.00,,---,0.00,VWS V14.01,2013-01-30 07:59:00,
2013-01-30 03:00:00,33.6,26.6,29.06,ESE,112,3.1,3.6,75,0.00,,---,0.00,VWS V14.01,2013-01-30 08:00:00,
2013-01-30 03:01:00,33.6,26.6,29.06,ESE,112,3.6,3.6,75,0.00,,---,0.00,VWS V14.01,2013-01-30 08:01:00,
2013-01-30 03:02:00,33.6,26.6,29.06,ESE,112,2.0,3.6,75,0.00,,---,0.00,VWS V14.01,2013-01-30 08:02:00,
2013-01-30 03:03:00,33.6,26.6,29.06,ENE,68,1.6,3.6,75,0.00,,---,0.00,VWS V14.01,2013-01-30 08:03:00,
2013-01-30 03:04:00,33.6,26.6,29.06,ESE,112,2.7,2.7,75,0.00,,---,0.00,VWS V14.01,2013-01-30 08:04:00,
2013-01-30 03:05:00,33.6,26.6,29.06,ESE,112,2.7,2.7,75,0.00,,---,0.00,VWS V14.01,2013-01-30 08:05:00,
2013-01-30 03:06:00,33.6,26.6,29.06,ENE,68,1.1,2.7,75,0.00,,---,0.00,VWS V14.01,2013-01-30 08:06:00,
2013-01-30 03:07:00,33.6,26.6,29.06,ESE,112,2.0,2.0,75,0.00,,---,0.00,VWS V14.01,2013-01-30 08:07:00,
2013-01-30 03:08:00,33.6,26.6,29.06,ESE,112,1.3,2.0,75,0.00,,---,0.00,VWS V14.01,2013-01-30 08:08:00,
2013-01-30 03:09:00,33.6,26.6,29.06,ESE,112,1.3,1.3,75,0.00,,---,0.00,VWS V14.01,2013-01-30 08:09:00,
2013-01-30 03:10:00,33.6,26.6,29.06,SSW,202,0.0,1.3,75,0.00,,---,0.00,VWS V14.01,2013-01-30 08:10:00,
2013-01-30 03:11:00,33.6,26.6,29.03,SSW,202,0.0,0.0,75,0.00,,---,0.00,VWS V14.01,2013-01-30 08:11:00,
2013-01-30 03:12:00,33.6,26.9,29.03,NNW,338,3.1,3.1,76,0.00,,---,0.00,VWS V14.01,2013-01-30 08:12:00,
2013-01-30 03:13:00,33.6,26.9,29.03,NNW,338,0.0,3.1,76,0.00,,---,0.00,VWS V14.01,2013-01-30 08:13:00,
2013-01-30 03:14:00,33.6,26.9,29.03,NW,315,3.1,3.1,76,0.00,,---,0.00,VWS V14.01,2013-01-30 08:14:00,
2013-01-30 03:15:00,33.6,26.9,29.03,SE,135,2.5,3.1,76,0.00,,---,0.00,VWS V14.01,2013-01-30 08:15:00,
2013-01-30 03:16:00,33.6,26.9,29.03,SE,135,2.5,2.5,76,0.00,,---,0.00,VWS V14.01,2013-01-30 08:16:00,
2013-01-30 03:17:00,33.6,26.9,29.03,NW,315,1.6,1.6,76,0.00,,---,0.00,VWS V14.01,2013-01-30 08:17:00,
2013-01-30 03:18:00,33.8,27.0,29.03,NW,315,1.6,1.6,76,0.00,,---,0.00,VWS V14.01,2013-01-30 08:18:00,
2013-01-30 03:19:00,33.8,27.0,29.03,North,0,0.0,4.0,76,0.00,,---,0.00,VWS V14.01,2013-01-30 08:19:00,
2013-01-30 03:20:00,33.8,27.0,29.03,ENE,68,2.5,2.5,76,0.00,,---,0.00,VWS V14.01,2013-01-30 08:20:00,
2013-01-30 03:21:00,33.8,27.0,29.03,SSW,202,0.0,2.5,76,0.00,,---,0.00,VWS V14.01,2013-01-30 08:21:00,
2013-01-30 03:22:00,33.6,26.9,29.03,SSW,202,2.5,2.5,76,0.00,,---,0.00,VWS V14.01,2013-01-30 08:22:00,
2013-01-30 03:23:00,33.6,26.9,29.03,ESE,112,0.9,2.5,76,0.00,,---,0.00,VWS V14.01,2013-01-30 08:23:00,
2013-01-30 03:24:00,33.6,26.9,29.03,SE,135,2.2,2.2,76,0.00,,---,0.00,VWS V14.01,2013-01-30 08:24:00,
2013-01-30 03:25:00,33.6,26.9,29.03,SW,225,7.4,7.4,76,0.00,,---,0.00,VWS V14.01,2013-01-30 08:25:00,
2013-01-30 03:26:00,33.6,26.9,29.03,WSW,248,1.3,7.4,76,0.00,,---,0.00,VWS V14.01,2013-01-30 08:26:00,
2013-01-30 03:27:00,33.6,26.9,29.03,WSW,248,1.6,1.6,76,0.00,,---,0.00,VWS V14.01,2013-01-30 08:27:00,
2013-01-30 03:28:00,33.6,26.9,29.03,ESE,112,2.0,2.0,76,0.00,,---,0.00,VWS V14.01,2013-01-30 08:28:00,
2013-01-30 03:29:00,33.6,26.9,29.03,NNW,338,3.6,3.6,76,0.00,,---,0.00,VWS V14.01,2013-01-30 08:29:00,
2013-01-30 03:30:00,33.6,26.9,29.03,NNW,338,3.6,3.6,76,0.00,,---,0.00,VWS V14.01,2013-01-30 08:30:00,
2013-01-30 03:31:00,33.6,26.9,29.03,WNW,292,6.0,6.0,76,0.00,,---,0.00,VWS V14.01,2013-01-30 08:31:00,
2013-01-30 03:32:00,33.8,27.4,29.03,WNW,292,4.3,6.0,77,0.00,,---,0.00,VWS V14.01,2013-01-30 08:32:00,
2013-01-30 03:33:00,33.8,27.4,29.03,NW,315,2.0,6.0,77,0.00,,---,0.00,VWS V14.01,2013-01-30 08:33:00,
2013-01-30 03:34:00,33.8,27.0,29.03,NW,315,4.7,4.7,76,0.00,,---,0.00,VWS V14.01,2013-01-30 08:34:00,
2013-01-30 03:35:00,33.8,27.0,29.03,North,0,2.5,4.7,76,0.00,,---,0.00,VWS V14.01,2013-01-30 08:35:00,
2013-01-30 03:36:00,33.8,27.4,29.03,North,0,0.0,2.5,77,0.00,,---,0.00,VWS V14.01,2013-01-30 08:36:00,
2013-01-30 03:37:00,33.8,27.4,29.03,NE,45,1.1,1.1,77,0.00,,---,0.00,VWS V14.01,2013-01-30 08:37:00,
2013-01-30 03:38:00,33.8,27.4,29.03,ENE,68,1.3,1.3,77,0.00,,---,0.00,VWS V14.01,2013-01-30 08:38:00,
2013-01-30 03:39:00,33.8,27.4,29.03,ENE,68,0.0,1.3,77,0.00,,---,0.00,VWS V14.01,2013-01-30 08:39:00,
2013-01-30 03:40:00,33.6,27.2,29.03,East,90,1.6,1.6,77,0.00,,---,0.00,VWS V14.01,2013-01-30 08:40:00,
2013-01-30 03:41:00,33.6,26.9,29.03,NNE,22,0.0,1.6,76,0.00,,---,0.00,VWS V14.01,2013-01-30 08:41:00,
2013-01-30 03:42:00,33.6,26.9,29.03,NNE,22,0.0,0.0,76,0.00,,---,0.00,VWS V14.01,2013-01-30 08:42:00,
2013-01-30 03:43:00,33.6,26.9,29.03,NNE,22,2.0,2.0,76,0.00,,---,0.00,VWS V14.01,2013-01-30 08:43:00,
2013-01-30 03:44:00,33.6,26.9,29.03,West,270,2.2,2.2,76,0.00,,---,0.00,VWS V14.01,2013-01-30 08:44:00,
2013-01-30 03:45:00,33.6,26.9,29.03,NNE,22,1.6,2.2,76,0.00,,---,0.00,VWS V14.01,2013-01-30 08:45:00,
2013-01-30 03:46:00,33.6,26.9,29.03,NNE,22,1.6,1.6,76,0.00,,---,0.00,VWS V14.01,2013-01-30 08:46:00,
2013-01-30 03:47:00,33.8,27.0,29.03,ENE,68,0.0,1.6,76,0.00,,---,0.00,VWS V14.01,2013-01-30 08:47:00,
2013-01-30 03:48:00,33.8,27.0,29.03,ENE,68,0.0,0.0,76,0.00,,---,0.00,VWS V14.01,2013-01-30 08:48:00,
2013-01-30 03:49:00,33.8,27.0,29.03,NNE,22,0.0,0.0,76,0.00,,---,0.00,VWS V14.01,2013-01-30 08:49:00,
2013-01-30 03:50:00,33.8,27.4,29.03,NNW,338,0.0,2.0,77,0.00,,---,0.00,VWS V14.01,2013-01-30 08:50:00,
2013-01-30 03:51:00,33.8,27.4,29.03,NNW,338,0.0,0.0,77,0.00,,---,0.00,VWS V14.01,2013-01-30 08:51:00,
2013-01-30 03:52:00,33.8,27.4,29.03,NNE,22,3.4,3.4,77,0.00,,---,0.00,VWS V14.01,2013-01-30 08:52:00,
2013-01-30 03:53:00,33.8,27.4,29.03,NW,315,2.7,3.4,77,0.00,,---,0.00,VWS V14.01,2013-01-30 08:53:00,
2013-01-30 03:54:00,33.8,27.7,29.03,NE,45,1.6,3.4,78,0.00,,---,0.00,VWS V14.01,2013-01-30 08:54:00,
2013-01-30 03:55:00,33.8,27.7,29.03,NE,45,1.6,1.6,78,0.00,,---,0.00,VWS V14.01,2013-01-30 08:55:00,
2013-01-30 03:56:00,33.8,27.7,29.03,NNW,338,0.0,3.4,78,0.00,,---,0.00,VWS V14.01,2013-01-30 08:56:00,
2013-01-30 03:57:00,33.8,27.7,29.03,NNW,338,0.0,0.0,78,0.00,,---,0.00,VWS V14.01,2013-01-30 08:57:00,
2013-01-30 03:58:00,33.6,27.5,29.03,NNW,338,0.0,0.0,78,0.00,,---,0.00,VWS V14.01,2013-01-30 08:58:00,
2013-01-30 03:59:00,33.6,27.5,29.03,NNW,338,2.5,2.5,78,0.00,,---,0.00,VWS V14.01,2013-01-30 08:59:00,
2013-01-30 04:00:00,33.6,27.5,29.03,NNE,22,1.6,2.5,78,0.00,,---,0.00,VWS V14.01,2013-01-30 09:00:00,
2013-01-30 04:01:00,33.6,27.5,29.03,NNE,22,0.0,1.6,78,0.00,,---,0.00,VWS V14.01,2013-01-30 09:01:00,
2013-01-30 04:02:00,33.6,27.5,29.03,ESE,112,2.9,2.9,78,0.00,,---,0.00,VWS V14.01,2013-01-30 09:02:00,
2013-01-30 04:03:00,33.6,27.5,29.03,ESE,112,1.6,2.9,78,0.00,,---,0.00,VWS V14.01,2013-01-30 09:03:00,
2013-01-30 04:04:00,33.6,27.5,29.03,NE,45,0.0,1.6,78,0.00,,---,0.00,VWS V14.01,2013-01-30 09:04:00,
2013-01-30 04:05:00,33.6,27.5,29.03,NE,45,0.0,0.0,78,0.00,,---,0.00,VWS V14.01,2013-01-30 09:05:00,
2013-01-30 04:06:00,33.6,27.5,29.03,NE,45,0.0,0.0,78,0.00,,---,0.00,VWS V14.01,2013-01-30 09:06:00,
2013-01-30 04:07:00,33.4,27.0,29.03,ESE,112,2.5,2.7,77,0.00,,---,0.00,VWS V14.01,2013-01-30 09:07:00,
2013-01-30 04:08:00,33.4,27.0,29.00,ESE,112,2.5,2.7,77,0.00,,---,0.00,VWS V14.01,2013-01-30 09:08:00,
2013-01-30 04:09:00,33.6,27.2,29.00,ESE,112,0.0,2.5,77,0.00,,---,0.00,VWS V14.01,2013-01-30 09:09:00,
2013-01-30 04:10:00,33.6,27.2,29.00,East,90,0.0,0.0,77,0.00,,---,0.00,VWS V14.01,2013-01-30 09:10:00,
2013-01-30 04:11:00,33.6,27.2,29.00,East,90,0.0,0.0,77,0.00,,---,0.00,VWS V14.01,2013-01-30 09:11:00,
2013-01-30 04:12:00,33.6,27.2,29.00,East,90,0.9,2.2,77,0.00,,---,0.00,VWS V14.01,2013-01-30 09:12:00,
2013-01-30 04:13:00,33.6,27.2,29.00,East,90,0.0,0.9,77,0.00,,---,0.00,VWS V14.01,2013-01-30 09:13:00,
2013-01-30 04:14:00,33.6,27.2,29.00,East,90,0.0,0.0,77,0.00,,---,0.00,VWS V14.01,2013-01-30 09:14:00,
2013-01-30 04:15:00,33.6,27.2,29.00,ESE,112,3.4,3.4,77,0.00,,---,0.00,VWS V14.01,2013-01-30 09:15:00,
2013-01-30 04:16:00,33.6,27.2,29.00,ESE,112,3.6,3.6,77,0.00,,---,0.00,VWS V14.01,2013-01-30 09:16:00,
2013-01-30 04:17:00,33.8,27.4,29.00,ESE,112,2.0,3.6,77,0.00,,---,0.00,VWS V14.01,2013-01-30 09:17:00,
2013-01-30 04:18:00,33.8,27.4,29.00,ESE,112,0.0,2.0,77,0.00,,---,0.00,VWS V14.01,2013-01-30 09:18:00,
2013-01-30 04:19:00,33.8,27.4,29.00,NNE,22,0.0,0.0,77,0.00,,---,0.00,VWS V14.01,2013-01-30 09:19:00,
2013-01-30 04:20:00,33.8,27.4,29.00,NNE,22,0.0,0.0,77,0.00,,---,0.00,VWS V14.01,2013-01-30 09:20:00,
2013-01-30 04:21:00,33.8,27.4,29.00,NNW,338,2.5,2.5,77,0.00,,---,0.00,VWS V14.01,2013-01-30 09:21:00,
2013-01-30 04:22:00,33.8,27.7,29.00,NNW,338,0.0,2.5,78,0.00,,---,0.00,VWS V14.01,2013-01-30 09:22:00,
2013-01-30 04:23:00,33.8,27.7,29.00,NNW,338,0.0,0.0,78,0.00,,---,0.00,VWS V14.01,2013-01-30 09:23:00,
2013-01-30 04:24:00,33.8,27.7,29.00,NNE,22,0.0,0.0,78,0.00,,---,0.00,VWS V14.01,2013-01-30 09:24:00,
2013-01-30 04:25:00,33.8,27.7,29.00,NNE,22,0.0,0.0,78,0.00,,---,0.00,VWS V14.01,2013-01-30 09:25:00,
2013-01-30 04:26:00,33.8,27.7,29.00,East,90,2.9,4.0,78,0.00,,---,0.00,VWS V14.01,2013-01-30 09:26:00,
2013-01-30 04:27:00,33.8,27.7,29.00,ESE,112,3.1,3.1,78,0.00,,---,0.00,VWS V14.01,2013-01-30 09:27:00,
2013-01-30 04:28:00,33.8,27.7,29.00,NW,315,1.3,3.1,78,0.00,,---,0.00,VWS V14.01,2013-01-30 09:28:00,
2013-01-30 04:29:00,33.8,27.7,29.00,ESE,112,3.6,3.6,78,0.00,,---,0.00,VWS V14.01,2013-01-30 09:29:00,
2013-01-30 04:30:00,33.8,27.7,29.00,ESE,112,3.6,3.6,78,0.00,,---,0.00,VWS V14.01,2013-01-30 09:30:00,
2013-01-30 04:31:00,33.8,27.4,29.00,ENE,68,1.1,3.6,77,0.00,,---,0.00,VWS V14.01,2013-01-30 09:31:00,
2013-01-30 04:32:00,33.8,27.4,29.00,ENE,68,4.9,4.9,77,0.00,,---,0.00,VWS V14.01,2013-01-30 09:32:00,
2013-01-30 04:33:00,33.8,27.4,29.00,ENE,68,4.9,4.9,77,0.00,,---,0.00,VWS V14.01,2013-01-30 09:33:00,
2013-01-30 04:34:00,34.0,27.5,29.00,ESE,112,0.0,4.9,77,0.00,,---,0.00,VWS V14.01,2013-01-30 09:34:00,
2013-01-30 04:35:00,34.0,27.5,29.00,SSE,158,3.6,3.6,77,0.00,,---,0.00,VWS V14.01,2013-01-30 09:35:00,
2013-01-30 04:36:00,34.0,27.5,29.00,ESE,112,3.1,3.6,77,0.00,,---,0.00,VWS V14.01,2013-01-30 09:36:00,
2013-01-30 04:37:00,34.0,27.5,29.00,ESE,112,1.1,3.1,77,0.00,,---,0.00,VWS V14.01,2013-01-30 09:37:00,
2013-01-30 04:38:00,34.0,27.5,29.00,ESE,112,1.6,1.6,77,0.00,,---,0.00,VWS V14.01,2013-01-30 09:38:00,
2013-01-30 04:39:00,33.8,27.4,29.00,East,90,0.0,1.6,77,0.00,,---,0.00,VWS V14.01,2013-01-30 09:39:00,
2013-01-30 04:40:00,33.8,27.4,29.00,East,90,3.8,3.8,77,0.00,,---,0.00,VWS V14.01,2013-01-30 09:40:00,
2013-01-30 04:41:00,33.8,27.4,29.00,East,90,3.8,3.8,77,0.00,,---,0.00,VWS V14.01,2013-01-30 09:41:00,
2013-01-30 04:42:00,33.8,27.4,29.00,East,90,2.7,3.8,77,0.00,,---,0.00,VWS V14.01,2013-01-30 09:42:00,
2013-01-30 04:43:00,33.8,27.4,29.00,East,90,4.3,4.3,77,0.00,,---,0.00,VWS V14.01,2013-01-30 09:43:00,
2013-01-30 04:44:00,33.8,27.4,29.00,East,90,3.4,4.3,77,0.00,,---,0.00,VWS V14.01,2013-01-30 09:44:00,
2013-01-30 04:45:00,33.8,27.4,29.00,ESE,112,2.5,3.4,77,0.00,,---,0.00,VWS V14.01,2013-01-30 09:45:00,
2013-01-30 04:46:00,33.8,27.4,29.00,ESE,112,2.5,2.5,77,0.00,,---,0.00,VWS V14.01,2013-01-30 09:46:00,
2013-01-30 04:47:00,33.8,27.4,29.00,ESE,112,2.7,2.7,77,0.00,,---,0.00,VWS V14.01,2013-01-30 09:47:00,
2013-01-30 04:48:00,33.8,27.4,29.00,ESE,112,2.7,2.7,77,0.00,,---,0.00,VWS V14.01,2013-01-30 09:48:00,
2013-01-30 04:49:00,33.8,27.4,29.00,SE,135,4.3,4.3,77,0.00,,---,0.00,VWS V14.01,2013-01-30 09:49:00,
2013-01-30 04:50:00,33.8,27.4,29.00,ESE,112,5.6,5.6,77,0.00,,---,0.00,VWS V14.01,2013-01-30 09:50:00,
2013-01-30 04:51:00,33.8,27.4,29.00,ESE,112,4.0,5.6,77,0.00,,---,0.00,VWS V14.01,2013-01-30 09:51:00,
2013-01-30 04:52:00,34.0,27.5,29.00,ESE,112,4.7,4.7,77,0.00,,---,0.00,VWS V14.01,2013-01-30 09:52:00,
2013-01-30 04:53:00,34.0,27.5,29.00,East,90,8.1,8.1,77,0.00,,---,0.00,VWS V14.01,2013-01-30 09:53:00,
2013-01-30 04:54:00,34.0,27.2,29.00,ENE,68,4.3,8.1,76,0.00,,---,0.00,VWS V14.01,2013-01-30 09:54:00,
2013-01-30 04:55:00,34.0,27.2,29.00,East,90,3.6,4.3,76,0.00,,---,0.00,VWS V14.01,2013-01-30 09:55:00,
2013-01-30 04:56:00,34.0,27.5,29.00,ESE,112,2.9,6.3,77,0.00,,---,0.00,VWS V14.01,2013-01-30 09:56:00,
2013-01-30 04:57:00,34.0,27.5,29.00,East,90,0.0,2.9,77,0.00,,---,0.00,VWS V14.01,2013-01-30 09:57:00,
2013-01-30 04:58:00,34.0,27.5,29.00,SW,225,3.4,3.4,77,0.00,,---,0.00,VWS V14.01,2013-01-30 09:58:00,
2013-01-30 04:59:00,34.0,27.5,29.00,West,270,1.6,3.4,77,0.00,,---,0.00,VWS V14.01,2013-01-30 09:59:00,
2013-01-30 05:00:00,34.2,28.0,29.00,ENE,68,3.4,3.4,78,0.00,,---,0.00,VWS V14.01,2013-01-30 10:00:00,
2013-01-30 05:01:00,34.2,28.0,29.00,ESE,112,2.2,3.4,78,0.00,,---,0.00,VWS V14.01,2013-01-30 10:01:00,
2013-01-30 05:02:00,34.0,27.9,29.00,ESE,112,3.6,3.6,78,0.00,,---,0.00,VWS V14.01,2013-01-30 10:02:00,
2013-01-30 05:03:00,34.0,27.9,29.00,ENE,68,4.7,4.7,78,0.00,,---,0.00,VWS V14.01,2013-01-30 10:03:00,
2013-01-30 05:04:00,34.2,27.7,29.00,ENE,68,4.7,4.7,77,0.00,,---,0.00,VWS V14.01,2013-01-30 10:04:00,
2013-01-30 05:05:00,34.2,27.7,29.00,NE,45,0.0,4.7,77,0.00,,---,0.00,VWS V14.01,2013-01-30 10:05:00,
2013-01-30 05:06:00,34.2,28.0,29.00,NE,45,0.0,0.0,78,0.00,,---,0.00,VWS V14.01,2013-01-30 10:06:00,
2013-01-30 05:07:00,34.2,28.0,29.00,South,180,6.3,6.3,78,0.00,,---,0.00,VWS V14.01,2013-01-30 10:07:00,
2013-01-30 05:08:00,34.2,27.7,28.97,SE,135,1.1,6.3,77,0.00,,---,0.00,VWS V14.01,2013-01-30 10:08:00,
2013-01-30 05:09:00,34.2,27.7,28.97,SE,135,1.1,1.1,77,0.00,,---,0.00,VWS V14.01,2013-01-30 10:09:00,
2013-01-30 05:10:00,34.2,28.0,28.97,ENE,68,3.4,3.4,78,0.00,,---,0.00,VWS V14.01,2013-01-30 10:10:00,
2013-01-30 05:11:00,34.2,28.0,28.97,ENE,68,3.4,3.4,78,0.00,,---,0.00,VWS V14.01,2013-01-30 10:11:00,
2013-01-30 05:12:00,34.2,28.0,28.97,South,180,0.0,0.0,78,0.00,,---,0.00,VWS V14.01,2013-01-30 10:12:00,
2013-01-30 05:13:00,34.3,28.2,28.97,NNE,22,3.1,3.1,78,0.00,,---,0.00,VWS V14.01,2013-01-30 10:13:00,
2013-01-30 05:14:00,34.3,28.2,28.97,ENE,68,1.6,3.1,78,0.00,,---,0.00,VWS V14.01,2013-01-30 10:14:00,
2013-01-30 05:15:00,34.2,28.0,28.97,ESE,112,3.8,3.8,78,0.00,,---,0.00,VWS V14.01,2013-01-30 10:15:00,
2013-01-30 05:16:00,34.2,28.0,28.97,SSE,158,0.9,3.8,78,0.00,,---,0.00,VWS V14.01,2013-01-30 10:16:00,
2013-01-30 05:17:00,34.2,28.0,28.97,ESE,112,2.9,2.9,78,0.00,,---,0.00,VWS V14.01,2013-01-30 10:17:00,
2013-01-30 05:18:00,34.2,28.0,28.97,NNE,22,3.4,3.4,78,0.00,,---,0.00,VWS V14.01,2013-01-30 10:18:00,
2013-01-30 05:19:00,34.2,28.0,28.97,NNW,338,1.6,3.4,78,0.00,,---,0.00,VWS V14.01,2013-01-30 10:19:00,
2013-01-30 05:20:00,34.3,28.2,28.97,North,0,2.2,2.2,78,0.00,,---,0.00,VWS V14.01,2013-01-30 10:20:00,
2013-01-30 05:21:00,34.3,28.5,28.97,NNW,338,0.0,2.2,79,0.00,,---,0.00,VWS V14.01,2013-01-30 10:21:00,
2013-01-30 05:22:00,34.3,28.5,28.97,NNE,22,3.4,3.4,79,0.00,,---,0.00,VWS V14.01,2013-01-30 10:22:00,
2013-01-30 05:23:00,34.3,28.5,28.97,ENE,68,3.1,3.4,79,0.00,,---,0.00,VWS V14.01,2013-01-30 10:23:00,
2013-01-30 05:24:00,34.3,28.2,28.97,ENE,68,2.5,3.6,78,0.00,,---,0.00,VWS V14.01,2013-01-30 10:24:00,
2013-01-30 05:25:00,34.0,27.9,28.97,ENE,68,2.5,2.5,78,0.00,,---,0.00,VWS V14.01,2013-01-30 10:25:00,
2013-01-30 05:26:00,34.0,27.9,28.97,WSW,248,0.9,2.5,78,0.00,,---,0.00,VWS V14.01,2013-01-30 10:26:00,
2013-01-30 05:27:00,34.0,27.9,28.97,West,270,1.3,1.3,78,0.00,,---,0.00,VWS V14.01,2013-01-30 10:27:00,
2013-01-30 05:28:00,34.0,27.9,28.97,ESE,112,2.2,2.2,78,0.00,,---,0.00,VWS V14.01,2013-01-30 10:28:00,
2013-01-30 05:29:00,34.0,27.9,28.97,ESE,112,0.0,2.2,78,0.00,,---,0.00,VWS V14.01,2013-01-30 10:29:00,
2013-01-30 05:30:00,34.0,27.9,28.97,ESE,112,2.9,2.9,78,0.00,,---,0.00,VWS V14.01,2013-01-30 10:30:00,
2013-01-30 05:31:00,34.0,27.9,28.97,SE,135,3.4,3.4,78,0.00,,---,0.00,VWS V14.01,2013-01-30 10:31:00,
2013-01-30 05:32:00,34.0,27.9,28.97,East,90,3.4,3.4,78,0.00,,---,0.00,VWS V14.01,2013-01-30 10:32:00,
2013-01-30 05:33:00,34.0,27.9,28.97,ESE,112,0.0,3.4,78,0.00,,---,0.00,VWS V14.01,2013-01-30 10:33:00,
2013-01-30 05:34:00,34.0,27.9,28.97,SSW,202,0.0,0.0,78,0.00,,---,0.00,VWS V14.01,2013-01-30 10:34:00,
2013-01-30 05:35:00,34.0,27.9,28.97,NNW,338,0.0,0.0,78,0.00,,---,0.00,VWS V14.01,2013-01-30 10:35:00,
2013-01-30 05:36:00,34.2,28.0,28.97,ESE,112,3.4,3.6,78,0.00,,---,0.00,VWS V14.01,2013-01-30 10:36:00,
2013-01-30 05:37:00,34.2,28.0,28.97,ESE,112,3.4,3.4,78,0.00,,---,0.00,VWS V14.01,2013-01-30 10:37:00,
2013-01-30 05:38:00,34.2,28.0,28.97,ESE,112,3.4,3.4,78,0.00,,---,0.00,VWS V14.01,2013-01-30 10:38:00,
2013-01-30 05:39:00,34.2,28.0,28.97,ESE,112,3.4,3.4,78,0.00,,---,0.00,VWS V14.01,2013-01-30 10:39:00,
2013-01-30 05:40:00,34.0,27.9,28.97,ESE,112,0.9,3.4,78,0.00,,---,0.00,VWS V14.01,2013-01-30 10:40:00,
2013-01-30 05:41:00,34.0,27.9,28.97,ESE,112,0.9,0.9,78,0.00,,---,0.00,VWS V14.01,2013-01-30 10:41:00,
2013-01-30 05:42:00,34.0,27.9,28.97,ESE,112,0.0,0.9,78,0.00,,---,0.00,VWS V14.01,2013-01-30 10:42:00,
2013-01-30 05:43:00,34.0,27.9,28.97,ENE,68,3.1,3.1,78,0.00,,---,0.00,VWS V14.01,2013-01-30 10:43:00,
2013-01-30 05:44:00,34.0,27.9,28.97,ENE,68,2.7,3.1,78,0.00,,---,0.00,VWS V14.01,2013-01-30 10:44:00,
2013-01-30 05:45:00,34.2,28.0,28.97,ENE,68,0.0,2.7,78,0.00,,---,0.00,VWS V14.01,2013-01-30 10:45:00,
2013-01-30 05:46:00,34.0,27.9,28.97,ENE,68,0.0,0.0,78,0.00,,---,0.00,VWS V14.01,2013-01-30 10:46:00,
2013-01-30 05:47:00,34.0,27.9,28.97,ENE,68,1.3,1.3,78,0.00,,---,0.00,VWS V14.01,2013-01-30 10:47:00,
2013-01-30 05:48:00,34.0,27.9,28.97,ENE,68,1.3,1.3,78,0.00,,---,0.00,VWS V14.01,2013-01-30 10:48:00,
2013-01-30 05:49:00,34.0,27.9,28.97,ENE,68,2.2,2.7,78,0.00,,---,0.00,VWS V14.01,2013-01-30 10:49:00,
2013-01-30 05:50:00,33.8,27.7,28.97,ENE,68,2.7,2.7,78,0.00,,---,0.00,VWS V14.01,2013-01-30 10:50:00,
2013-01-30 05:51:00,33.8,27.7,28.97,NE,45,0.0,2.7,78,0.00,,---,0.00,VWS V14.01,2013-01-30 10:51:00,
2013-01-30 05:52:00,33.8,27.7,28.97,NE,45,0.0,0.0,78,0.00,,---,0.00,VWS V14.01,2013-01-30 10:52:00,
2013-01-30 05:53:00,33.8,27.7,28.94,East,90,2.5,2.5,78,0.00,,---,0.00,VWS V14.01,2013-01-30 10:53:00,
2013-01-30 05:54:00,33.8,27.7,28.94,ESE,112,2.5,2.5,78,0.00,,---,0.00,VWS V14.01,2013-01-30 10:54:00,
2013-01-30 05:55:00,33.8,27.7,28.94,NE,45,3.1,3.1,78,0.00,,---,0.00,VWS V14.01,2013-01-30 10:55:00,
2013-01-30 05:56:00,34.0,27.9,28.94,East,90,2.7,3.1,78,0.00,,---,0.00,VWS V14.01,2013-01-30 10:56:00,
2013-01-30 05:57:00,34.0,27.9,28.94,ENE,68,2.7,2.7,78,0.00,,---,0.00,VWS V14.01,2013-01-30 10:57:00,
2013-01-30 05:58:00,34.0,27.9,28.94,ENE,68,3.8,3.8,78,0.00,,---,0.00,VWS V14.01,2013-01-30 10:58:00,
2013-01-30 05:59:00,34.0,27.9,28.94,ESE,112,2.7,3.8,78,0.00,,---,0.00,VWS V14.01,2013-01-30 10:59:00,
2013-01-30 06:00:00,34.0,27.9,28.94,SE,135,0.0,2.7,78,0.00,,---,0.00,VWS V14.01,2013-01-30 11:00:00,
2013-01-30 06:01:00,34.0,27.9,28.94,ENE,68,3.8,3.8,78,0.00,,---,0.00,VWS V14.01,2013-01-30 11:01:00,
2013-01-30 06:02:00,34.0,27.9,28.94,ENE,68,3.8,3.8,78,0.00,,---,0.00,VWS V14.01,2013-01-30 11:02:00,
2013-01-30 06:03:00,34.0,27.9,28.94,ENE,68,1.6,3.8,78,0.00,,---,0.00,VWS V14.01,2013-01-30 11:03:00,
2013-01-30 06:04:00,34.0,27.9,28.94,ENE,68,1.6,1.6,78,0.00,,---,0.00,VWS V14.01,2013-01-30 11:04:00,
2013-01-30 06:05:00,34.0,28.2,28.94,ENE,68,1.3,2.9,79,0.00,,---,0.00,VWS V14.01,2013-01-30 11:05:00,
2013-01-30 06:06:00,34.0,28.2,28.94,NNE,22,0.0,1.3,79,0.00,,---,0.00,VWS V14.01,2013-01-30 11:06:00,
2013-01-30 06:07:00,34.0,28.2,28.94,ENE,68,1.6,1.6,79,0.00,,---,0.00,VWS V14.01,2013-01-30 11:07:00,
2013-01-30 06:08:00,34.0,28.2,28.91,ENE,68,2.5,2.5,79,0.00,,---,0.00,VWS V14.01,2013-01-30 11:08:00,
2013-01-30 06:09:00,34.0,28.2,28.91,NE,45,2.0,2.5,79,0.00,,---,0.00,VWS V14.01,2013-01-30 11:09:00,
2013-01-30 06:10:00,34.0,28.2,28.91,NE,45,1.6,2.0,79,0.00,,---,0.00,VWS V14.01,2013-01-30 11:10:00,
2013-01-30 06:11:00,34.0,28.2,28.91,NE,45,1.6,1.6,79,0.00,,---,0.00,VWS V14.01,2013-01-30 11:11:00,
2013-01-30 06:12:00,34.0,28.2,28.91,NNE,22,0.0,1.6,79,0.00,,---,0.00,VWS V14.01,2013-01-30 11:12:00,
2013-01-30 06:13:00,34.2,28.3,28.91,NNE,22,1.1,1.1,79,0.00,,---,0.00,VWS V14.01,2013-01-30 11:13:00,
2013-01-30 06:14:00,34.2,28.3,28.91,NNE,22,0.0,1.1,79,0.00,,---,0.00,VWS V14.01,2013-01-30 11:14:00,
2013-01-30 06:15:00,34.2,28.3,28.91,NNE,22,0.9,0.9,79,0.00,,---,0.00,VWS V14.01,2013-01-30 11:15:00,
2013-01-30 06:16:00,34.2,28.3,28.91,NNE,22,0.0,0.9,79,0.00,,---,0.00,VWS V14.01,2013-01-30 11:16:00,
2013-01-30 06:17:00,34.0,28.2,28.91,East,90,0.0,0.0,79,0.00,,---,0.00,VWS V14.01,2013-01-30 11:17:00,
2013-01-30 06:18:00,34.0,28.2,28.91,SSE,158,2.0,2.0,79,0.00,,---,0.00,VWS V14.01,2013-01-30 11:18:00,
2013-01-30 06:19:00,34.0,28.2,28.91,East,90,0.0,2.0,79,0.00,,---,0.00,VWS V14.01,2013-01-30 11:19:00,
2013-01-30 06:20:00,34.0,28.2,28.91,East,90,0.0,0.0,79,0.00,,---,0.00,VWS V14.01,2013-01-30 11:20:00,
2013-01-30 06:21:00,34.0,28.2,28.91,ENE,68,1.1,1.1,79,0.00,,---,0.00,VWS V14.01,2013-01-30 11:21:00,
2013-01-30 06:22:00,34.2,28.3,28.91,ENE,68,0.0,1.1,79,0.00,,---,0.00,VWS V14.01,2013-01-30 11:22:00,
2013-01-30 06:23:00,34.3,28.8,28.91,ENE,68,0.0,0.0,80,0.00,,---,0.00,VWS V14.01,2013-01-30 11:23:00,
2013-01-30 06:24:00,34.3,28.8,28.91,ENE,68,0.0,0.0,80,0.00,,---,0.00,VWS V14.01,2013-01-30 11:24:00,
2013-01-30 06:25:00,34.2,28.6,28.91,NNW,338,1.6,1.6,80,0.00,,---,0.00,VWS V14.01,2013-01-30 11:25:00,
2013-01-30 06:26:00,34.2,28.6,28.91,NE,45,1.1,2.7,80,0.00,,---,0.00,VWS V14.01,2013-01-30 11:26:00,
2013-01-30 06:27:00,34.0,28.2,28.91,ENE,68,0.0,1.1,79,0.00,,---,0.00,VWS V14.01,2013-01-30 11:27:00,
2013-01-30 06:28:00,34.0,28.2,28.91,ENE,68,0.0,1.1,79,0.00,,---,0.00,VWS V14.01,2013-01-30 11:28:00,
2013-01-30 06:29:00,34.0,28.2,28.91,ENE,68,0.0,0.0,79,0.00,,---,0.00,VWS V14.01,2013-01-30 11:29:00,
2013-01-30 06:30:00,34.0,28.2,28.91,ENE,68,0.0,0.0,79,0.00,,---,0.00,VWS V14.01,2013-01-30 11:30:00,
2013-01-30 06:31:00,34.0,28.2,28.91,ENE,68,0.0,0.0,79,0.00,,---,0.00,VWS V14.01,2013-01-30 11:31:00,
2013-01-30 06:32:00,34.0,28.2,28.91,NE,45,0.0,0.0,79,0.00,,---,0.00,VWS V14.01,2013-01-30 11:32:00,
2013-01-30 06:33:00,34.3,28.5,28.91,NE,45,0.0,0.0,79,0.00,,---,0.00,VWS V14.01,2013-01-30 11:33:00,
2013-01-30 06:34:00,34.3,28.5,28.91,NE,45,0.0,0.0,79,0.00,,---,0.00,VWS V14.01,2013-01-30 11:34:00,
2013-01-30 06:35:00,34.3,28.5,28.91,SW,225,2.7,2.7,79,0.00,,---,0.00,VWS V14.01,2013-01-30 11:35:00,
2013-01-30 06:36:00,34.3,28.8,28.91,WNW,292,1.6,2.7,80,0.00,,---,0.00,VWS V14.01,2013-01-30 11:36:00,
2013-01-30 06:37:00,34.3,28.8,28.91,WNW,292,1.3,1.6,80,0.00,,---,0.00,VWS V14.01,2013-01-30 11:37:00,
2013-01-30 06:38:00,34.3,28.8,28.91,ESE,112,4.9,4.9,80,0.00,,---,0.00,VWS V14.01,2013-01-30 11:38:00,
2013-01-30 06:39:00,34.5,29.0,28.91,WNW,292,4.0,4.9,80,0.00,,---,0.00,VWS V14.01,2013-01-30 11:39:00,
2013-01-30 06:40:00,34.5,29.0,28.91,ENE,68,1.6,4.0,80,0.00,,---,0.00,VWS V14.01,2013-01-30 11:40:00,
2013-01-30 06:41:00,34.3,28.8,28.91,NE,45,0.0,1.6,80,0.00,,---,0.00,VWS V14.01,2013-01-30 11:41:00,
2013-01-30 06:42:00,34.3,28.8,28.91,NE,45,0.0,0.0,80,0.00,,---,0.00,VWS V14.01,2013-01-30 11:42:00,
2013-01-30 06:43:00,34.3,28.8,28.91,SSE,158,0.0,0.0,80,0.00,,---,0.00,VWS V14.01,2013-01-30 11:43:00,
2013-01-30 06:44:00,34.3,28.8,28.91,WSW,248,0.9,0.9,80,0.00,,---,0.00,VWS V14.01,2013-01-30 11:44:00,
2013-01-30 06:45:00,34.3,28.8,28.91,WSW,248,2.2,2.2,80,0.00,,---,0.00,VWS V14.01,2013-01-30 11:45:00,
2013-01-30 06:46:00,34.3,28.8,28.91,WNW,292,4.5,4.5,80,0.00,,---,0.00,VWS V14.01,2013-01-30 11:46:00,
2013-01-30 06:47:00,34.3,28.8,28.91,WSW,248,3.6,4.5,80,0.00,,---,0.00,VWS V14.01,2013-01-30 11:47:00,
2013-01-30 06:48:00,34.3,28.8,28.91,SSE,158,1.1,1.1,80,0.00,,---,0.00,VWS V14.01,2013-01-30 11:48:00,
2013-01-30 06:49:00,34.5,29.0,28.91,ESE,112,2.5,2.5,80,0.00,,---,0.00,VWS V14.01,2013-01-30 11:49:00,
2013-01-30 06:50:00,34.5,29.0,28.91,ESE,112,2.5,2.5,80,0.00,,---,0.00,VWS V14.01,2013-01-30 11:50:00,
2013-01-30 06:51:00,34.5,29.0,28.91,SSE,158,0.0,2.5,80,0.00,,---,0.00,VWS V14.01,2013-01-30 11:51:00,
2013-01-30 06:52:00,34.5,29.0,28.91,East,90,2.7,2.7,80,0.00,,---,0.00,VWS V14.01,2013-01-30 11:52:00,
2013-01-30 06:53:00,34.5,29.0,28.88,East,90,0.0,2.7,80,0.00,,---,0.00,VWS V14.01,2013-01-30 11:53:00,
2013-01-30 06:54:00,34.5,29.0,28.88,East,90,0.0,0.0,80,0.00,,---,0.00,VWS V14.01,2013-01-30 11:54:00,
2013-01-30 06:55:00,34.5,29.0,28.88,East,90,0.0,0.0,80,0.00,,---,0.00,VWS V14.01,2013-01-30 11:55:00,
2013-01-30 06:56:00,34.5,29.0,28.88,East,90,0.0,0.0,80,0.00,,---,0.00,VWS V14.01,2013-01-30 11:56:00,
2013-01-30 06:57:00,34.5,29.0,28.88,ESE,112,2.5,2.5,80,0.00,,---,0.00,VWS V14.01,2013-01-30 11:57:00,
2013-01-30 06:58:00,34.5,29.0,28.88,East,90,0.9,2.5,80,0.00,,---,0.00,VWS V14.01,2013-01-30 11:58:00,
2013-01-30 06:59:00,34.5,29.0,28.88,ENE,68,2.9,2.9,80,0.00,,---,0.00,VWS V14.01,2013-01-30 11:59:00,
2013-01-30 07:00:00,34.5,29.0,28.88,ENE,68,2.0,2.9,80,0.00,,---,0.00,VWS V14.01,2013-01-30 12:00:00,
2013-01-30 07:01:00,34.5,29.0,28.88,ESE,112,0.0,2.2,80,0.00,,---,0.00,VWS V14.01,2013-01-30 12:01:00,
2013-01-30 07:02:00,34.5,29.0,28.88,ESE,112,0.0,0.0,80,0.00,,---,0.00,VWS V14.01,2013-01-30 12:02:00,
2013-01-30 07:03:00,34.5,29.0,28.88,ESE,112,0.0,0.0,80,0.00,,---,0.00,VWS V14.01,2013-01-30 12:03:00,
2013-01-30 07:04:00,34.5,29.0,28.88,ESE,112,0.0,0.0,80,0.00,,---,0.00,VWS V14.01,2013-01-30 12:04:00,
2013-01-30 07:05:00,34.5,29.0,28.88,ESE,112,0.0,0.0,80,0.00,,---,0.00,VWS V14.01,2013-01-30 12:05:00,
2013-01-30 07:06:00,34.5,28.7,28.88,SE,135,2.2,2.9,79,0.00,,---,0.00,VWS V14.01,2013-01-30 12:06:00,
2013-01-30 07:07:00,34.5,28.7,28.88,ESE,112,2.5,2.5,79,0.00,,---,0.00,VWS V14.01,2013-01-30 12:07:00,
2013-01-30 07:08:00,34.5,29.0,28.88,ESE,112,0.0,2.5,80,0.00,,---,0.00,VWS V14.01,2013-01-30 12:08:00,
2013-01-30 07:09:00,34.5,29.0,28.88,ESE,112,2.0,2.0,80,0.00,,---,0.00,VWS V14.01,2013-01-30 12:09:00,
2013-01-30 07:10:00,34.5,28.7,28.88,SSE,158,0.0,2.0,79,0.00,,---,0.00,VWS V14.01,2013-01-30 12:10:00,
2013-01-30 07:11:00,34.5,28.7,28.88,SSE,158,0.0,0.0,79,0.00,,---,0.00,VWS V14.01,2013-01-30 12:11:00,
2013-01-30 07:12:00,34.5,28.7,28.88,ESE,112,0.0,0.0,79,0.00,,---,0.00,VWS V14.01,2013-01-30 12:12:00,
2013-01-30 07:13:00,34.5,28.7,28.88,ESE,112,0.0,0.0,79,0.00,,---,0.00,VWS V14.01,2013-01-30 12:13:00,
2013-01-30 07:14:00,34.5,28.7,28.88,NW,315,2.5,2.5,79,0.00,,---,0.00,VWS V14.01,2013-01-30 12:14:00,
2013-01-30 07:15:00,34.5,29.0,28.88,WNW,292,2.5,2.5,80,0.00,,---,0.00,VWS V14.01,2013-01-30 12:15:00,
2013-01-30 07:16:00,34.5,29.0,28.88,NW,315,1.3,2.5,80,0.00,,---,0.00,VWS V14.01,2013-01-30 12:16:00,
2013-01-30 07:17:00,34.7,29.5,28.88,NW,315,1.3,1.3,81,0.00,,---,0.00,VWS V14.01,2013-01-30 12:17:00,
2013-01-30 07:18:00,34.7,29.5,28.88,NNW,338,0.0,1.3,81,0.00,,---,0.00,VWS V14.01,2013-01-30 12:18:00,
2013-01-30 07:19:00,34.7,29.5,28.88,NNW,338,0.0,0.0,81,0.00,,---,0.00,VWS V14.01,2013-01-30 12:19:00,
2013-01-30 07:20:00,34.7,29.5,28.88,ENE,68,0.0,0.0,81,0.00,,---,0.00,VWS V14.01,2013-01-30 12:20:00,
2013-01-30 07:21:00,34.7,29.5,28.88,WNW,292,2.5,2.5,81,0.00,,---,0.00,VWS V14.01,2013-01-30 12:21:00,
2013-01-30 07:22:00,34.7,29.5,28.88,WNW,292,2.5,2.5,81,0.00,,---,0.00,VWS V14.01,2013-01-30 12:22:00,
2013-01-30 07:23:00,34.7,29.5,28.88,WNW,292,0.0,2.5,81,0.00,,---,0.00,VWS V14.01,2013-01-30 12:23:00,
2013-01-30 07:24:00,34.5,29.3,28.88,NW,315,0.0,2.2,81,0.00,,---,0.00,VWS V14.01,2013-01-30 12:24:00,
2013-01-30 07:25:00,34.5,29.3,28.88,NW,315,0.0,0.0,81,0.00,,---,0.00,VWS V14.01,2013-01-30 12:25:00,
2013-01-30 07:26:00,34.5,29.3,28.88,WSW,248,0.0,2.0,81,0.00,,---,0.00,VWS V14.01,2013-01-30 12:26:00,
2013-01-30 07:27:00,34.5,29.3,28.88,WSW,248,0.0,0.0,81,0.00,,---,0.00,VWS V14.01,2013-01-30 12:27:00,
2013-01-30 07:28:00,34.5,29.3,28.88,WNW,292,0.0,0.0,81,0.00,,---,0.00,VWS V14.01,2013-01-30 12:28:00,
2013-01-30 07:29:00,34.5,29.3,28.88,NW,315,0.0,0.0,81,0.00,,---,0.00,VWS V14.01,2013-01-30 12:29:00,
2013-01-30 07:30:00,34.5,29.3,28.88,SSE,158,0.0,0.0,81,0.00,,---,0.00,VWS V14.01,2013-01-30 12:30:00,
2013-01-30 07:31:00,34.7,29.5,28.88,SSE,158,0.0,0.0,81,0.00,,---,0.00,VWS V14.01,2013-01-30 12:31:00,
2013-01-30 07:32:00,34.7,29.5,28.88,SSE,158,1.1,1.1,81,0.00,,---,0.00,VWS V14.01,2013-01-30 12:32:00,
2013-01-30 07:33:00,34.7,29.5,28.88,SW,225,1.1,1.1,81,0.00,,---,0.00,VWS V14.01,2013-01-30 12:33:00,
2013-01-30 07:34:00,34.9,29.6,28.88,SW,225,1.6,1.6,81,0.00,,---,0.00,VWS V14.01,2013-01-30 12:34:00,
2013-01-30 07:35:00,34.9,29.6,28.88,East,90,2.5,2.5,81,0.00,,---,0.00,VWS V14.01,2013-01-30 12:35:00,
2013-01-30 07:36:00,34.9,29.6,28.88,East,90,1.1,2.5,81,0.00,,---,0.00,VWS V14.01,2013-01-30 12:36:00,
2013-01-30 07:37:00,34.9,29.6,28.88,SSW,202,0.0,1.1,81,0.00,,---,0.00,VWS V14.01,2013-01-30 12:37:00,
2013-01-30 07:38:00,34.9,29.6,28.88,ESE,112,2.5,2.5,81,0.00,,---,0.00,VWS V14.01,2013-01-30 12:38:00,
2013-01-30 07:39:00,34.9,29.6,28.88,NW,315,1.6,2.5,81,0.00,,---,0.00,VWS V14.01,2013-01-30 12:39:00,
2013-01-30 07:40:00,34.9,29.6,28.88,WSW,248,0.0,2.5,81,0.00,,---,0.00,VWS V14.01,2013-01-30 12:40:00,
2013-01-30 07:41:00,34.9,29.6,28.88,WSW,248,0.0,0.0,81,0.00,,---,0.00,VWS V14.01,2013-01-30 12:41:00,
2013-01-30 07:42:00,34.9,29.6,28.88,WSW,248,0.0,0.0,81,0.00,,---,0.00,VWS V14.01,2013-01-30 12:42:00,
2013-01-30 07:43:00,34.9,29.6,28.88,SE,135,0.0,1.3,81,0.00,,---,0.00,VWS V14.01,2013-01-30 12:43:00,
2013-01-30 07:44:00,34.9,29.6,28.88,ESE,112,0.0,0.0,81,0.00,,---,0.00,VWS V14.01,2013-01-30 12:44:00,
2013-01-30 07:45:00,34.9,29.6,28.88,South,180,0.0,0.0,81,0.00,,---,0.00,VWS V14.01,2013-01-30 12:45:00,
2013-01-30 07:46:00,34.9,29.6,28.88,SSE,158,1.1,1.1,81,0.00,,---,0.00,VWS V14.01,2013-01-30 12:46:00,
2013-01-30 07:47:00,34.9,29.4,28.88,SSE,158,1.6,1.6,80,0.00,,---,0.00,VWS V14.01,2013-01-30 12:47:00,
2013-01-30 07:48:00,34.9,29.4,28.88,WSW,248,0.9,1.6,80,0.00,,---,0.00,VWS V14.01,2013-01-30 12:48:00,
2013-01-30 07:49:00,34.9,29.4,28.88,SE,135,2.7,2.7,80,0.00,,---,0.00,VWS V14.01,2013-01-30 12:49:00,
2013-01-30 07:50:00,35.1,29.8,28.88,SE,135,2.7,2.7,81,0.00,,---,0.00,VWS V14.01,2013-01-30 12:50:00,
2013-01-30 07:51:00,35.1,29.8,28.88,South,180,0.0,2.7,81,0.00,,---,0.00,VWS V14.01,2013-01-30 12:51:00,
2013-01-30 07:52:00,35.1,29.5,28.88,NNW,338,0.0,0.0,80,0.00,,---,0.00,VWS V14.01,2013-01-30 12:52:00,
2013-01-30 07:53:00,35.2,29.7,28.88,East,90,2.2,2.2,80,0.00,,---,0.00,VWS V14.01,2013-01-30 12:53:00,
2013-01-30 07:54:00,35.2,29.7,28.88,SSW,202,2.7,2.7,80,0.00,,---,0.00,VWS V14.01,2013-01-30 12:54:00,
2013-01-30 07:55:00,35.2,29.7,28.88,ENE,68,3.8,3.8,80,0.00,,---,0.00,VWS V14.01,2013-01-30 12:55:00,
2013-01-30 07:56:00,35.4,29.9,28.88,West,270,2.2,3.8,80,0.00,,---,0.00,VWS V14.01,2013-01-30 12:56:00,
2013-01-30 07:57:00,35.2,29.7,28.88,SSE,158,2.5,2.5,80,0.00,,---,0.00,VWS V14.01,2013-01-30 12:57:00,
2013-01-30 07:58:00,35.2,29.7,28.88,ENE,68,4.7,4.7,80,0.00,,---,0.00,VWS V14.01,2013-01-30 12:58:00,
2013-01-30 07:59:00,35.4,29.9,28.88,WSW,248,0.0,4.7,80,0.00,,---,0.00,VWS V14.01,2013-01-30 12:59:00,
2013-01-30 08:00:00,35.4,29.9,28.88,SSW,202,1.6,1.6,80,0.00,,---,0.00,VWS V14.01,2013-01-30 13:00:00,
2013-01-30 08:01:00,35.2,29.7,28.88,WSW,248,1.6,1.6,80,0.00,,---,0.00,VWS V14.01,2013-01-30 13:01:00,
2013-01-30 08:02:00,35.2,29.7,28.88,WSW,248,3.1,3.1,80,0.00,,---,0.00,VWS V14.01,2013-01-30 13:02:00,
2013-01-30 08:03:00,35.2,29.7,28.88,WSW,248,0.0,3.1,80,0.00,,---,0.00,VWS V14.01,2013-01-30 13:03:00,
2013-01-30 08:04:00,35.2,29.7,28.88,WSW,248,0.0,0.0,80,0.00,,---,0.00,VWS V14.01,2013-01-30 13:04:00,
2013-01-30 08:05:00,35.2,29.7,28.88,WSW,248,0.0,0.0,80,0.00,,---,0.00,VWS V14.01,2013-01-30 13:05:00,
2013-01-30 08:06:00,35.2,30.0,28.88,WSW,248,0.0,0.0,81,0.00,,---,0.00,VWS V14.01,2013-01-30 13:06:00,
2013-01-30 08:07:00,35.2,30.0,28.88,SE,135,1.3,1.3,81,0.00,,---,0.00,VWS V14.01,2013-01-30 13:07:00,
2013-01-30 08:08:00,35.2,30.0,28.88,SE,135,0.0,0.0,81,0.00,,---,0.00,VWS V14.01,2013-01-30 13:08:00,
2013-01-30 08:09:00,35.2,30.0,28.88,WNW,292,2.7,2.7,81,0.00,,---,0.00,VWS V14.01,2013-01-30 13:09:00,
2013-01-30 08:10:00,35.4,29.9,28.88,SW,225,1.1,2.7,80,0.00,,---,0.00,VWS V14.01,2013-01-30 13:10:00,
2013-01-30 08:11:00,35.4,29.9,28.88,SSE,158,4.9,4.9,80,0.00,,---,0.00,VWS V14.01,2013-01-30 13:11:00,
2013-01-30 08:12:00,35.4,29.9,28.88,SSE,158,0.9,4.9,80,0.00,,---,0.00,VWS V14.01,2013-01-30 13:12:00,
2013-01-30 08:13:00,35.4,29.9,28.88,SSE,158,0.0,0.9,80,0.00,,---,0.00,VWS V14.01,2013-01-30 13:13:00,
2013-01-30 08:14:00,35.6,30.0,28.88,East,90,1.6,1.6,80,0.00,,---,0.00,VWS V14.01,2013-01-30 13:14:00,
2013-01-30 08:15:00,35.6,30.0,28.88,East,90,0.0,1.6,80,0.00,,---,0.00,VWS V14.01,2013-01-30 13:15:00,
2013-01-30 08:16:00,35.6,30.0,28.88,WSW,248,6.0,6.0,80,0.00,,---,0.00,VWS V14.01,2013-01-30 13:16:00,
2013-01-30 08:17:00,35.6,30.0,28.88,SW,225,2.5,6.0,80,0.00,,---,0.00,VWS V14.01,2013-01-30 13:17:00,
2013-01-30 08:18:00,35.6,30.0,28.88,South,180,0.0,2.5,80,0.00,,---,0.00,VWS V14.01,2013-01-30 13:18:00,
2013-01-30 08:19:00,35.8,30.5,28.88,South,180,0.0,3.6,81,0.00,,---,0.00,VWS V14.01,2013-01-30 13:19:00,
2013-01-30 08:20:00,35.8,30.5,28.88,South,180,0.0,0.0,81,0.00,,---,0.00,VWS V14.01,2013-01-30 13:20:00,
2013-01-30 08:21:00,35.8,30.5,28.88,ESE,112,2.5,2.5,81,0.00,,---,0.00,VWS V14.01,2013-01-30 13:21:00,
2013-01-30 08:22:00,35.8,30.5,28.88,ESE,112,2.5,2.5,81,0.00,,---,0.00,VWS V14.01,2013-01-30 13:22:00,
2013-01-30 08:23:00,35.8,30.5,28.88,SSE,158,1.6,1.6,81,0.00,,---,0.00,VWS V14.01,2013-01-30 13:23:00,
2013-01-30 08:24:00,35.8,30.5,28.88,South,180,0.0,1.6,81,0.00,,---,0.00,VWS V14.01,2013-01-30 13:24:00,
2013-01-30 08:25:00,35.8,30.5,28.88,WNW,292,4.0,4.0,81,0.00,,---,0.00,VWS V14.01,2013-01-30 13:25:00,
2013-01-30 08:26:00,35.8,30.5,28.88,South,180,0.0,4.0,81,0.00,,---,0.00,VWS V14.01,2013-01-30 13:26:00,
2013-01-30 08:27:00,35.8,30.5,28.88,South,180,0.0,0.0,81,0.00,,---,0.00,VWS V14.01,2013-01-30 13:27:00,
2013-01-30 08:28:00,36.0,30.7,28.88,SW,225,1.1,2.5,81,0.00,,---,0.00,VWS V14.01,2013-01-30 13:28:00,
2013-01-30 08:29:00,35.8,30.5,28.88,ESE,112,2.0,2.0,81,0.00,,---,0.00,VWS V14.01,2013-01-30 13:29:00,
2013-01-30 08:30:00,35.8,30.5,28.88,ESE,112,0.0,2.0,81,0.00,,---,0.00,VWS V14.01,2013-01-30 13:30:00,
2013-01-30 08:31:00,36.0,30.7,28.88,South,180,2.0,2.0,81,0.00,,---,0.00,VWS V14.01,2013-01-30 13:31:00,
2013-01-30 08:32:00,36.0,30.7,28.88,South,180,0.0,2.0,81,0.00,,---,0.00,VWS V14.01,2013-01-30 13:32:00,
2013-01-30 08:33:00,36.0,30.7,28.88,SSW,202,1.6,1.6,81,0.00,,---,0.00,VWS V14.01,2013-01-30 13:33:00,
2013-01-30 08:34:00,36.0,30.7,28.88,SSW,202,0.0,1.6,81,0.00,,---,0.00,VWS V14.01,2013-01-30 13:34:00,
2013-01-30 08:35:00,36.0,30.7,28.88,SW,225,0.0,0.0,81,0.00,,---,0.00,VWS V14.01,2013-01-30 13:35:00,
2013-01-30 08:36:00,36.1,30.9,28.88,South,180,2.7,2.7,81,0.00,,---,0.00,VWS V14.01,2013-01-30 13:36:00,
2013-01-30 08:37:00,36.1,30.9,28.88,WNW,292,0.0,2.7,81,0.00,,---,0.00,VWS V14.01,2013-01-30 13:37:00,
2013-01-30 08:38:00,36.1,30.9,28.88,WSW,248,1.3,2.7,81,0.00,,---,0.00,VWS V14.01,2013-01-30 13:38:00,
2013-01-30 08:39:00,36.1,30.9,28.88,West,270,1.6,1.6,81,0.00,,---,0.00,VWS V14.01,2013-01-30 13:39:00,
2013-01-30 08:40:00,36.1,30.9,28.88,SSE,158,2.5,2.5,81,0.00,,---,0.00,VWS V14.01,2013-01-30 13:40:00,
2013-01-30 08:41:00,36.1,30.9,28.88,SSE,158,2.5,2.5,81,0.00,,---,0.00,VWS V14.01,2013-01-30 13:41:00,
2013-01-30 08:42:00,36.1,30.9,28.88,WSW,248,3.8,3.8,81,0.00,,---,0.00,VWS V14.01,2013-01-30 13:42:00,
2013-01-30 08:43:00,36.1,30.9,28.88,ESE,112,3.8,3.8,81,0.04,,---,0.04,VWS V14.01,2013-01-30 13:43:00,
2013-01-30 08:44:00,36.3,31.1,28.88,ENE,68,1.3,4.0,81,0.04,,---,0.04,VWS V14.01,2013-01-30 13:44:00,
2013-01-30 08:45:00,36.5,31.2,28.88,SSW,202,0.0,1.3,81,0.04,,---,0.04,VWS V14.01,2013-01-30 13:45:00,
2013-01-30 08:46:00,36.5,31.2,28.88,WSW,248,2.9,2.9,81,0.04,,---,0.04,VWS V14.01,2013-01-30 13:46:00,
2013-01-30 08:47:00,36.3,31.1,28.88,WSW,248,2.9,2.9,81,0.04,,---,0.04,VWS V14.01,2013-01-30 13:47:00,
2013-01-30 08:48:00,36.3,31.1,28.88,West,270,1.1,2.0,81,0.04,,---,0.04,VWS V14.01,2013-01-30 13:48:00,
2013-01-30 08:49:00,36.3,31.1,28.88,SSW,202,1.1,1.1,81,0.04,,---,0.04,VWS V14.01,2013-01-30 13:49:00,
2013-01-30 08:50:00,36.3,31.1,28.88,SSW,202,0.0,1.1,81,0.04,,---,0.04,VWS V14.01,2013-01-30 13:50:00,
2013-01-30 08:51:00,36.7,31.4,28.88,SSW,202,0.9,0.9,81,0.04,,---,0.04,VWS V14.01,2013-01-30 13:51:00,
2013-01-30 08:52:00,36.7,31.4,28.88,SSW,202,0.0,0.9,81,0.04,,---,0.04,VWS V14.01,2013-01-30 13:52:00,
2013-01-30 08:53:00,36.7,31.4,28.85,SSE,158,2.9,2.9,81,0.04,,---,0.04,VWS V14.01,2013-01-30 13:53:00,
2013-01-30 08:54:00,36.7,31.4,28.85,NNW,338,1.6,2.9,81,0.04,,---,0.04,VWS V14.01,2013-01-30 13:54:00,
2013-01-30 08:55:00,36.7,31.4,28.85,SSW,202,0.0,1.6,81,0.04,,---,0.04,VWS V14.01,2013-01-30 13:55:00,
2013-01-30 08:56:00,36.9,31.6,28.85,NNE,22,2.9,3.6,81,0.04,,---,0.04,VWS V14.01,2013-01-30 13:56:00,
2013-01-30 08:57:00,36.9,31.6,28.85,NNE,22,2.9,2.9,81,0.04,,---,0.04,VWS V14.01,2013-01-30 13:57:00,
2013-01-30 08:58:00,36.9,31.9,28.85,West,270,2.5,2.9,82,0.04,,---,0.04,VWS V14.01,2013-01-30 13:58:00,
2013-01-30 08:59:00,36.9,31.6,28.85,SE,135,3.4,3.4,81,0.04,,---,0.04,VWS V14.01,2013-01-30 13:59:00,
2013-01-30 09:00:00,36.9,31.6,28.85,SE,135,3.4,3.4,81,0.04,,---,0.04,VWS V14.01,2013-01-30 14:00:00,
2013-01-30 09:01:00,36.9,31.6,28.85,SW,225,0.0,3.4,81,0.04,,---,0.04,VWS V14.01,2013-01-30 14:01:00,
2013-01-30 09:02:00,36.9,31.6,28.85,SW,225,0.0,0.0,81,0.04,,---,0.04,VWS V14.01,2013-01-30 14:02:00,
2013-01-30 09:03:00,36.9,31.6,28.85,SSE,158,1.1,2.0,81,0.04,,---,0.04,VWS V14.01,2013-01-30 14:03:00,
2013-01-30 09:04:00,36.9,31.6,28.85,SE,135,5.4,5.4,81,0.04,,---,0.04,VWS V14.01,2013-01-30 14:04:00,
2013-01-30 09:05:00,36.9,31.6,28.85,South,180,2.5,5.4,81,0.04,,---,0.04,VWS V14.01,2013-01-30 14:05:00,
2013-01-30 09:06:00,36.9,31.6,28.85,SSE,158,1.6,2.5,81,0.04,,---,0.04,VWS V14.01,2013-01-30 14:06:00,
2013-01-30 09:07:00,36.9,31.6,28.85,SSE,158,1.6,1.6,81,0.04,,---,0.04,VWS V14.01,2013-01-30 14:07:00,
2013-01-30 09:08:00,36.9,31.6,28.85,WSW,248,2.9,2.9,81,0.04,,---,0.04,VWS V14.01,2013-01-30 14:08:00,
2013-01-30 09:09:00,36.9,31.6,28.85,WSW,248,0.9,2.9,81,0.04,,---,0.04,VWS V14.01,2013-01-30 14:09:00,
2013-01-30 09:10:00,37.0,31.8,28.85,WSW,248,2.0,2.0,81,0.04,,---,0.04,VWS V14.01,2013-01-30 14:10:00,
2013-01-30 09:11:00,37.0,31.8,28.85,WSW,248,3.4,3.4,81,0.04,,---,0.04,VWS V14.01,2013-01-30 14:11:00,
2013-01-30 09:12:00,36.9,31.6,28.85,SSW,202,0.0,3.4,81,0.04,,---,0.04,VWS V14.01,2013-01-30 14:12:00,
2013-01-30 09:13:00,37.0,31.8,28.85,SSE,158,2.0,2.0,81,0.04,,---,0.04,VWS V14.01,2013-01-30 14:13:00,
2013-01-30 09:14:00,37.0,31.8,28.85,SE,135,0.0,2.0,81,0.04,,---,0.04,VWS V14.01,2013-01-30 14:14:00,
2013-01-30 09:15:00,37.0,31.8,28.85,SSE,158,0.0,0.0,81,0.04,,---,0.04,VWS V14.01,2013-01-30 14:15:00,
2013-01-30 09:16:00,37.0,31.8,28.85,SSE,158,0.0,0.0,81,0.04,,---,0.04,VWS V14.01,2013-01-30 14:16:00,
2013-01-30 09:17:00,36.9,31.6,28.85,SSE,158,3.1,3.1,81,0.04,,---,0.04,VWS V14.01,2013-01-30 14:17:00,
2013-01-30 09:18:00,36.9,31.6,28.85,SSE,158,0.0,3.1,81,0.04,,---,0.04,VWS V14.01,2013-01-30 14:18:00,
2013-01-30 09:19:00,36.9,31.6,28.85,SSE,158,0.0,0.0,81,0.04,,---,0.04,VWS V14.01,2013-01-30 14:19:00,
2013-01-30 09:20:00,37.0,31.8,28.85,SSE,158,0.0,0.0,81,0.04,,---,0.04,VWS V14.01,2013-01-30 14:20:00,
2013-01-30 09:21:00,37.0,31.8,28.85,SE,135,1.6,1.6,81,0.04,,---,0.04,VWS V14.01,2013-01-30 14:21:00,
2013-01-30 09:22:00,36.9,31.6,28.85,SE,135,1.6,1.6,81,0.04,,---,0.04,VWS V14.01,2013-01-30 14:22:00,
2013-01-30 09:23:00,36.9,31.6,28.85,NW,315,2.5,2.5,81,0.04,,---,0.04,VWS V14.01,2013-01-30 14:23:00,
2013-01-30 09:24:00,36.9,31.6,28.85,NW,315,0.0,2.5,81,0.04,,---,0.04,VWS V14.01,2013-01-30 14:24:00,
2013-01-30 09:25:00,36.9,31.6,28.85,NW,315,0.0,0.0,81,0.04,,---,0.04,VWS V14.01,2013-01-30 14:25:00,
2013-01-30 09:26:00,36.9,31.6,28.85,NW,315,1.6,1.6,81,0.04,,---,0.04,VWS V14.01,2013-01-30 14:26:00,
2013-01-30 09:27:00,36.9,31.6,28.85,SSW,202,3.4,3.4,81,0.04,,---,0.04,VWS V14.01,2013-01-30 14:27:00,
2013-01-30 09:28:00,37.0,31.8,28.85,NW,315,2.5,3.4,81,0.04,,---,0.04,VWS V14.01,2013-01-30 14:28:00,
2013-01-30 09:29:00,37.2,31.9,28.85,NW,315,2.5,2.5,81,0.04,,---,0.04,VWS V14.01,2013-01-30 14:29:00,
2013-01-30 09:30:00,37.2,31.9,28.85,SW,225,0.0,2.9,81,0.04,,---,0.04,VWS V14.01,2013-01-30 14:30:00,
2013-01-30 09:31:00,37.4,32.1,28.85,WSW,248,3.1,3.1,81,0.04,,---,0.04,VWS V14.01,2013-01-30 14:31:00,
2013-01-30 09:32:00,37.4,32.1,28.85,South,180,2.0,3.1,81,0.04,,---,0.04,VWS V14.01,2013-01-30 14:32:00,
2013-01-30 09:33:00,37.2,31.9,28.85,WNW,292,3.1,3.1,81,0.04,,---,0.04,VWS V14.01,2013-01-30 14:33:00,
2013-01-30 09:34:00,37.4,32.1,28.85,SW,225,1.6,3.1,81,0.04,,---,0.04,VWS V14.01,2013-01-30 14:34:00,
2013-01-30 09:35:00,37.4,32.1,28.85,NW,315,2.7,5.4,81,0.04,,---,0.04,VWS V14.01,2013-01-30 14:35:00,
2013-01-30 09:36:00,37.6,32.3,28.85,NW,315,2.7,2.7,81,0.04,,---,0.04,VWS V14.01,2013-01-30 14:36:00,
2013-01-30 09:37:00,37.6,32.3,28.85,West,270,3.8,3.8,81,0.04,,---,0.04,VWS V14.01,2013-01-30 14:37:00,
2013-01-30 09:38:00,37.6,32.3,28.82,West,270,1.6,1.6,81,0.04,,---,0.04,VWS V14.01,2013-01-30 14:38:00,
2013-01-30 09:39:00,37.6,32.3,28.82,WNW,292,2.2,2.2,81,0.04,,---,0.04,VWS V14.01,2013-01-30 14:39:00,
2013-01-30 09:40:00,37.4,32.1,28.82,NW,315,0.0,2.2,81,0.04,,---,0.04,VWS V14.01,2013-01-30 14:40:00,
2013-01-30 09:41:00,37.4,32.1,28.82,NW,315,0.0,0.0,81,0.04,,---,0.04,VWS V14.01,2013-01-30 14:41:00,
2013-01-30 09:42:00,37.4,32.1,28.82,SSE,158,2.2,2.2,81,0.04,,---,0.04,VWS V14.01,2013-01-30 14:42:00,
2013-01-30 09:43:00,37.4,32.1,28.82,SE,135,2.0,2.0,81,0.04,,---,0.04,VWS V14.01,2013-01-30 14:43:00,
2013-01-30 09:44:00,37.6,32.3,28.82,WSW,248,3.4,3.4,81,0.00,,---,0.04,VWS V14.01,2013-01-30 14:44:00,
2013-01-30 09:45:00,37.6,32.3,28.82,WNW,292,1.6,6.3,81,0.00,,---,0.04,VWS V14.01,2013-01-30 14:45:00,
2013-01-30 09:46:00,37.6,32.3,28.82,WSW,248,2.2,2.2,81,0.00,,---,0.04,VWS V14.01,2013-01-30 14:46:00,
2013-01-30 09:47:00,37.6,32.3,28.82,WSW,248,2.2,2.2,81,0.00,,---,0.04,VWS V14.01,2013-01-30 14:47:00,
2013-01-30 09:48:00,37.6,32.3,28.82,WNW,292,0.0,0.0,81,0.00,,---,0.04,VWS V14.01,2013-01-30 14:48:00,
2013-01-30 09:49:00,37.8,32.5,28.82,WNW,292,2.9,2.9,81,0.00,,---,0.04,VWS V14.01,2013-01-30 14:49:00,
2013-01-30 09:50:00,37.8,32.5,28.82,WSW,248,3.6,3.6,81,0.00,,---,0.04,VWS V14.01,2013-01-30 14:50:00,
2013-01-30 09:51:00,37.8,32.5,28.82,WNW,292,4.3,4.3,81,0.00,,---,0.04,VWS V14.01,2013-01-30 14:51:00,
2013-01-30 09:52:00,37.8,32.5,28.82,SSE,158,0.9,4.3,81,0.00,,---,0.04,VWS V14.01,2013-01-30 14:52:00,
2013-01-30 09:53:00,37.8,32.5,28.82,WNW,292,3.4,3.4,81,0.00,,---,0.04,VWS V14.01,2013-01-30 14:53:00,
2013-01-30 09:54:00,37.8,32.5,28.82,NE,45,2.0,3.4,81,0.00,,---,0.04,VWS V14.01,2013-01-30 14:54:00,
2013-01-30 09:55:00,37.8,32.5,28.82,West,270,0.0,2.0,81,0.00,,---,0.04,VWS V14.01,2013-01-30 14:55:00,
2013-01-30 09:56:00,37.9,32.6,28.82,WNW,292,3.4,3.4,81,0.00,,---,0.04,VWS V14.01,2013-01-30 14:56:00,
2013-01-30 09:57:00,37.8,32.5,28.82,WNW,292,3.4,3.4,81,0.00,,---,0.04,VWS V14.01,2013-01-30 14:57:00,
2013-01-30 09:58:00,37.8,32.5,28.82,WSW,248,3.4,3.4,81,0.04,,---,0.08,VWS V14.01,2013-01-30 14:58:00,
2013-01-30 09:59:00,37.8,32.5,28.82,NW,315,3.1,3.4,81,0.04,,---,0.08,VWS V14.01,2013-01-30 14:59:00,
2013-01-30 10:00:00,37.9,32.6,28.82,NW,315,3.4,4.0,81,0.04,,---,0.08,VWS V14.01,2013-01-30 15:00:00,
2013-01-30 10:01:00,37.9,33.0,28.82,WNW,292,4.0,4.0,82,0.04,,---,0.08,VWS V14.01,2013-01-30 15:01:00,
2013-01-30 10:02:00,37.9,32.9,28.82,WNW,292,5.4,5.4,82,0.04,,---,0.08,VWS V14.01,2013-01-30 15:02:00,
2013-01-30 10:03:00,38.1,33.1,28.82,WSW,248,2.2,5.4,82,0.04,,---,0.08,VWS V14.01,2013-01-30 15:03:00,
2013-01-30 10:04:00,38.1,33.1,28.82,SW,225,3.4,3.4,82,0.04,,---,0.08,VWS V14.01,2013-01-30 15:04:00,
2013-01-30 10:05:00,38.1,33.1,28.82,WSW,248,3.6,5.4,82,0.04,,---,0.08,VWS V14.01,2013-01-30 15:05:00,
2013-01-30 10:06:00,38.3,33.3,28.82,WNW,292,2.5,3.6,82,0.04,,---,0.08,VWS V14.01,2013-01-30 15:06:00,
2013-01-30 10:07:00,38.3,33.3,28.82,West,270,2.5,3.6,82,0.04,,---,0.08,VWS V14.01,2013-01-30 15:07:00,
2013-01-30 10:08:00,38.3,33.3,28.82,WNW,292,3.8,3.8,82,0.04,,---,0.08,VWS V14.01,2013-01-30 15:08:00,
2013-01-30 10:09:00,38.3,33.3,28.82,NW,315,4.9,4.9,82,0.04,,---,0.08,VWS V14.01,2013-01-30 15:09:00,
2013-01-30 10:10:00,38.5,33.5,28.82,WSW,248,4.5,4.9,82,0.04,,---,0.08,VWS V14.01,2013-01-30 15:10:00,
2013-01-30 10:11:00,38.5,33.5,28.82,WSW,248,2.7,6.0,82,0.04,,---,0.08,VWS V14.01,2013-01-30 15:11:00,
2013-01-30 10:12:00,38.5,33.5,28.82,WSW,248,2.7,6.0,82,0.04,,---,0.08,VWS V14.01,2013-01-30 15:12:00,
2013-01-30 10:13:00,38.5,33.5,28.82,WSW,248,2.5,2.7,82,0.04,,---,0.08,VWS V14.01,2013-01-30 15:13:00,
2013-01-30 10:14:00,38.5,33.5,28.82,WSW,248,0.0,2.5,82,0.04,,---,0.08,VWS V14.01,2013-01-30 15:14:00,
2013-01-30 10:15:00,38.5,33.5,28.82,WSW,248,0.0,0.0,82,0.04,,---,0.08,VWS V14.01,2013-01-30 15:15:00,
2013-01-30 10:16:00,38.7,33.7,28.82,SSW,202,2.0,2.5,82,0.04,,---,0.08,VWS V14.01,2013-01-30 15:16:00,
2013-01-30 10:17:00,38.7,33.7,28.82,SSW,202,2.0,2.5,82,0.04,,---,0.08,VWS V14.01,2013-01-30 15:17:00,
2013-01-30 10:18:00,38.7,33.7,28.82,South,180,4.0,4.0,82,0.04,,---,0.08,VWS V14.01,2013-01-30 15:18:00,
2013-01-30 10:19:00,38.7,33.7,28.82,WNW,292,3.1,4.0,82,0.04,,---,0.08,VWS V14.01,2013-01-30 15:19:00,
2013-01-30 10:20:00,38.7,33.7,28.82,WNW,292,3.1,3.1,82,0.04,,---,0.08,VWS V14.01,2013-01-30 15:20:00,
2013-01-30 10:21:00,38.8,33.5,28.82,WNW,292,4.0,4.0,81,0.04,,---,0.08,VWS V14.01,2013-01-30 15:21:00,
2013-01-30 10:22:00,39.0,34.0,28.82,WNW,292,4.0,4.0,82,0.04,,---,0.08,VWS V14.01,2013-01-30 15:22:00,
2013-01-30 10:23:00,39.0,34.0,28.82,WSW,248,3.1,4.0,82,0.04,,---,0.08,VWS V14.01,2013-01-30 15:23:00,
2013-01-30 10:24:00,39.0,34.0,28.82,WNW,292,2.5,3.1,82,0.04,,---,0.08,VWS V14.01,2013-01-30 15:24:00,
2013-01-30 10:25:00,39.0,34.0,28.82,SSW,202,1.3,2.5,82,0.04,,---,0.08,VWS V14.01,2013-01-30 15:25:00,
2013-01-30 10:26:00,38.8,33.5,28.82,SSE,158,2.7,2.7,81,0.04,,---,0.08,VWS V14.01,2013-01-30 15:26:00,
2013-01-30 10:27:00,38.8,33.5,28.82,ENE,68,6.5,6.5,81,0.04,,---,0.08,VWS V14.01,2013-01-30 15:27:00,
2013-01-30 10:28:00,38.8,33.5,28.82,WNW,292,3.1,6.5,81,0.04,,---,0.08,VWS V14.01,2013-01-30 15:28:00,
2013-01-30 10:29:00,38.8,33.5,28.82,WNW,292,2.5,3.1,81,0.04,,---,0.08,VWS V14.01,2013-01-30 15:29:00,
2013-01-30 10:30:00,38.8,33.5,28.82,South,180,2.5,2.5,81,0.04,,---,0.08,VWS V14.01,2013-01-30 15:30:00,
2013-01-30 10:31:00,38.8,33.5,28.82,WNW,292,6.3,6.3,81,0.04,,---,0.08,VWS V14.01,2013-01-30 15:31:00,
2013-01-30 10:32:00,38.8,33.5,28.82,WNW,292,6.3,6.3,81,0.04,,---,0.08,VWS V14.01,2013-01-30 15:32:00,
2013-01-30 10:33:00,38.8,33.5,28.82,WNW,292,3.4,6.3,81,0.04,,---,0.08,VWS V14.01,2013-01-30 15:33:00,
2013-01-30 10:34:00,38.8,33.5,28.82,WSW,248,2.9,3.4,81,0.04,,---,0.08,VWS V14.01,2013-01-30 15:34:00,
2013-01-30 10:35:00,39.0,33.7,28.82,WSW,248,3.6,3.6,81,0.04,,---,0.08,VWS V14.01,2013-01-30 15:35:00,
2013-01-30 10:36:00,39.0,33.7,28.82,WSW,248,3.4,3.6,81,0.08,,---,0.12,VWS V14.01,2013-01-30 15:36:00,
2013-01-30 10:37:00,39.0,33.7,28.82,WSW,248,3.4,3.6,81,0.08,,---,0.12,VWS V14.01,2013-01-30 15:37:00,
2013-01-30 10:38:00,39.0,33.7,28.82,WSW,248,3.8,3.8,81,0.08,,---,0.12,VWS V14.01,2013-01-30 15:38:00,
2013-01-30 10:39:00,39.0,33.7,28.82,WSW,248,2.9,3.8,81,0.08,,---,0.12,VWS V14.01,2013-01-30 15:39:00,
2013-01-30 10:40:00,39.0,33.7,28.82,WNW,292,2.9,2.9,81,0.08,,---,0.12,VWS V14.01,2013-01-30 15:40:00,
2013-01-30 10:41:00,39.4,34.0,28.82,WSW,248,3.1,5.8,81,0.08,,---,0.12,VWS V14.01,2013-01-30 15:41:00,
2013-01-30 10:42:00,39.4,34.0,28.82,WSW,248,3.1,5.8,81,0.08,,---,0.12,VWS V14.01,2013-01-30 15:42:00,
2013-01-30 10:43:00,39.4,34.0,28.82,WSW,248,7.6,7.6,81,0.08,,---,0.12,VWS V14.01,2013-01-30 15:43:00,
2013-01-30 10:44:00,39.4,34.0,28.82,WSW,248,3.1,7.6,81,0.08,,---,0.12,VWS V14.01,2013-01-30 15:44:00,
2013-01-30 10:45:00,39.4,34.0,28.82,WSW,248,2.9,3.1,81,0.08,,---,0.12,VWS V14.01,2013-01-30 15:45:00,
2013-01-30 10:46:00,39.4,34.0,28.82,South,180,0.0,2.9,81,0.08,,---,0.12,VWS V14.01,2013-01-30 15:46:00,
2013-01-30 10:47:00,39.4,34.0,28.82,SSW,202,0.0,0.0,81,0.08,,---,0.12,VWS V14.01,2013-01-30 15:47:00,
2013-01-30 10:48:00,39.4,34.0,28.82,South,180,0.0,0.0,81,0.08,,---,0.12,VWS V14.01,2013-01-30 15:48:00,
2013-01-30 10:49:00,39.4,34.0,28.82,SSW,202,2.0,2.0,81,0.08,,---,0.12,VWS V14.01,2013-01-30 15:49:00,
2013-01-30 10:50:00,39.4,34.0,28.82,South,180,1.6,2.0,81,0.08,,---,0.12,VWS V14.01,2013-01-30 15:50:00,
2013-01-30 10:51:00,39.4,34.0,28.82,SSW,202,1.3,1.6,81,0.08,,---,0.12,VWS V14.01,2013-01-30 15:51:00,
2013-01-30 10:52:00,39.4,34.0,28.82,WSW,248,2.7,2.7,81,0.08,,---,0.12,VWS V14.01,2013-01-30 15:52:00,
2013-01-30 10:53:00,39.6,33.9,28.79,WNW,292,2.2,2.7,80,0.08,,---,0.12,VWS V14.01,2013-01-30 15:53:00,
2013-01-30 10:54:00,39.7,34.1,28.79,WNW,292,0.0,2.2,80,0.08,,---,0.12,VWS V14.01,2013-01-30 15:54:00,
2013-01-30 10:55:00,39.9,34.3,28.79,WNW,292,2.5,2.5,80,0.08,,---,0.12,VWS V14.01,2013-01-30 15:55:00,
2013-01-30 10:56:00,39.9,34.3,28.79,West,270,4.3,4.3,80,0.08,,---,0.12,VWS V14.01,2013-01-30 15:56:00,
2013-01-30 10:57:00,39.9,34.3,28.79,NNE,22,2.5,4.3,80,0.08,,---,0.12,VWS V14.01,2013-01-30 15:57:00,
2013-01-30 10:58:00,40.3,34.6,28.79,NW,315,2.0,3.1,80,0.08,,---,0.12,VWS V14.01,2013-01-30 15:58:00,
2013-01-30 10:59:00,40.5,35.1,28.79,NW,315,2.0,2.0,81,0.04,,---,0.12,VWS V14.01,2013-01-30 15:59:00,
2013-01-30 11:00:00,40.5,35.1,28.79,NW,315,0.0,2.0,81,0.04,,---,0.12,VWS V14.01,2013-01-30 16:00:00,
2013-01-30 11:01:00,40.6,35.3,28.79,NW,315,0.0,0.0,81,0.09,,---,0.17,VWS V14.01,2013-01-30 16:01:00,
2013-01-30 11:02:00,40.6,35.3,28.79,NW,315,0.0,0.0,81,0.09,,---,0.17,VWS V14.01,2013-01-30 16:02:00,
2013-01-30 11:03:00,41.0,35.3,28.79,NW,315,7.2,7.2,80,0.09,,---,0.17,VWS V14.01,2013-01-30 16:03:00,
2013-01-30 11:04:00,41.0,35.3,28.79,NW,315,7.2,7.2,80,0.09,,---,0.17,VWS V14.01,2013-01-30 16:04:00,
2013-01-30 11:05:00,40.8,35.1,28.79,West,270,3.4,7.2,80,0.09,,---,0.17,VWS V14.01,2013-01-30 16:05:00,
2013-01-30 11:06:00,41.0,35.3,28.79,WNW,292,3.8,4.9,80,0.09,,---,0.17,VWS V14.01,2013-01-30 16:06:00,
2013-01-30 11:07:00,41.0,35.3,28.79,WNW,292,3.8,3.8,80,0.09,,---,0.17,VWS V14.01,2013-01-30 16:07:00,
2013-01-30 11:08:00,41.0,35.3,28.79,West,270,2.0,2.7,80,0.09,,---,0.17,VWS V14.01,2013-01-30 16:08:00,
2013-01-30 11:09:00,41.0,35.3,28.79,WSW,248,3.4,3.4,80,0.09,,---,0.17,VWS V14.01,2013-01-30 16:09:00,
2013-01-30 11:10:00,41.0,35.0,28.79,WNW,292,2.7,3.4,79,0.09,,---,0.17,VWS V14.01,2013-01-30 16:10:00,
2013-01-30 11:11:00,41.0,35.0,28.79,WNW,292,2.7,2.7,79,0.09,,---,0.17,VWS V14.01,2013-01-30 16:11:00,
2013-01-30 11:12:00,41.0,35.0,28.79,WNW,292,0.9,2.7,79,0.09,,---,0.17,VWS V14.01,2013-01-30 16:12:00,
2013-01-30 11:13:00,41.0,35.0,28.79,SSW,202,3.8,3.8,79,0.09,,---,0.17,VWS V14.01,2013-01-30 16:13:00,
2013-01-30 11:14:00,41.2,35.2,28.79,NW,315,3.4,3.8,79,0.09,,---,0.17,VWS V14.01,2013-01-30 16:14:00,
2013-01-30 11:15:00,41.2,35.2,28.79,NW,315,3.4,3.4,79,0.09,,---,0.17,VWS V14.01,2013-01-30 16:15:00,
2013-01-30 11:16:00,41.2,35.2,28.79,WNW,292,1.3,1.3,79,0.09,,---,0.17,VWS V14.01,2013-01-30 16:16:00,
2013-01-30 11:17:00,41.2,35.2,28.79,WNW,292,0.0,1.3,79,0.09,,---,0.17,VWS V14.01,2013-01-30 16:17:00,
2013-01-30 11:18:00,41.2,35.2,28.79,WNW,292,0.0,0.0,79,0.09,,---,0.17,VWS V14.01,2013-01-30 16:18:00,
2013-01-30 11:19:00,41.5,35.5,28.79,WNW,292,2.9,2.9,79,0.09,,---,0.17,VWS V14.01,2013-01-30 16:19:00,
2013-01-30 11:20:00,41.5,35.5,28.79,WNW,292,2.9,2.9,79,0.09,,---,0.17,VWS V14.01,2013-01-30 16:20:00,
2013-01-30 11:21:00,41.5,35.5,28.79,SSE,158,1.1,2.0,79,0.09,,---,0.17,VWS V14.01,2013-01-30 16:21:00,
2013-01-30 11:22:00,41.7,35.7,28.79,SSE,158,1.1,2.0,79,0.09,,---,0.17,VWS V14.01,2013-01-30 16:22:00,
2013-01-30 11:23:00,41.7,35.7,28.76,South,180,0.0,2.0,79,0.09,,---,0.17,VWS V14.01,2013-01-30 16:23:00,
2013-01-30 11:24:00,42.3,36.2,28.76,SSW,202,0.0,0.0,79,0.09,,---,0.17,VWS V14.01,2013-01-30 16:24:00,
2013-01-30 11:25:00,42.3,36.2,28.76,SSW,202,0.0,0.0,79,0.12,,---,0.20,VWS V14.01,2013-01-30 16:25:00,
2013-01-30 11:26:00,42.8,36.8,28.76,South,180,2.7,2.7,79,0.12,,---,0.20,VWS V14.01,2013-01-30 16:26:00,
2013-01-30 11:27:00,43.0,36.6,28.76,SSW,202,3.4,3.4,78,0.12,,---,0.20,VWS V14.01,2013-01-30 16:27:00,
2013-01-30 11:28:00,43.0,36.6,28.76,SSE,158,2.7,3.4,78,0.12,,---,0.20,VWS V14.01,2013-01-30 16:28:00,
2013-01-30 11:29:00,43.0,36.6,28.76,WSW,248,3.1,3.1,78,0.12,,---,0.20,VWS V14.01,2013-01-30 16:29:00,
2013-01-30 11:30:00,42.6,36.2,28.76,NNW,338,1.1,3.1,78,0.12,,---,0.20,VWS V14.01,2013-01-30 16:30:00,
2013-01-30 11:31:00,42.6,36.2,28.76,SSW,202,2.0,2.0,78,0.12,,---,0.20,VWS V14.01,2013-01-30 16:31:00,
2013-01-30 11:32:00,42.6,36.2,28.76,SSW,202,2.0,2.0,78,0.12,,---,0.20,VWS V14.01,2013-01-30 16:32:00,
2013-01-30 11:33:00,42.6,36.2,28.76,WSW,248,1.6,2.0,78,0.12,,---,0.20,VWS V14.01,2013-01-30 16:33:00,
2013-01-30 11:34:00,42.6,36.2,28.76,NW,315,3.1,3.1,78,0.12,,---,0.20,VWS V14.01,2013-01-30 16:34:00,
2013-01-30 11:35:00,42.3,35.6,28.76,WSW,248,3.1,3.1,77,0.12,,---,0.20,VWS V14.01,2013-01-30 16:35:00,
2013-01-30 11:36:00,42.3,35.6,28.76,SSE,158,2.5,2.5,77,0.08,,---,0.20,VWS V14.01,2013-01-30 16:36:00,
2013-01-30 11:37:00,42.3,35.6,28.76,WSW,248,3.4,3.4,77,0.08,,---,0.20,VWS V14.01,2013-01-30 16:37:00,
2013-01-30 11:38:00,42.3,35.6,28.73,SSW,202,4.3,4.3,77,0.08,,---,0.20,VWS V14.01,2013-01-30 16:38:00,
2013-01-30 11:39:00,42.3,35.6,28.73,ENE,68,1.6,4.3,77,0.08,,---,0.20,VWS V14.01,2013-01-30 16:39:00,
2013-01-30 11:40:00,42.4,35.8,28.73,ENE,68,1.6,1.6,77,0.08,,---,0.20,VWS V14.01,2013-01-30 16:40:00,
2013-01-30 11:41:00,42.8,36.1,28.73,SSW,202,2.7,2.7,77,0.08,,---,0.20,VWS V14.01,2013-01-30 16:41:00,
2013-01-30 11:42:00,42.8,36.1,28.73,SSE,158,6.0,6.0,77,0.08,,---,0.20,VWS V14.01,2013-01-30 16:42:00,
2013-01-30 11:43:00,42.8,36.1,28.73,SE,135,4.0,6.0,77,0.08,,---,0.20,VWS V14.01,2013-01-30 16:43:00,
2013-01-30 11:44:00,42.8,36.1,28.73,SSW,202,3.1,4.0,77,0.08,,---,0.20,VWS V14.01,2013-01-30 16:44:00,
2013-01-30 11:45:00,42.8,36.1,28.73,SSW,202,1.3,3.1,77,0.08,,---,0.20,VWS V14.01,2013-01-30 16:45:00,
2013-01-30 11:46:00,43.0,36.3,28.73,SSE,158,3.1,3.1,77,0.13,,---,0.25,VWS V14.01,2013-01-30 16:46:00,
2013-01-30 11:47:00,43.0,36.3,28.73,SSE,158,3.1,3.1,77,0.13,,---,0.25,VWS V14.01,2013-01-30 16:47:00,
2013-01-30 11:48:00,42.8,35.8,28.73,WSW,248,3.4,3.4,76,0.13,,---,0.25,VWS V14.01,2013-01-30 16:48:00,
2013-01-30 11:49:00,42.8,35.8,28.73,West,270,3.1,3.4,76,0.13,,---,0.25,VWS V14.01,2013-01-30 16:49:00,
2013-01-30 11:50:00,42.8,35.8,28.73,WSW,248,4.7,4.7,76,0.13,,---,0.25,VWS V14.01,2013-01-30 16:50:00,
2013-01-30 11:51:00,42.8,35.8,28.73,WNW,292,3.6,4.0,76,0.13,,---,0.25,VWS V14.01,2013-01-30 16:51:00,
2013-01-30 11:52:00,42.4,35.4,28.73,WNW,292,3.6,4.0,76,0.13,,---,0.25,VWS V14.01,2013-01-30 16:52:00,
2013-01-30 11:53:00,42.4,35.4,28.73,WNW,292,4.0,4.0,76,0.13,,---,0.25,VWS V14.01,2013-01-30 16:53:00,
2013-01-30 11:54:00,42.3,35.2,28.73,WNW,292,4.0,4.0,76,0.13,,---,0.25,VWS V14.01,2013-01-30 16:54:00,
2013-01-30 11:55:00,42.3,35.2,28.73,WNW,292,4.0,4.0,76,0.13,,---,0.25,VWS V14.01,2013-01-30 16:55:00,
2013-01-30 11:56:00,42.3,35.2,28.73,WSW,248,1.1,1.1,76,0.13,,---,0.25,VWS V14.01,2013-01-30 16:56:00,
2013-01-30 11:57:00,42.3,35.2,28.73,WSW,248,1.1,1.1,76,0.13,,---,0.25,VWS V14.01,2013-01-30 16:57:00,
2013-01-30 11:58:00,42.3,35.2,28.73,NNE,22,3.1,3.1,76,0.13,,---,0.25,VWS V14.01,2013-01-30 16:58:00,
2013-01-30 11:59:00,42.1,35.1,28.73,NNE,22,3.1,3.1,76,0.13,,---,0.25,VWS V14.01,2013-01-30 16:59:00,
2013-01-30 12:00:00,42.1,35.1,28.73,NW,315,0.0,3.1,76,0.13,,---,0.25,VWS V14.01,2013-01-30 17:00:00,
2013-01-30 12:01:00,42.1,35.1,28.73,NW,315,0.0,0.0,76,0.08,,---,0.25,VWS V14.01,2013-01-30 17:01:00,
2013-01-30 12:02:00,42.1,35.1,28.73,NW,315,0.0,0.0,76,0.08,,---,0.25,VWS V14.01,2013-01-30 17:02:00,
2013-01-30 12:03:00,42.1,35.1,28.73,WNW,292,2.7,2.7,76,0.08,,---,0.25,VWS V14.01,2013-01-30 17:03:00,
2013-01-30 12:04:00,42.1,35.1,28.73,WNW,292,2.7,2.7,76,0.08,,---,0.25,VWS V14.01,2013-01-30 17:04:00,
2013-01-30 12:05:00,42.1,35.1,28.73,WNW,292,3.8,3.8,76,0.08,,---,0.25,VWS V14.01,2013-01-30 17:05:00,
2013-01-30 12:06:00,42.1,35.1,28.73,WNW,292,3.1,3.6,76,0.08,,---,0.25,VWS V14.01,2013-01-30 17:06:00,
2013-01-30 12:07:00,42.1,35.1,28.73,WNW,292,3.1,3.6,76,0.08,,---,0.25,VWS V14.01,2013-01-30 17:07:00,
2013-01-30 12:08:00,41.9,34.9,28.73,WNW,292,1.6,3.1,76,0.08,,---,0.25,VWS V14.01,2013-01-30 17:08:00,
2013-01-30 12:09:00,41.9,34.9,28.73,WNW,292,0.0,1.6,76,0.08,,---,0.25,VWS V14.01,2013-01-30 17:09:00,
2013-01-30 12:10:00,41.7,34.7,28.73,SE,135,0.0,0.0,76,0.08,,---,0.25,VWS V14.01,2013-01-30 17:10:00,
2013-01-30 12:11:00,41.9,34.9,28.73,WSW,248,4.3,4.3,76,0.08,,---,0.25,VWS V14.01,2013-01-30 17:11:00,
2013-01-30 12:12:00,41.9,34.9,28.73,West,270,3.4,4.3,76,0.08,,---,0.25,VWS V14.01,2013-01-30 17:12:00,
2013-01-30 12:13:00,42.3,35.2,28.73,West,270,3.4,3.4,76,0.08,,---,0.25,VWS V14.01,2013-01-30 17:13:00,
2013-01-30 12:14:00,42.3,35.2,28.73,WNW,292,3.8,3.8,76,0.08,,---,0.25,VWS V14.01,2013-01-30 17:14:00,
2013-01-30 12:15:00,42.6,35.6,28.73,WNW,292,3.8,3.8,76,0.08,,---,0.25,VWS V14.01,2013-01-30 17:15:00,
2013-01-30 12:16:00,43.0,36.0,28.73,SSW,202,2.0,2.0,76,0.08,,---,0.25,VWS V14.01,2013-01-30 17:16:00,
2013-01-30 12:17:00,43.0,36.0,28.73,WSW,248,1.6,2.0,76,0.08,,---,0.25,VWS V14.01,2013-01-30 17:17:00,
2013-01-30 12:18:00,43.0,36.0,28.73,WNW,292,2.7,2.7,76,0.08,,---,0.25,VWS V14.01,2013-01-30 17:18:00,
2013-01-30 12:19:00,43.2,36.1,28.73,West,270,1.3,2.7,76,0.08,,---,0.25,VWS V14.01,2013-01-30 17:19:00,
2013-01-30 12:20:00,43.2,36.1,28.73,SSW,202,2.0,2.0,76,0.08,,---,0.25,VWS V14.01,2013-01-30 17:20:00,
2013-01-30 12:21:00,43.3,36.3,28.73,WSW,248,6.3,6.3,76,0.12,,---,0.29,VWS V14.01,2013-01-30 17:21:00,
2013-01-30 12:22:00,43.3,36.3,28.73,WSW,248,6.3,6.3,76,0.12,,---,0.29,VWS V14.01,2013-01-30 17:22:00,
2013-01-30 12:23:00,43.3,36.0,28.70,WNW,292,2.7,6.3,75,0.12,,---,0.29,VWS V14.01,2013-01-30 17:23:00,
2013-01-30 12:24:00,43.5,36.1,28.70,WNW,292,1.1,2.7,75,0.12,,---,0.29,VWS V14.01,2013-01-30 17:24:00,
2013-01-30 12:25:00,43.5,36.1,28.70,WNW,292,3.8,3.8,75,0.12,,---,0.29,VWS V14.01,2013-01-30 17:25:00,
2013-01-30 12:26:00,43.7,36.3,28.70,WSW,248,2.5,4.9,75,0.09,,---,0.29,VWS V14.01,2013-01-30 17:26:00,
2013-01-30 12:27:00,43.7,36.3,28.70,WSW,248,2.5,4.9,75,0.09,,---,0.29,VWS V14.01,2013-01-30 17:27:00,
2013-01-30 12:28:00,43.9,36.5,28.70,WSW,248,6.0,6.0,75,0.09,,---,0.29,VWS V14.01,2013-01-30 17:28:00,
2013-01-30 12:29:00,44.4,37.0,28.70,South,180,1.6,6.0,75,0.09,,---,0.29,VWS V14.01,2013-01-30 17:29:00,
2013-01-30 12:30:00,44.4,37.0,28.70,SSE,158,1.3,1.6,75,0.09,,---,0.29,VWS V14.01,2013-01-30 17:30:00,
2013-01-30 12:31:00,44.8,37.3,28.70,SSW,202,0.0,0.0,75,0.09,,---,0.29,VWS V14.01,2013-01-30 17:31:00,
2013-01-30 12:32:00,44.8,37.3,28.70,SW,225,3.6,3.6,75,0.09,,---,0.29,VWS V14.01,2013-01-30 17:32:00,
2013-01-30 12:33:00,44.4,37.0,28.70,WSW,248,3.6,3.6,75,0.09,,---,0.29,VWS V14.01,2013-01-30 17:33:00,
2013-01-30 12:34:00,44.6,36.8,28.70,WSW,248,0.0,3.6,74,0.09,,---,0.29,VWS V14.01,2013-01-30 17:34:00,
2013-01-30 12:35:00,44.6,36.8,28.70,NE,45,2.5,2.5,74,0.09,,---,0.29,VWS V14.01,2013-01-30 17:35:00,
2013-01-30 12:36:00,44.4,37.0,28.70,SSE,158,2.9,2.9,75,0.09,,---,0.29,VWS V14.01,2013-01-30 17:36:00,
2013-01-30 12:37:00,44.4,37.0,28.70,SW,225,2.0,2.9,75,0.09,,---,0.29,VWS V14.01,2013-01-30 17:37:00,
2013-01-30 12:38:00,44.4,37.0,28.67,SW,225,2.0,2.0,75,0.09,,---,0.29,VWS V14.01,2013-01-30 17:38:00,
2013-01-30 12:39:00,44.4,36.7,28.67,West,270,3.1,3.1,74,0.09,,---,0.29,VWS V14.01,2013-01-30 17:39:00,
2013-01-30 12:40:00,44.6,36.8,28.67,WSW,248,4.3,4.3,74,0.09,,---,0.29,VWS V14.01,2013-01-30 17:40:00,
2013-01-30 12:41:00,45.7,37.9,28.67,WSW,248,0.0,0.0,74,0.09,,---,0.29,VWS V14.01,2013-01-30 17:41:00,
2013-01-30 12:42:00,45.7,37.9,28.67,WSW,248,0.0,0.0,74,0.09,,---,0.29,VWS V14.01,2013-01-30 17:42:00,
2013-01-30 12:43:00,45.7,37.9,28.67,WNW,292,2.7,2.7,74,0.09,,---,0.29,VWS V14.01,2013-01-30 17:43:00,
2013-01-30 12:44:00,46.2,38.7,28.67,WNW,292,1.6,2.7,75,0.09,,---,0.29,VWS V14.01,2013-01-30 17:44:00,
2013-01-30 12:45:00,46.0,38.2,28.67,WNW,292,0.0,1.6,74,0.09,,---,0.29,VWS V14.01,2013-01-30 17:45:00,
2013-01-30 12:46:00,45.7,37.9,28.67,WNW,292,0.0,0.0,74,0.04,,---,0.29,VWS V14.01,2013-01-30 17:46:00,
2013-01-30 12:47:00,45.7,37.9,28.67,SW,225,2.0,2.0,74,0.04,,---,0.29,VWS V14.01,2013-01-30 17:47:00,
2013-01-30 12:48:00,45.7,37.9,28.67,SSE,158,1.3,2.0,74,0.04,,---,0.29,VWS V14.01,2013-01-30 17:48:00,
2013-01-30 12:49:00,45.5,37.7,28.67,SSE,158,0.0,1.3,74,0.04,,---,0.29,VWS V14.01,2013-01-30 17:49:00,
2013-01-30 12:50:00,45.3,37.5,28.67,SW,225,2.2,2.2,74,0.04,,---,0.29,VWS V14.01,2013-01-30 17:50:00,
2013-01-30 12:51:00,45.3,37.5,28.67,WSW,248,4.0,4.0,74,0.04,,---,0.29,VWS V14.01,2013-01-30 17:51:00,
2013-01-30 12:52:00,45.3,37.5,28.67,WSW,248,4.0,4.0,74,0.04,,---,0.29,VWS V14.01,2013-01-30 17:52:00,
2013-01-30 12:53:00,45.0,37.2,28.67,WNW,292,2.0,4.9,74,0.04,,---,0.29,VWS V14.01,2013-01-30 17:53:00,
2013-01-30 12:54:00,44.4,36.7,28.67,WSW,248,3.4,3.4,74,0.08,,---,0.33,VWS V14.01,2013-01-30 17:54:00,
2013-01-30 12:55:00,44.4,36.7,28.67,WSW,248,3.4,3.4,74,0.08,,---,0.33,VWS V14.01,2013-01-30 17:55:00,
2013-01-30 12:56:00,44.2,36.2,28.67,NW,315,2.5,2.5,73,0.08,,---,0.33,VWS V14.01,2013-01-30 17:56:00,
2013-01-30 12:57:00,44.2,36.2,28.67,WSW,248,2.2,2.5,73,0.08,,---,0.33,VWS V14.01,2013-01-30 17:57:00,
2013-01-30 12:58:00,44.2,36.2,28.67,WNW,292,8.1,8.1,73,0.08,,---,0.33,VWS V14.01,2013-01-30 17:58:00,
2013-01-30 12:59:00,44.2,36.2,28.67,WNW,292,8.1,8.1,73,0.08,,---,0.33,VWS V14.01,2013-01-30 17:59:00,
2013-01-30 13:00:00,44.2,36.2,28.67,WNW,292,2.2,8.1,73,0.08,,---,0.33,VWS V14.01,2013-01-30 18:00:00,
2013-01-30 13:01:00,44.2,36.5,28.67,WNW,292,1.3,2.2,74,0.08,,---,0.33,VWS V14.01,2013-01-30 18:01:00,
2013-01-30 13:02:00,44.2,36.5,28.67,WSW,248,3.4,3.4,74,0.08,,---,0.33,VWS V14.01,2013-01-30 18:02:00,
2013-01-30 13:03:00,44.4,36.7,28.67,West,270,2.9,3.4,74,0.08,,---,0.33,VWS V14.01,2013-01-30 18:03:00,
2013-01-30 13:04:00,44.4,36.7,28.67,WSW,248,3.8,3.8,74,0.08,,---,0.33,VWS V14.01,2013-01-30 18:04:00,
2013-01-30 13:05:00,44.2,36.5,28.67,WSW,248,2.2,3.8,74,0.08,,---,0.33,VWS V14.01,2013-01-30 18:05:00,
2013-01-30 13:06:00,44.2,36.2,28.67,ESE,112,2.5,3.4,73,0.08,,---,0.33,VWS V14.01,2013-01-30 18:06:00,
2013-01-30 13:07:00,44.2,36.2,28.67,ESE,112,2.5,3.4,73,0.08,,---,0.33,VWS V14.01,2013-01-30 18:07:00,
2013-01-30 13:08:00,44.1,36.3,28.67,SW,225,1.3,2.5,74,0.08,,---,0.33,VWS V14.01,2013-01-30 18:08:00,
2013-01-30 13:09:00,44.1,36.3,28.67,WSW,248,4.0,4.0,74,0.08,,---,0.33,VWS V14.01,2013-01-30 18:09:00,
2013-01-30 13:10:00,44.1,36.3,28.67,WNW,292,6.0,6.0,74,0.08,,---,0.33,VWS V14.01,2013-01-30 18:10:00,
2013-01-30 13:11:00,44.1,36.3,28.67,SSW,202,1.6,4.0,74,0.08,,---,0.33,VWS V14.01,2013-01-30 18:11:00,
2013-01-30 13:12:00,44.1,36.3,28.67,SSW,202,1.6,4.0,74,0.08,,---,0.33,VWS V14.01,2013-01-30 18:12:00,
2013-01-30 13:13:00,43.9,36.1,28.67,SSE,158,1.6,1.6,74,0.08,,---,0.33,VWS V14.01,2013-01-30 18:13:00,
2013-01-30 13:14:00,43.9,36.1,28.67,South,180,0.0,1.6,74,0.08,,---,0.33,VWS V14.01,2013-01-30 18:14:00,
2013-01-30 13:15:00,43.9,36.1,28.67,South,180,0.0,0.0,74,0.08,,---,0.33,VWS V14.01,2013-01-30 18:15:00,
2013-01-30 13:16:00,43.9,36.1,28.67,SSW,202,0.0,0.0,74,0.08,,---,0.33,VWS V14.01,2013-01-30 18:16:00,
2013-01-30 13:17:00,43.7,36.0,28.67,SSW,202,0.0,0.0,74,0.08,,---,0.33,VWS V14.01,2013-01-30 18:17:00,
2013-01-30 13:18:00,43.7,36.0,28.67,South,180,0.0,0.0,74,0.08,,---,0.33,VWS V14.01,2013-01-30 18:18:00,
2013-01-30 13:19:00,43.7,36.0,28.67,SSE,158,0.0,0.0,74,0.08,,---,0.33,VWS V14.01,2013-01-30 18:19:00,
2013-01-30 13:20:00,43.7,36.0,28.67,SSE,158,0.0,0.0,74,0.08,,---,0.33,VWS V14.01,2013-01-30 18:20:00,
2013-01-30 13:21:00,43.9,36.1,28.67,WSW,248,2.0,2.0,74,0.04,,---,0.33,VWS V14.01,2013-01-30 18:21:00,
2013-01-30 13:22:00,43.9,36.1,28.67,SSE,158,0.0,2.0,74,0.04,,---,0.33,VWS V14.01,2013-01-30 18:22:00,
2013-01-30 13:23:00,43.9,36.1,28.64,SSE,158,0.0,0.0,74,0.04,,---,0.33,VWS V14.01,2013-01-30 18:23:00,
2013-01-30 13:24:00,43.9,36.1,28.64,ESE,112,3.1,3.1,74,0.04,,---,0.33,VWS V14.01,2013-01-30 18:24:00,
2013-01-30 13:25:00,43.9,36.1,28.64,ESE,112,0.0,3.1,74,0.04,,---,0.33,VWS V14.01,2013-01-30 18:25:00,
2013-01-30 13:26:00,43.9,36.1,28.64,ESE,112,0.0,0.0,74,0.04,,---,0.33,VWS V14.01,2013-01-30 18:26:00,
2013-01-30 13:27:00,44.1,36.3,28.64,SE,135,2.5,2.5,74,0.04,,---,0.33,VWS V14.01,2013-01-30 18:27:00,
2013-01-30 13:28:00,44.1,36.3,28.64,SE,135,0.0,2.5,74,0.04,,---,0.33,VWS V14.01,2013-01-30 18:28:00,
2013-01-30 13:29:00,44.1,36.3,28.64,SE,135,0.0,0.0,74,0.04,,---,0.33,VWS V14.01,2013-01-30 18:29:00,
2013-01-30 13:30:00,44.1,36.3,28.64,SE,135,1.6,1.6,74,0.04,,---,0.33,VWS V14.01,2013-01-30 18:30:00,
2013-01-30 13:31:00,43.9,36.1,28.64,ESE,112,2.9,2.9,74,0.04,,---,0.33,VWS V14.01,2013-01-30 18:31:00,
2013-01-30 13:32:00,43.9,36.1,28.64,ESE,112,2.7,2.9,74,0.04,,---,0.33,VWS V14.01,2013-01-30 18:32:00,
2013-01-30 13:33:00,43.9,36.1,28.64,SE,135,2.5,2.7,74,0.04,,---,0.33,VWS V14.01,2013-01-30 18:33:00,
2013-01-30 13:34:00,43.9,36.1,28.64,ESE,112,0.0,2.5,74,0.04,,---,0.33,VWS V14.01,2013-01-30 18:34:00,
2013-01-30 13:35:00,43.9,36.1,28.64,ESE,112,2.9,2.9,74,0.04,,---,0.33,VWS V14.01,2013-01-30 18:35:00,
2013-01-30 13:36:00,44.6,36.8,28.64,SE,135,1.1,2.9,74,0.04,,---,0.33,VWS V14.01,2013-01-30 18:36:00,
2013-01-30 13:37:00,44.6,36.8,28.64,East,90,2.7,2.9,74,0.04,,---,0.33,VWS V14.01,2013-01-30 18:37:00,
2013-01-30 13:38:00,44.8,36.7,28.64,East,90,2.7,2.7,73,0.04,,---,0.33,VWS V14.01,2013-01-30 18:38:00,
2013-01-30 13:39:00,44.8,36.7,28.64,SE,135,6.0,6.0,73,0.04,,---,0.33,VWS V14.01,2013-01-30 18:39:00,
2013-01-30 13:40:00,44.6,36.5,28.64,ENE,68,2.0,6.0,73,0.04,,---,0.33,VWS V14.01,2013-01-30 18:40:00,
2013-01-30 13:41:00,44.2,36.2,28.64,ESE,112,3.4,3.4,73,0.04,,---,0.33,VWS V14.01,2013-01-30 18:41:00,
2013-01-30 13:42:00,44.2,36.2,28.64,ESE,112,3.6,3.6,73,0.04,,---,0.33,VWS V14.01,2013-01-30 18:42:00,
2013-01-30 13:43:00,43.9,35.8,28.64,ESE,112,4.5,4.5,73,0.04,,---,0.33,VWS V14.01,2013-01-30 18:43:00,
2013-01-30 13:44:00,43.9,35.8,28.64,East,90,3.8,4.5,73,0.04,,---,0.33,VWS V14.01,2013-01-30 18:44:00,
2013-01-30 13:45:00,43.7,35.6,28.64,ESE,112,2.7,3.8,73,0.04,,---,0.33,VWS V14.01,2013-01-30 18:45:00,
2013-01-30 13:46:00,43.7,35.6,28.64,SE,135,2.7,3.4,73,0.04,,---,0.33,VWS V14.01,2013-01-30 18:46:00,
2013-01-30 13:47:00,43.7,35.6,28.64,SE,135,2.5,3.4,73,0.04,,---,0.33,VWS V14.01,2013-01-30 18:47:00,
2013-01-30 13:48:00,43.7,35.6,28.64,SE,135,0.0,2.5,73,0.04,,---,0.33,VWS V14.01,2013-01-30 18:48:00,
2013-01-30 13:49:00,43.7,36.0,28.64,ENE,68,2.9,2.9,74,0.04,,---,0.33,VWS V14.01,2013-01-30 18:49:00,
2013-01-30 13:50:00,43.7,36.0,28.64,East,90,2.9,2.9,74,0.04,,---,0.33,VWS V14.01,2013-01-30 18:50:00,
2013-01-30 13:51:00,44.1,36.3,28.64,East,90,3.4,3.4,74,0.04,,---,0.33,VWS V14.01,2013-01-30 18:51:00,
2013-01-30 13:52:00,44.1,36.3,28.64,East,90,3.4,3.4,74,0.04,,---,0.33,VWS V14.01,2013-01-30 18:52:00,
2013-01-30 13:53:00,44.1,36.3,28.61,East,90,4.9,4.9,74,0.04,,---,0.33,VWS V14.01,2013-01-30 18:53:00,
2013-01-30 13:54:00,43.9,36.1,28.61,East,90,2.7,4.9,74,0.04,,---,0.33,VWS V14.01,2013-01-30 18:54:00,
2013-01-30 13:55:00,43.9,36.1,28.61,ENE,68,0.0,3.8,74,0.00,,---,0.33,VWS V14.01,2013-01-30 18:55:00,
2013-01-30 13:56:00,43.7,36.0,28.61,ESE,112,2.7,2.7,74,0.00,,---,0.33,VWS V14.01,2013-01-30 18:56:00,
2013-01-30 13:57:00,43.7,36.0,28.61,ENE,68,2.5,2.7,74,0.00,,---,0.33,VWS V14.01,2013-01-30 18:57:00,
2013-01-30 13:58:00,43.7,36.0,28.61,NE,45,2.5,2.5,74,0.00,,---,0.33,VWS V14.01,2013-01-30 18:58:00,
2013-01-30 13:59:00,43.7,36.0,28.61,NE,45,0.0,2.5,74,0.00,,---,0.33,VWS V14.01,2013-01-30 18:59:00,
2013-01-30 14:00:00,43.3,35.6,28.61,NE,45,0.0,1.6,74,0.00,,---,0.33,VWS V14.01,2013-01-30 19:00:00,
2013-01-30 14:01:00,42.4,34.4,28.61,NE,45,2.5,2.5,73,0.00,,---,0.33,VWS V14.01,2013-01-30 19:01:00,
2013-01-30 14:02:00,42.4,34.4,28.61,East,90,1.6,2.5,73,0.00,,---,0.33,VWS V14.01,2013-01-30 19:02:00,
2013-01-30 14:03:00,43.0,35.3,28.61,ESE,112,2.7,2.7,74,0.00,,---,0.33,VWS V14.01,2013-01-30 19:03:00,
2013-01-30 14:04:00,43.0,35.3,28.61,NE,45,4.0,4.0,74,0.00,,---,0.33,VWS V14.01,2013-01-30 19:04:00,
2013-01-30 14:05:00,43.5,35.8,28.61,ESE,112,3.1,4.0,74,0.00,,---,0.33,VWS V14.01,2013-01-30 19:05:00,
2013-01-30 14:06:00,43.5,35.8,28.61,SSE,158,3.1,3.1,74,0.00,,---,0.33,VWS V14.01,2013-01-30 19:06:00,
2013-01-30 14:07:00,43.5,35.8,28.61,SSE,158,3.1,3.1,74,0.00,,---,0.33,VWS V14.01,2013-01-30 19:07:00,
2013-01-30 14:08:00,43.5,35.8,28.61,SE,135,0.0,3.1,74,0.00,,---,0.33,VWS V14.01,2013-01-30 19:08:00,
2013-01-30 14:09:00,43.5,35.8,28.61,SSE,158,2.5,2.5,74,0.00,,---,0.33,VWS V14.01,2013-01-30 19:09:00,
2013-01-30 14:10:00,43.7,36.0,28.61,SSE,158,2.5,2.5,74,0.00,,---,0.33,VWS V14.01,2013-01-30 19:10:00,
2013-01-30 14:11:00,43.5,35.8,28.61,ESE,112,0.0,0.9,74,0.00,,---,0.33,VWS V14.01,2013-01-30 19:11:00,
2013-01-30 14:12:00,43.5,35.8,28.61,ESE,112,0.0,0.9,74,0.00,,---,0.33,VWS V14.01,2013-01-30 19:12:00,
2013-01-30 14:13:00,43.5,35.8,28.61,East,90,0.0,0.0,74,0.00,,---,0.33,VWS V14.01,2013-01-30 19:13:00,
2013-01-30 14:14:00,43.3,35.6,28.61,NNE,22,0.0,0.0,74,0.00,,---,0.33,VWS V14.01,2013-01-30 19:14:00,
2013-01-30 14:15:00,43.3,35.6,28.61,NNE,22,0.0,0.0,74,0.00,,---,0.33,VWS V14.01,2013-01-30 19:15:00,
2013-01-30 14:16:00,43.3,35.6,28.61,ENE,68,0.0,0.0,74,0.00,,---,0.33,VWS V14.01,2013-01-30 19:16:00,
2013-01-30 14:17:00,43.5,35.8,28.61,East,90,0.0,0.0,74,0.00,,---,0.33,VWS V14.01,2013-01-30 19:17:00,
2013-01-30 14:18:00,43.5,35.8,28.61,East,90,0.0,0.0,74,0.00,,---,0.33,VWS V14.01,2013-01-30 19:18:00,
2013-01-30 14:19:00,43.3,35.6,28.61,East,90,0.0,0.0,74,0.00,,---,0.33,VWS V14.01,2013-01-30 19:19:00,
2013-01-30 14:20:00,43.3,35.6,28.61,East,90,0.0,0.0,74,0.00,,---,0.33,VWS V14.01,2013-01-30 19:20:00,
2013-01-30 14:21:00,43.3,35.6,28.61,ESE,112,2.5,2.5,74,0.00,,---,0.33,VWS V14.01,2013-01-30 19:21:00,
2013-01-30 14:22:00,43.3,35.6,28.61,ESE,112,2.9,2.9,74,0.00,,---,0.33,VWS V14.01,2013-01-30 19:22:00,
2013-01-30 14:23:00,43.3,35.6,28.61,ESE,112,2.0,2.9,74,0.00,,---,0.33,VWS V14.01,2013-01-30 19:23:00,
2013-01-30 14:24:00,43.3,35.6,28.61,ESE,112,0.0,2.0,74,0.00,,---,0.33,VWS V14.01,2013-01-30 19:24:00,
2013-01-30 14:25:00,43.3,35.6,28.61,East,90,0.0,0.0,74,0.00,,---,0.33,VWS V14.01,2013-01-30 19:25:00,
2013-01-30 14:26:00,43.3,36.0,28.61,ESE,112,2.9,2.9,75,0.00,,---,0.33,VWS V14.01,2013-01-30 19:26:00,
2013-01-30 14:27:00,43.0,35.3,28.61,ESE,112,2.0,2.9,74,0.00,,---,0.33,VWS V14.01,2013-01-30 19:27:00,
2013-01-30 14:28:00,43.0,35.3,28.61,ESE,112,0.0,2.0,74,0.00,,---,0.33,VWS V14.01,2013-01-30 19:28:00,
2013-01-30 14:29:00,43.0,35.3,28.61,ESE,112,0.0,0.0,74,0.00,,---,0.33,VWS V14.01,2013-01-30 19:29:00,
2013-01-30 14:30:00,42.8,35.1,28.61,ESE,112,2.9,2.9,74,0.00,,---,0.33,VWS V14.01,2013-01-30 19:30:00,
2013-01-30 14:31:00,42.6,35.3,28.61,SE,135,2.9,2.9,75,0.00,,---,0.33,VWS V14.01,2013-01-30 19:31:00,
2013-01-30 14:32:00,42.6,35.3,28.61,ESE,112,0.0,2.9,75,0.00,,---,0.33,VWS V14.01,2013-01-30 19:32:00,
2013-01-30 14:33:00,43.0,35.6,28.61,ENE,68,2.2,2.2,75,0.00,,---,0.33,VWS V14.01,2013-01-30 19:33:00,
2013-01-30 14:34:00,43.0,35.6,28.61,ENE,68,0.0,2.2,75,0.00,,---,0.33,VWS V14.01,2013-01-30 19:34:00,
2013-01-30 14:35:00,43.3,36.0,28.61,ENE,68,0.0,0.0,75,0.00,,---,0.33,VWS V14.01,2013-01-30 19:35:00,
2013-01-30 14:36:00,43.3,36.0,28.61,West,270,0.0,0.0,75,0.00,,---,0.33,VWS V14.01,2013-01-30 19:36:00,
2013-01-30 14:37:00,43.3,36.0,28.61,West,270,0.0,0.0,75,0.00,,---,0.33,VWS V14.01,2013-01-30 19:37:00,
2013-01-30 14:38:00,43.5,36.5,28.61,West,270,0.0,0.0,76,0.00,,---,0.33,VWS V14.01,2013-01-30 19:38:00,
2013-01-30 14:39:00,43.5,36.5,28.61,West,270,0.0,0.0,76,0.00,,---,0.33,VWS V14.01,2013-01-30 19:39:00,
2013-01-30 14:40:00,43.3,36.3,28.61,WSW,248,0.0,0.0,76,0.00,,---,0.33,VWS V14.01,2013-01-30 19:40:00,
2013-01-30 14:41:00,43.2,36.1,28.61,WSW,248,0.0,0.0,76,0.00,,---,0.33,VWS V14.01,2013-01-30 19:41:00,
2013-01-30 14:42:00,43.2,36.1,28.61,ENE,68,0.0,0.0,76,0.00,,---,0.33,VWS V14.01,2013-01-30 19:42:00,
2013-01-30 14:43:00,43.2,36.1,28.61,South,180,0.9,0.9,76,0.00,,---,0.33,VWS V14.01,2013-01-30 19:43:00,
2013-01-30 14:44:00,43.0,36.0,28.61,NW,315,0.0,0.9,76,0.00,,---,0.33,VWS V14.01,2013-01-30 19:44:00,
2013-01-30 14:45:00,43.0,36.0,28.61,NW,315,0.0,0.0,76,0.00,,---,0.33,VWS V14.01,2013-01-30 19:45:00,
2013-01-30 14:46:00,43.3,36.3,28.61,WNW,292,2.9,2.9,76,0.00,,---,0.33,VWS V14.01,2013-01-30 19:46:00,
2013-01-30 14:47:00,43.9,37.2,28.61,WNW,292,2.9,2.9,77,0.00,,---,0.33,VWS V14.01,2013-01-30 19:47:00,
2013-01-30 14:48:00,43.9,37.2,28.61,WNW,292,2.5,2.9,77,0.00,,---,0.33,VWS V14.01,2013-01-30 19:48:00,
2013-01-30 14:49:00,43.5,36.8,28.61,WNW,292,0.0,2.5,77,0.00,,---,0.33,VWS V14.01,2013-01-30 19:49:00,
2013-01-30 14:50:00,43.5,36.8,28.61,WNW,292,0.0,0.0,77,0.00,,---,0.33,VWS V14.01,2013-01-30 19:50:00,
2013-01-30 14:51:00,43.5,36.8,28.61,WNW,292,0.0,0.0,77,0.00,,---,0.33,VWS V14.01,2013-01-30 19:51:00,
2013-01-30 14:52:00,43.2,36.5,28.61,WNW,292,0.0,0.0,77,0.00,,---,0.33,VWS V14.01,2013-01-30 19:52:00,
2013-01-30 14:53:00,43.2,36.5,28.61,West,270,2.0,3.4,77,0.00,,---,0.33,VWS V14.01,2013-01-30 19:53:00,
2013-01-30 14:54:00,43.5,36.8,28.61,West,270,2.0,2.0,77,0.00,,---,0.33,VWS V14.01,2013-01-30 19:54:00,
2013-01-30 14:55:00,43.5,36.8,28.61,WNW,292,2.7,2.7,77,0.00,,---,0.33,VWS V14.01,2013-01-30 19:55:00,
2013-01-30 14:56:00,44.1,37.7,28.61,West,270,2.0,2.0,78,0.00,,---,0.33,VWS V14.01,2013-01-30 19:56:00,
2013-01-30 14:57:00,44.1,37.7,28.61,WSW,248,0.0,2.0,78,0.00,,---,0.33,VWS V14.01,2013-01-30 19:57:00,
2013-01-30 14:58:00,44.2,37.8,28.61,SW,225,0.9,0.9,78,0.00,,---,0.33,VWS V14.01,2013-01-30 19:58:00,
2013-01-30 14:59:00,44.2,37.8,28.61,WSW,248,0.0,0.9,78,0.00,,---,0.33,VWS V14.01,2013-01-30 19:59:00,
2013-01-30 15:00:00,44.2,37.8,28.61,NW,315,2.9,2.9,78,0.04,,---,0.37,VWS V14.01,2013-01-30 20:00:00,
2013-01-30 15:01:00,43.3,36.6,28.61,NNE,22,0.0,0.0,77,0.04,,---,0.37,VWS V14.01,2013-01-30 20:01:00,
2013-01-30 15:02:00,43.3,36.6,28.61,NNE,22,0.0,0.0,77,0.04,,---,0.37,VWS V14.01,2013-01-30 20:02:00,
2013-01-30 15:03:00,43.7,37.0,28.61,ESE,112,2.9,2.9,77,0.04,,---,0.37,VWS V14.01,2013-01-30 20:03:00,
2013-01-30 15:04:00,44.1,37.3,28.61,ESE,112,3.1,3.1,77,0.04,,---,0.37,VWS V14.01,2013-01-30 20:04:00,
2013-01-30 15:05:00,44.1,37.3,28.61,ESE,112,0.0,3.1,77,0.04,,---,0.37,VWS V14.01,2013-01-30 20:05:00,
2013-01-30 15:06:00,44.1,37.3,28.61,ESE,112,0.0,0.0,77,0.04,,---,0.37,VWS V14.01,2013-01-30 20:06:00,
2013-01-30 15:07:00,44.1,37.3,28.61,SW,225,0.0,0.0,77,0.04,,---,0.37,VWS V14.01,2013-01-30 20:07:00,
2013-01-30 15:08:00,43.7,37.0,28.61,SW,225,0.0,0.0,77,0.04,,---,0.37,VWS V14.01,2013-01-30 20:08:00,
2013-01-30 15:09:00,43.7,37.0,28.61,WNW,292,0.0,0.0,77,0.04,,---,0.37,VWS V14.01,2013-01-30 20:09:00,
2013-01-30 15:10:00,43.5,36.8,28.61,WNW,292,0.0,0.0,77,0.04,,---,0.37,VWS V14.01,2013-01-30 20:10:00,
2013-01-30 15:11:00,43.5,36.8,28.61,ESE,112,0.0,0.0,77,0.04,,---,0.37,VWS V14.01,2013-01-30 20:11:00,
2013-01-30 15:12:00,43.9,37.2,28.61,ESE,112,0.0,0.0,77,0.04,,---,0.37,VWS V14.01,2013-01-30 20:12:00,
2013-01-30 15:13:00,43.9,37.2,28.61,ESE,112,0.0,0.0,77,0.04,,---,0.37,VWS V14.01,2013-01-30 20:13:00,
2013-01-30 15:14:00,44.2,37.5,28.61,ESE,112,0.0,0.0,77,0.04,,---,0.37,VWS V14.01,2013-01-30 20:14:00,
2013-01-30 15:15:00,44.2,37.5,28.61,ESE,112,0.0,0.0,77,0.04,,---,0.37,VWS V14.01,2013-01-30 20:15:00,
2013-01-30 15:16:00,44.2,37.5,28.61,NE,45,0.0,0.0,77,0.04,,---,0.37,VWS V14.01,2013-01-30 20:16:00,
2013-01-30 15:17:00,44.2,37.5,28.61,NE,45,0.0,0.0,77,0.04,,---,0.37,VWS V14.01,2013-01-30 20:17:00,
2013-01-30 15:18:00,44.1,37.3,28.61,NE,45,0.0,0.0,77,0.04,,---,0.37,VWS V14.01,2013-01-30 20:18:00,
2013-01-30 15:19:00,44.1,37.3,28.61,NE,45,0.0,0.0,77,0.04,,---,0.37,VWS V14.01,2013-01-30 20:19:00,
2013-01-30 15:20:00,44.1,37.3,28.61,NE,45,0.0,0.0,77,0.04,,---,0.37,VWS V14.01,2013-01-30 20:20:00,
2013-01-30 15:21:00,44.1,37.3,28.61,NE,45,0.0,0.0,77,0.04,,---,0.37,VWS V14.01,2013-01-30 20:21:00,
2013-01-30 15:22:00,44.1,37.3,28.61,NNE,22,0.0,0.0,77,0.04,,---,0.37,VWS V14.01,2013-01-30 20:22:00,
2013-01-30 15:23:00,43.7,37.0,28.61,NNE,22,0.0,0.0,77,0.04,,---,0.37,VWS V14.01,2013-01-30 20:23:00,
2013-01-30 15:24:00,43.7,37.0,28.61,NNE,22,0.0,0.0,77,0.04,,---,0.37,VWS V14.01,2013-01-30 20:24:00,
2013-01-30 15:25:00,43.7,37.0,28.61,NNE,22,0.0,0.0,77,0.04,,---,0.37,VWS V14.01,2013-01-30 20:25:00,
2013-01-30 15:26:00,42.8,36.1,28.61,NNE,22,0.0,0.0,77,0.04,,---,0.37,VWS V14.01,2013-01-30 20:26:00,
2013-01-30 15:27:00,42.8,36.1,28.61,WNW,292,3.4,3.4,77,0.04,,---,0.37,VWS V14.01,2013-01-30 20:27:00,
2013-01-30 15:28:00,42.4,35.8,28.61,WNW,292,3.1,3.4,77,0.04,,---,0.37,VWS V14.01,2013-01-30 20:28:00,
2013-01-30 15:29:00,42.6,35.9,28.61,WNW,292,3.1,3.1,77,0.04,,---,0.37,VWS V14.01,2013-01-30 20:29:00,
2013-01-30 15:30:00,42.6,35.9,28.61,WNW,292,1.6,3.1,77,0.04,,---,0.37,VWS V14.01,2013-01-30 20:30:00,
2013-01-30 15:31:00,42.8,36.1,28.61,SW,225,1.1,3.4,77,0.04,,---,0.37,VWS V14.01,2013-01-30 20:31:00,
2013-01-30 15:32:00,42.8,36.1,28.61,WSW,248,2.9,3.4,77,0.04,,---,0.37,VWS V14.01,2013-01-30 20:32:00,
2013-01-30 15:33:00,43.2,36.8,28.61,WSW,248,4.7,4.7,78,0.04,,---,0.37,VWS V14.01,2013-01-30 20:33:00,
2013-01-30 15:34:00,43.2,36.8,28.61,WNW,292,3.6,4.7,78,0.04,,---,0.37,VWS V14.01,2013-01-30 20:34:00,
2013-01-30 15:35:00,43.5,37.5,28.61,WNW,292,3.6,3.6,79,0.04,,---,0.37,VWS V14.01,2013-01-30 20:35:00,
2013-01-30 15:36:00,43.5,37.5,28.61,West,270,3.1,3.1,79,0.04,,---,0.37,VWS V14.01,2013-01-30 20:36:00,
2013-01-30 15:37:00,43.5,37.5,28.61,West,270,3.4,3.4,79,0.04,,---,0.37,VWS V14.01,2013-01-30 20:37:00,
2013-01-30 15:38:00,43.5,37.5,28.61,NW,315,6.3,6.3,79,0.04,,---,0.37,VWS V14.01,2013-01-30 20:38:00,
2013-01-30 15:39:00,43.7,37.9,28.61,WNW,292,5.4,6.3,80,0.04,,---,0.37,VWS V14.01,2013-01-30 20:39:00,
2013-01-30 15:40:00,44.4,39.0,28.61,WNW,292,5.4,5.4,81,0.04,,---,0.37,VWS V14.01,2013-01-30 20:40:00,
2013-01-30 15:41:00,44.4,39.0,28.61,WSW,248,4.3,4.3,81,0.04,,---,0.37,VWS V14.01,2013-01-30 20:41:00,
2013-01-30 15:42:00,44.4,39.0,28.61,WSW,248,4.7,4.7,81,0.04,,---,0.37,VWS V14.01,2013-01-30 20:42:00,
2013-01-30 15:43:00,44.4,39.0,28.61,WNW,292,4.0,4.7,81,0.04,,---,0.37,VWS V14.01,2013-01-30 20:43:00,
2013-01-30 15:44:00,44.6,39.1,28.61,WSW,248,3.1,4.0,81,0.04,,---,0.37,VWS V14.01,2013-01-30 20:44:00,
2013-01-30 15:45:00,44.2,38.8,28.61,WSW,248,2.5,3.1,81,0.04,,---,0.37,VWS V14.01,2013-01-30 20:45:00,
2013-01-30 15:46:00,44.2,38.8,28.61,WNW,292,2.7,2.7,81,0.04,,---,0.37,VWS V14.01,2013-01-30 20:46:00,
2013-01-30 15:47:00,44.2,38.8,28.61,WNW,292,2.7,2.7,81,0.04,,---,0.37,VWS V14.01,2013-01-30 20:47:00,
2013-01-30 15:48:00,44.2,38.8,28.61,SSW,202,2.9,2.9,81,0.04,,---,0.37,VWS V14.01,2013-01-30 20:48:00,
2013-01-30 15:49:00,44.2,38.8,28.61,SSW,202,2.9,2.9,81,0.04,,---,0.37,VWS V14.01,2013-01-30 20:49:00,
2013-01-30 15:50:00,44.2,38.8,28.61,WSW,248,4.3,8.1,81,0.04,,---,0.37,VWS V14.01,2013-01-30 20:50:00,
2013-01-30 15:51:00,44.4,39.0,28.61,West,270,2.7,4.3,81,0.04,,---,0.37,VWS V14.01,2013-01-30 20:51:00,
2013-01-30 15:52:00,44.4,39.0,28.61,West,270,2.7,2.7,81,0.04,,---,0.37,VWS V14.01,2013-01-30 20:52:00,
2013-01-30 15:53:00,44.8,39.3,28.61,WNW,292,4.9,4.9,81,0.04,,---,0.37,VWS V14.01,2013-01-30 20:53:00,
2013-01-30 15:54:00,44.8,39.3,28.61,WNW,292,4.9,4.9,81,0.04,,---,0.37,VWS V14.01,2013-01-30 20:54:00,
2013-01-30 15:55:00,44.6,39.1,28.61,WSW,248,3.4,4.9,81,0.04,,---,0.37,VWS V14.01,2013-01-30 20:55:00,
2013-01-30 15:56:00,44.6,39.1,28.61,SSE,158,3.6,3.6,81,0.04,,---,0.37,VWS V14.01,2013-01-30 20:56:00,
2013-01-30 15:57:00,44.6,39.1,28.61,SSE,158,3.6,3.6,81,0.04,,---,0.37,VWS V14.01,2013-01-30 20:57:00,
2013-01-30 15:58:00,44.4,39.0,28.61,WSW,248,0.0,3.6,81,0.04,,---,0.37,VWS V14.01,2013-01-30 20:58:00,
2013-01-30 15:59:00,44.4,39.0,28.61,SW,225,3.6,3.6,81,0.04,,---,0.37,VWS V14.01,2013-01-30 20:59:00,
2013-01-30 16:00:00,44.1,38.6,28.61,West,270,3.1,3.6,81,0.04,,---,0.37,VWS V14.01,2013-01-30 21:00:00,
2013-01-30 16:01:00,43.7,38.3,28.61,WSW,248,1.1,3.1,81,0.00,,---,0.37,VWS V14.01,2013-01-30 21:01:00,
2013-01-30 16:02:00,43.7,38.3,28.61,WSW,248,3.1,3.1,81,0.00,,---,0.37,VWS V14.01,2013-01-30 21:02:00,
2013-01-30 16:03:00,43.5,37.8,28.61,WSW,248,2.0,3.1,80,0.00,,---,0.37,VWS V14.01,2013-01-30 21:03:00,
2013-01-30 16:04:00,43.5,37.8,28.61,WNW,292,2.2,2.2,80,0.00,,---,0.37,VWS V14.01,2013-01-30 21:04:00,
2013-01-30 16:05:00,43.5,37.8,28.61,WSW,248,2.5,2.5,80,0.00,,---,0.37,VWS V14.01,2013-01-30 21:05:00,
2013-01-30 16:06:00,43.5,37.8,28.61,South,180,1.1,1.1,80,0.00,,---,0.37,VWS V14.01,2013-01-30 21:06:00,
2013-01-30 16:07:00,43.5,37.8,28.61,SSE,158,1.6,1.6,80,0.00,,---,0.37,VWS V14.01,2013-01-30 21:07:00,
2013-01-30 16:08:00,43.3,37.6,28.58,SSE,158,1.6,1.6,80,0.00,,---,0.37,VWS V14.01,2013-01-30 21:08:00,
2013-01-30 16:09:00,43.3,37.6,28.58,NE,45,2.0,2.0,80,0.00,,---,0.37,VWS V14.01,2013-01-30 21:09:00,
2013-01-30 16:10:00,43.3,37.6,28.58,NE,45,2.0,2.0,80,0.00,,---,0.37,VWS V14.01,2013-01-30 21:10:00,
2013-01-30 16:11:00,43.9,38.1,28.58,WNW,292,0.0,0.0,80,0.00,,---,0.37,VWS V14.01,2013-01-30 21:11:00,
2013-01-30 16:12:00,43.9,38.1,28.58,West,270,2.7,2.7,80,0.00,,---,0.37,VWS V14.01,2013-01-30 21:12:00,
2013-01-30 16:13:00,43.9,38.1,28.58,NW,315,0.0,2.7,80,0.00,,---,0.37,VWS V14.01,2013-01-30 21:13:00,
2013-01-30 16:14:00,43.7,37.9,28.58,NW,315,1.1,1.1,80,0.00,,---,0.37,VWS V14.01,2013-01-30 21:14:00,
2013-01-30 16:15:00,43.7,37.9,28.58,SSE,158,1.3,1.3,80,0.00,,---,0.37,VWS V14.01,2013-01-30 21:15:00,
2013-01-30 16:16:00,43.3,37.6,28.58,South,180,0.0,1.3,80,0.00,,---,0.37,VWS V14.01,2013-01-30 21:16:00,
2013-01-30 16:17:00,43.3,37.6,28.58,South,180,0.0,0.0,80,0.00,,---,0.37,VWS V14.01,2013-01-30 21:17:00,
2013-01-30 16:18:00,43.3,37.6,28.58,ENE,68,2.5,2.5,80,0.00,,---,0.37,VWS V14.01,2013-01-30 21:18:00,
2013-01-30 16:19:00,43.5,37.8,28.58,ESE,112,1.6,2.5,80,0.00,,---,0.37,VWS V14.01,2013-01-30 21:19:00,
2013-01-30 16:20:00,43.5,37.8,28.58,WNW,292,3.8,3.8,80,0.00,,---,0.37,VWS V14.01,2013-01-30 21:20:00,
2013-01-30 16:21:00,44.1,38.3,28.58,WNW,292,2.7,3.8,80,0.00,,---,0.37,VWS V14.01,2013-01-30 21:21:00,
2013-01-30 16:22:00,44.1,38.3,28.58,West,270,3.1,3.1,80,0.00,,---,0.37,VWS V14.01,2013-01-30 21:22:00,
2013-01-30 16:23:00,43.7,37.9,28.55,SSE,158,6.3,6.3,80,0.00,,---,0.37,VWS V14.01,2013-01-30 21:23:00,
2013-01-30 16:24:00,44.2,38.8,28.55,SW,225,5.8,6.3,81,0.00,,---,0.37,VWS V14.01,2013-01-30 21:24:00,
2013-01-30 16:25:00,44.2,38.8,28.55,WSW,248,1.6,5.8,81,0.00,,---,0.37,VWS V14.01,2013-01-30 21:25:00,
2013-01-30 16:26:00,43.7,38.3,28.55,WSW,248,4.5,4.5,81,0.00,,---,0.37,VWS V14.01,2013-01-30 21:26:00,
2013-01-30 16:27:00,43.7,38.3,28.55,West,270,5.4,5.4,81,0.00,,---,0.37,VWS V14.01,2013-01-30 21:27:00,
2013-01-30 16:28:00,43.9,38.4,28.55,West,270,4.3,5.4,81,0.00,,---,0.37,VWS V14.01,2013-01-30 21:28:00,
2013-01-30 16:29:00,44.1,38.6,28.55,West,270,7.6,7.6,81,0.00,,---,0.37,VWS V14.01,2013-01-30 21:29:00,
2013-01-30 16:30:00,44.1,38.6,28.55,WSW,248,3.8,7.6,81,0.00,,---,0.37,VWS V14.01,2013-01-30 21:30:00,
2013-01-30 16:31:00,43.9,38.8,28.55,West,270,5.4,5.4,82,0.00,,---,0.37,VWS V14.01,2013-01-30 21:31:00,
2013-01-30 16:32:00,43.9,38.8,28.55,WSW,248,3.1,5.4,82,0.00,,---,0.37,VWS V14.01,2013-01-30 21:32:00,
2013-01-30 16:33:00,43.9,38.8,28.55,WSW,248,3.1,3.1,82,0.00,,---,0.37,VWS V14.01,2013-01-30 21:33:00,
2013-01-30 16:34:00,43.9,38.8,28.55,WSW,248,5.8,10.3,82,0.00,,---,0.37,VWS V14.01,2013-01-30 21:34:00,
2013-01-30 16:35:00,44.2,39.1,28.55,WSW,248,5.8,5.8,82,0.00,,---,0.37,VWS V14.01,2013-01-30 21:35:00,
2013-01-30 16:36:00,44.2,39.1,28.55,SSW,202,3.4,3.4,82,0.00,,---,0.37,VWS V14.01,2013-01-30 21:36:00,
2013-01-30 16:37:00,43.9,38.8,28.55,WNW,292,4.3,4.3,82,0.00,,---,0.37,VWS V14.01,2013-01-30 21:37:00,
2013-01-30 16:38:00,44.1,38.9,28.55,WSW,248,4.0,4.3,82,0.00,,---,0.37,VWS V14.01,2013-01-30 21:38:00,
2013-01-30 16:39:00,44.1,38.9,28.55,WSW,248,6.3,6.3,82,0.00,,---,0.37,VWS V14.01,2013-01-30 21:39:00,
2013-01-30 16:40:00,43.7,38.6,28.55,WSW,248,4.3,6.3,82,0.00,,---,0.37,VWS V14.01,2013-01-30 21:40:00,
2013-01-30 16:41:00,43.7,38.6,28.55,West,270,6.0,6.0,82,0.00,,---,0.37,VWS V14.01,2013-01-30 21:41:00,
2013-01-30 16:42:00,43.9,38.8,28.55,West,270,5.6,6.0,82,0.00,,---,0.37,VWS V14.01,2013-01-30 21:42:00,
2013-01-30 16:43:00,44.1,38.9,28.55,WSW,248,6.5,6.5,82,0.00,,---,0.37,VWS V14.01,2013-01-30 21:43:00,
2013-01-30 16:44:00,44.1,38.9,28.55,WSW,248,4.9,6.5,82,0.00,,---,0.37,VWS V14.01,2013-01-30 21:44:00,
2013-01-30 16:45:00,43.7,38.6,28.55,WSW,248,3.1,4.9,82,0.00,,---,0.37,VWS V14.01,2013-01-30 21:45:00,
2013-01-30 16:46:00,43.7,38.6,28.55,WNW,292,4.0,4.0,82,0.00,,---,0.37,VWS V14.01,2013-01-30 21:46:00,
2013-01-30 16:47:00,43.7,38.6,28.55,WNW,292,4.7,4.7,82,0.00,,---,0.37,VWS V14.01,2013-01-30 21:47:00,
2013-01-30 16:48:00,43.9,38.8,28.55,WSW,248,10.1,10.1,82,0.00,,---,0.37,VWS V14.01,2013-01-30 21:48:00,
2013-01-30 16:49:00,44.2,39.4,28.55,WSW,248,3.8,10.1,83,0.00,,---,0.37,VWS V14.01,2013-01-30 21:49:00,
2013-01-30 16:50:00,44.2,39.4,28.55,WSW,248,3.8,3.8,83,0.00,,---,0.37,VWS V14.01,2013-01-30 21:50:00,
2013-01-30 16:51:00,43.7,38.9,28.55,WNW,292,2.5,4.0,83,0.00,,---,0.37,VWS V14.01,2013-01-30 21:51:00,
2013-01-30 16:52:00,43.7,38.9,28.55,West,270,8.5,8.5,83,0.00,,---,0.37,VWS V14.01,2013-01-30 21:52:00,
2013-01-30 16:53:00,43.7,38.6,28.55,WNW,292,4.0,8.5,82,0.00,,---,0.37,VWS V14.01,2013-01-30 21:53:00,
2013-01-30 16:54:00,44.1,39.2,28.55,WNW,292,4.0,4.0,83,0.00,,---,0.37,VWS V14.01,2013-01-30 21:54:00,
2013-01-30 16:55:00,44.1,39.2,28.55,WNW,292,2.7,4.0,83,0.00,,---,0.37,VWS V14.01,2013-01-30 21:55:00,
2013-01-30 16:56:00,43.9,39.1,28.55,WNW,292,2.0,2.0,83,0.00,,---,0.37,VWS V14.01,2013-01-30 21:56:00,
2013-01-30 16:57:00,43.9,39.1,28.55,SE,135,3.6,3.6,83,0.00,,---,0.37,VWS V14.01,2013-01-30 21:57:00,
2013-01-30 16:58:00,44.2,39.4,28.55,WNW,292,3.1,3.6,83,0.00,,---,0.37,VWS V14.01,2013-01-30 21:58:00,
2013-01-30 16:59:00,44.2,39.4,28.55,West,270,0.0,3.1,83,0.00,,---,0.37,VWS V14.01,2013-01-30 21:59:00,
2013-01-30 17:00:00,44.2,39.4,28.55,South,180,0.0,0.0,83,0.00,,---,0.37,VWS V14.01,2013-01-30 22:00:00,
2013-01-30 17:01:00,44.2,39.4,28.55,NW,315,3.1,3.1,83,0.00,,---,0.37,VWS V14.01,2013-01-30 22:01:00,
2013-01-30 17:02:00,44.2,39.4,28.55,West,270,1.3,3.1,83,0.00,,---,0.37,VWS V14.01,2013-01-30 22:02:00,
2013-01-30 17:03:00,44.2,39.4,28.55,WNW,292,2.7,2.7,83,0.00,,---,0.37,VWS V14.01,2013-01-30 22:03:00,
2013-01-30 17:04:00,44.6,39.8,28.55,WNW,292,0.9,2.7,83,0.00,,---,0.37,VWS V14.01,2013-01-30 22:04:00,
2013-01-30 17:05:00,44.4,39.6,28.55,WNW,292,2.7,2.9,83,0.00,,---,0.37,VWS V14.01,2013-01-30 22:05:00,
2013-01-30 17:06:00,44.4,39.6,28.55,WNW,292,2.2,2.7,83,0.00,,---,0.37,VWS V14.01,2013-01-30 22:06:00,
2013-01-30 17:07:00,43.7,38.9,28.55,NW,315,2.9,2.9,83,0.00,,---,0.37,VWS V14.01,2013-01-30 22:07:00,
2013-01-30 17:08:00,43.7,38.9,28.55,SE,135,3.1,3.1,83,0.00,,---,0.37,VWS V14.01,2013-01-30 22:08:00,
2013-01-30 17:09:00,43.5,38.4,28.55,South,180,3.6,3.6,82,0.00,,---,0.37,VWS V14.01,2013-01-30 22:09:00,
2013-01-30 17:10:00,44.1,39.2,28.55,ESE,112,4.0,4.0,83,0.00,,---,0.37,VWS V14.01,2013-01-30 22:10:00,
2013-01-30 17:11:00,44.1,39.2,28.55,SSW,202,1.6,4.0,83,0.00,,---,0.37,VWS V14.01,2013-01-30 22:11:00,
2013-01-30 17:12:00,44.2,39.4,28.55,SSW,202,1.6,1.6,83,0.00,,---,0.37,VWS V14.01,2013-01-30 22:12:00,
2013-01-30 17:13:00,44.2,39.4,28.55,NNE,22,2.9,2.9,83,0.00,,---,0.37,VWS V14.01,2013-01-30 22:13:00,
2013-01-30 17:14:00,44.2,39.4,28.55,NE,45,0.0,2.9,83,0.00,,---,0.37,VWS V14.01,2013-01-30 22:14:00,
2013-01-30 17:15:00,44.2,39.4,28.55,SE,135,2.7,2.7,83,0.00,,---,0.37,VWS V14.01,2013-01-30 22:15:00,
2013-01-30 17:16:00,44.1,39.2,28.55,NW,315,8.5,8.5,83,0.00,,---,0.37,VWS V14.01,2013-01-30 22:16:00,
2013-01-30 17:17:00,44.6,39.8,28.55,NNW,338,5.6,8.5,83,0.00,,---,0.37,VWS V14.01,2013-01-30 22:17:00,
2013-01-30 17:18:00,44.6,39.8,28.55,NNW,338,5.6,5.6,83,0.00,,---,0.37,VWS V14.01,2013-01-30 22:18:00,
2013-01-30 17:19:00,45.7,41.1,28.55,NNW,338,1.3,5.6,84,0.00,,---,0.37,VWS V14.01,2013-01-30 22:19:00,
2013-01-30 17:20:00,45.7,41.1,28.55,WNW,292,4.0,4.0,84,0.00,,---,0.37,VWS V14.01,2013-01-30 22:20:00,
2013-01-30 17:21:00,45.7,41.1,28.55,SSE,158,4.9,4.9,84,0.00,,---,0.37,VWS V14.01,2013-01-30 22:21:00,
2013-01-30 17:22:00,45.3,40.8,28.55,WSW,248,2.7,4.9,84,0.00,,---,0.37,VWS V14.01,2013-01-30 22:22:00,
2013-01-30 17:23:00,45.3,40.8,28.55,WNW,292,6.5,6.5,84,0.00,,---,0.37,VWS V14.01,2013-01-30 22:23:00,
2013-01-30 17:24:00,45.3,40.8,28.55,WNW,292,4.3,6.5,84,0.00,,---,0.37,VWS V14.01,2013-01-30 22:24:00,
2013-01-30 17:25:00,45.3,40.8,28.55,NNW,338,1.3,4.3,84,0.00,,---,0.37,VWS V14.01,2013-01-30 22:25:00,
2013-01-30 17:26:00,45.3,40.8,28.55,NNW,338,1.3,1.3,84,0.00,,---,0.37,VWS V14.01,2013-01-30 22:26:00,
2013-01-30 17:27:00,45.3,40.8,28.55,WNW,292,3.6,4.7,84,0.00,,---,0.37,VWS V14.01,2013-01-30 22:27:00,
2013-01-30 17:28:00,45.5,41.0,28.55,WNW,292,3.8,3.8,84,0.00,,---,0.37,VWS V14.01,2013-01-30 22:28:00,
2013-01-30 17:29:00,45.5,41.0,28.55,SW,225,3.8,3.8,84,0.00,,---,0.37,VWS V14.01,2013-01-30 22:29:00,
2013-01-30 17:30:00,45.5,41.0,28.55,WSW,248,4.0,4.0,84,0.00,,---,0.37,VWS V14.01,2013-01-30 22:30:00,
2013-01-30 17:31:00,45.5,41.3,28.55,WNW,292,4.3,4.3,85,0.00,,---,0.37,VWS V14.01,2013-01-30 22:31:00,
2013-01-30 17:32:00,45.5,41.3,28.55,WNW,292,4.0,4.3,85,0.00,,---,0.37,VWS V14.01,2013-01-30 22:32:00,
2013-01-30 17:33:00,45.3,41.1,28.55,WNW,292,4.0,4.0,85,0.00,,---,0.37,VWS V14.01,2013-01-30 22:33:00,
2013-01-30 17:34:00,45.3,41.1,28.55,West,270,5.4,5.4,85,0.00,,---,0.37,VWS V14.01,2013-01-30 22:34:00,
2013-01-30 17:35:00,45.9,41.6,28.55,West,270,4.3,5.4,85,0.00,,---,0.37,VWS V14.01,2013-01-30 22:35:00,
2013-01-30 17:36:00,45.9,41.6,28.55,WSW,248,2.5,4.3,85,0.00,,---,0.37,VWS V14.01,2013-01-30 22:36:00,
2013-01-30 17:37:00,45.5,41.3,28.55,WSW,248,5.6,5.6,85,0.00,,---,0.37,VWS V14.01,2013-01-30 22:37:00,
2013-01-30 17:38:00,45.7,41.4,28.55,WNW,292,4.5,5.6,85,0.00,,---,0.37,VWS V14.01,2013-01-30 22:38:00,
2013-01-30 17:39:00,45.7,41.4,28.55,WNW,292,4.0,4.5,85,0.00,,---,0.37,VWS V14.01,2013-01-30 22:39:00,
2013-01-30 17:40:00,45.7,41.4,28.55,WSW,248,6.0,6.0,85,0.00,,---,0.37,VWS V14.01,2013-01-30 22:40:00,
2013-01-30 17:41:00,45.9,41.6,28.55,WSW,248,4.9,6.0,85,0.00,,---,0.37,VWS V14.01,2013-01-30 22:41:00,
2013-01-30 17:42:00,45.7,41.4,28.55,WNW,292,3.4,3.4,85,0.00,,---,0.37,VWS V14.01,2013-01-30 22:42:00,
2013-01-30 17:43:00,45.7,41.4,28.55,WSW,248,4.7,4.7,85,0.00,,---,0.37,VWS V14.01,2013-01-30 22:43:00,
2013-01-30 17:44:00,45.7,41.4,28.55,WSW,248,5.4,5.4,85,0.00,,---,0.37,VWS V14.01,2013-01-30 22:44:00,
2013-01-30 17:45:00,45.7,41.4,28.55,WSW,248,6.0,6.0,85,0.00,,---,0.37,VWS V14.01,2013-01-30 22:45:00,
2013-01-30 17:46:00,46.0,41.8,28.55,WNW,292,5.6,6.0,85,0.00,,---,0.37,VWS V14.01,2013-01-30 22:46:00,
2013-01-30 17:47:00,46.0,41.8,28.55,SW,225,5.8,5.8,85,0.00,,---,0.37,VWS V14.01,2013-01-30 22:47:00,
2013-01-30 17:48:00,46.0,41.8,28.55,SW,225,5.8,5.8,85,0.00,,---,0.37,VWS V14.01,2013-01-30 22:48:00,
2013-01-30 17:49:00,46.0,41.8,28.55,WSW,248,4.7,6.0,85,0.00,,---,0.37,VWS V14.01,2013-01-30 22:49:00,
2013-01-30 17:50:00,46.0,41.8,28.55,NW,315,2.5,4.7,85,0.00,,---,0.37,VWS V14.01,2013-01-30 22:50:00,
2013-01-30 17:51:00,46.0,41.8,28.55,NW,315,4.9,4.9,85,0.00,,---,0.37,VWS V14.01,2013-01-30 22:51:00,
2013-01-30 17:52:00,46.0,41.8,28.55,NNW,338,4.0,4.9,85,0.00,,---,0.37,VWS V14.01,2013-01-30 22:52:00,
2013-01-30 17:53:00,46.0,41.8,28.55,West,270,3.6,4.0,85,0.00,,---,0.37,VWS V14.01,2013-01-30 22:53:00,
2013-01-30 17:54:00,46.0,41.8,28.55,WSW,248,1.3,3.6,85,0.00,,---,0.37,VWS V14.01,2013-01-30 22:54:00,
2013-01-30 17:55:00,46.0,41.8,28.55,WNW,292,4.9,4.9,85,0.00,,---,0.37,VWS V14.01,2013-01-30 22:55:00,
2013-01-30 17:56:00,46.0,41.8,28.55,West,270,3.1,4.9,85,0.00,,---,0.37,VWS V14.01,2013-01-30 22:56:00,
2013-01-30 17:57:00,46.0,41.8,28.55,NNE,22,1.3,4.9,85,0.00,,---,0.37,VWS V14.01,2013-01-30 22:57:00,
2013-01-30 17:58:00,46.0,42.1,28.55,WNW,292,2.7,2.7,86,0.00,,---,0.37,VWS V14.01,2013-01-30 22:58:00,
2013-01-30 17:59:00,46.0,42.1,28.55,NW,315,4.3,4.3,86,0.00,,---,0.37,VWS V14.01,2013-01-30 22:59:00,
2013-01-30 18:00:00,44.8,40.5,28.55,NW,315,3.4,4.3,85,0.00,,---,0.37,VWS V14.01,2013-01-30 23:00:00,
2013-01-30 18:01:00,44.8,40.5,28.55,NW,315,1.3,3.4,85,0.00,,---,0.37,VWS V14.01,2013-01-30 23:01:00,
2013-01-30 18:02:00,44.8,40.5,28.55,WNW,292,0.0,1.3,85,0.00,,---,0.37,VWS V14.01,2013-01-30 23:02:00,
2013-01-30 18:03:00,44.8,40.5,28.55,NNE,22,2.7,3.6,85,0.00,,---,0.37,VWS V14.01,2013-01-30 23:03:00,
2013-01-30 18:04:00,44.8,40.5,28.55,North,0,4.7,4.7,85,0.00,,---,0.37,VWS V14.01,2013-01-30 23:04:00,
2013-01-30 18:05:00,44.8,40.5,28.55,North,0,4.7,4.7,85,0.00,,---,0.37,VWS V14.01,2013-01-30 23:05:00,
2013-01-30 18:06:00,44.8,40.5,28.55,North,0,4.7,4.7,85,0.00,,---,0.37,VWS V14.01,2013-01-30 23:06:00,
2013-01-30 18:07:00,44.8,40.5,28.55,NE,45,3.6,3.6,85,0.00,,---,0.37,VWS V14.01,2013-01-30 23:07:00,
2013-01-30 18:08:00,42.3,37.2,28.52,ENE,68,2.7,3.6,82,0.00,,---,0.37,VWS V14.01,2013-01-30 23:08:00,
2013-01-30 18:09:00,42.3,37.2,28.52,NNE,22,3.1,3.1,82,0.00,,---,0.37,VWS V14.01,2013-01-30 23:09:00,
2013-01-30 18:10:00,42.3,37.2,28.52,NNE,22,3.1,3.1,82,0.00,,---,0.37,VWS V14.01,2013-01-30 23:10:00,
2013-01-30 18:11:00,42.8,37.7,28.52,East,90,0.0,3.1,82,0.00,,---,0.37,VWS V14.01,2013-01-30 23:11:00,
2013-01-30 18:12:00,43.0,38.2,28.52,ENE,68,2.9,2.9,83,0.00,,---,0.37,VWS V14.01,2013-01-30 23:12:00,
2013-01-30 18:13:00,43.0,38.2,28.52,ENE,68,2.9,2.9,83,0.00,,---,0.37,VWS V14.01,2013-01-30 23:13:00,
2013-01-30 18:14:00,42.4,37.7,28.52,ENE,68,2.0,2.9,83,0.00,,---,0.37,VWS V14.01,2013-01-30 23:14:00,
2013-01-30 18:15:00,42.4,37.7,28.52,ENE,68,2.5,2.5,83,0.00,,---,0.37,VWS V14.01,2013-01-30 23:15:00,
2013-01-30 18:16:00,42.3,37.5,28.52,ENE,68,3.1,3.1,83,0.00,,---,0.37,VWS V14.01,2013-01-30 23:16:00,
2013-01-30 18:17:00,42.3,37.5,28.52,ENE,68,3.6,3.6,83,0.00,,---,0.37,VWS V14.01,2013-01-30 23:17:00,
2013-01-30 18:18:00,42.3,37.5,28.52,ENE,68,2.9,3.6,83,0.00,,---,0.37,VWS V14.01,2013-01-30 23:18:00,
2013-01-30 18:19:00,42.6,37.8,28.52,NE,45,2.7,2.9,83,0.00,,---,0.37,VWS V14.01,2013-01-30 23:19:00,
2013-01-30 18:20:00,42.6,37.8,28.52,ENE,68,2.7,2.7,83,0.00,,---,0.37,VWS V14.01,2013-01-30 23:20:00,
2013-01-30 18:21:00,42.4,37.7,28.52,ENE,68,2.2,2.7,83,0.00,,---,0.37,VWS V14.01,2013-01-30 23:21:00,
2013-01-30 18:22:00,42.4,37.7,28.52,ENE,68,3.8,3.8,83,0.00,,---,0.37,VWS V14.01,2013-01-30 23:22:00,
2013-01-30 18:23:00,42.1,37.0,28.52,ENE,68,2.0,3.8,82,0.00,,---,0.37,VWS V14.01,2013-01-30 23:23:00,
2013-01-30 18:24:00,42.1,37.0,28.52,ENE,68,2.0,2.0,82,0.00,,---,0.37,VWS V14.01,2013-01-30 23:24:00,
2013-01-30 18:25:00,41.9,36.8,28.52,ENE,68,2.7,2.7,82,0.00,,---,0.37,VWS V14.01,2013-01-30 23:25:00,
2013-01-30 18:26:00,42.3,37.2,28.52,ENE,68,2.7,2.7,82,0.00,,---,0.37,VWS V14.01,2013-01-30 23:26:00,
2013-01-30 18:27:00,42.3,37.2,28.52,East,90,3.4,3.4,82,0.00,,---,0.37,VWS V14.01,2013-01-30 23:27:00,
2013-01-30 18:28:00,42.6,37.8,28.52,ENE,68,2.7,3.4,83,0.00,,---,0.37,VWS V14.01,2013-01-30 23:28:00,
2013-01-30 18:29:00,42.6,37.8,28.52,ENE,68,3.4,3.4,83,0.00,,---,0.37,VWS V14.01,2013-01-30 23:29:00,
2013-01-30 18:30:00,42.3,37.5,28.52,ENE,68,3.4,3.4,83,0.00,,---,0.37,VWS V14.01,2013-01-30 23:30:00,
2013-01-30 18:31:00,42.3,37.5,28.52,East,90,1.6,3.4,83,0.00,,---,0.37,VWS V14.01,2013-01-30 23:31:00,
2013-01-30 18:32:00,42.8,38.0,28.52,East,90,2.9,2.9,83,0.00,,---,0.37,VWS V14.01,2013-01-30 23:32:00,
2013-01-30 18:33:00,42.8,38.0,28.52,ENE,68,2.9,2.9,83,0.00,,---,0.37,VWS V14.01,2013-01-30 23:33:00,
2013-01-30 18:34:00,42.4,37.7,28.52,East,90,2.5,5.6,83,0.00,,---,0.37,VWS V14.01,2013-01-30 23:34:00,
2013-01-30 18:35:00,43.5,38.7,28.52,ENE,68,3.4,3.4,83,0.00,,---,0.37,VWS V14.01,2013-01-30 23:35:00,
2013-01-30 18:36:00,43.5,38.7,28.52,ESE,112,3.4,3.4,83,0.00,,---,0.37,VWS V14.01,2013-01-30 23:36:00,
2013-01-30 18:37:00,44.6,40.1,28.50,ENE,68,6.0,6.0,84,0.00,,---,0.37,VWS V14.01,2013-01-30 23:37:00,
2013-01-30 18:38:00,44.6,40.1,28.50,ESE,112,3.8,6.0,84,0.00,,---,0.37,VWS V14.01,2013-01-30 23:38:00,
2013-01-30 18:39:00,44.6,40.1,28.50,NE,45,2.5,3.8,84,0.00,,---,0.37,VWS V14.01,2013-01-30 23:39:00,
2013-01-30 18:40:00,44.6,40.1,28.50,NE,45,3.4,3.4,84,0.00,,---,0.37,VWS V14.01,2013-01-30 23:40:00,
2013-01-30 18:41:00,44.6,40.1,28.50,NNE,22,1.3,3.4,84,0.00,,---,0.37,VWS V14.01,2013-01-30 23:41:00,
2013-01-30 18:42:00,44.6,40.1,28.50,ENE,68,3.1,3.1,84,0.00,,---,0.37,VWS V14.01,2013-01-30 23:42:00,
2013-01-30 18:43:00,44.6,40.1,28.50,ENE,68,3.1,3.1,84,0.00,,---,0.37,VWS V14.01,2013-01-30 23:43:00,
2013-01-30 18:44:00,42.3,37.8,28.50,ENE,68,3.1,3.1,84,0.00,,---,0.37,VWS V14.01,2013-01-30 23:44:00,
2013-01-30 18:45:00,42.3,37.8,28.50,ENE,68,2.5,3.1,84,0.00,,---,0.37,VWS V14.01,2013-01-30 23:45:00,
2013-01-30 18:46:00,42.3,37.8,28.50,ESE,112,2.7,2.7,84,0.00,,---,0.37,VWS V14.01,2013-01-30 23:46:00,
2013-01-30 18:47:00,43.3,38.8,28.50,East,90,3.1,3.1,84,0.00,,---,0.37,VWS V14.01,2013-01-30 23:47:00,
2013-01-30 18:48:00,43.3,38.8,28.50,East,90,3.1,3.1,84,0.00,,---,0.37,VWS V14.01,2013-01-30 23:48:00,
2013-01-30 18:49:00,43.3,38.8,28.50,East,90,3.1,3.1,84,0.00,,---,0.37,VWS V14.01,2013-01-30 23:49:00,
2013-01-30 18:50:00,43.7,39.2,28.50,East,90,3.1,3.1,84,0.00,,---,0.37,VWS V14.01,2013-01-30 23:50:00,
2013-01-30 18:51:00,43.9,39.4,28.50,ESE,112,2.2,3.1,84,0.00,,---,0.37,VWS V14.01,2013-01-30 23:51:00,
2013-01-30 18:52:00,43.9,39.4,28.50,ENE,68,2.5,2.5,84,0.00,,---,0.37,VWS V14.01,2013-01-30 23:52:00,
2013-01-30 18:53:00,44.8,40.2,28.50,ENE,68,2.9,2.9,84,0.00,,---,0.37,VWS V14.01,2013-01-30 23:53:00,
2013-01-30 18:54:00,44.8,40.2,28.50,ENE,68,2.5,2.9,84,0.00,,---,0.37,VWS V14.01,2013-01-30 23:54:00,
2013-01-30 18:55:00,43.3,38.8,28.50,ESE,112,3.6,3.6,84,0.00,,---,0.37,VWS V14.01,2013-01-30 23:55:00,
2013-01-30 18:56:00,43.7,38.9,28.50,ENE,68,2.9,4.9,83,0.00,,---,0.37,VWS V14.01,2013-01-30 23:56:00,
2013-01-30 18:57:00,43.7,38.9,28.50,East,90,4.3,4.3,83,0.00,,---,0.37,VWS V14.01,2013-01-30 23:57:00,
2013-01-30 18:58:00,42.8,38.0,28.50,ESE,112,3.1,4.3,83,0.00,,---,0.37,VWS V14.01,2013-01-30 23:58:00,
2013-01-30 18:59:00,42.8,38.0,28.50,ENE,68,2.7,3.1,83,0.00,,---,0.37,VWS V14.01,2013-01-30 23:59:00,
2013-01-30 19:00:00,42.8,38.0,28.50,East,90,2.9,2.9,83,0.00,,---,0.37,VWS V14.01,2013-01-31 00:00:00,
2013-01-30 19:01:00,42.8,38.0,28.50,ENE,68,2.0,2.9,83,0.00,,---,0.37,VWS V14.01,2013-01-31 00:01:00,
2013-01-30 19:02:00,42.6,38.1,28.50,ENE,68,2.0,2.0,84,0.00,,---,0.37,VWS V14.01,2013-01-31 00:02:00,
2013-01-30 19:03:00,42.8,38.3,28.50,ENE,68,2.0,2.0,84,0.00,,---,0.37,VWS V14.01,2013-01-31 00:03:00,
2013-01-30 19:04:00,42.8,38.3,28.50,East,90,2.7,3.6,84,0.00,,---,0.37,VWS V14.01,2013-01-31 00:04:00,
2013-01-30 19:05:00,43.2,38.7,28.50,East,90,2.7,2.7,84,0.00,,---,0.37,VWS V14.01,2013-01-31 00:05:00,
2013-01-30 19:06:00,43.2,38.7,28.50,ENE,68,3.1,3.1,84,0.00,,---,0.37,VWS V14.01,2013-01-31 00:06:00,
2013-01-30 19:07:00,43.0,38.5,28.50,ENE,68,2.5,2.5,84,0.00,,---,0.37,VWS V14.01,2013-01-31 00:07:00,
2013-01-30 19:08:00,43.0,38.5,28.47,ENE,68,2.5,2.5,84,0.00,,---,0.37,VWS V14.01,2013-01-31 00:08:00,
2013-01-30 19:09:00,42.6,38.1,28.47,NE,45,2.7,3.6,84,0.00,,---,0.37,VWS V14.01,2013-01-31 00:09:00,
2013-01-30 19:10:00,42.6,38.1,28.47,NE,45,2.7,2.7,84,0.00,,---,0.37,VWS V14.01,2013-01-31 00:10:00,
2013-01-30 19:11:00,42.3,37.8,28.47,ENE,68,3.4,3.4,84,0.00,,---,0.37,VWS V14.01,2013-01-31 00:11:00,
2013-01-30 19:12:00,42.3,37.8,28.47,ENE,68,2.5,2.9,84,0.00,,---,0.37,VWS V14.01,2013-01-31 00:12:00,
2013-01-30 19:13:00,42.3,37.8,28.47,NE,45,2.9,2.9,84,0.00,,---,0.37,VWS V14.01,2013-01-31 00:13:00,
2013-01-30 19:14:00,41.7,37.2,28.47,ENE,68,3.4,3.4,84,0.00,,---,0.37,VWS V14.01,2013-01-31 00:14:00,
2013-01-30 19:15:00,41.7,37.2,28.47,NE,45,2.9,3.4,84,0.00,,---,0.37,VWS V14.01,2013-01-31 00:15:00,
2013-01-30 19:16:00,41.5,37.1,28.47,NE,45,2.7,2.9,84,0.00,,---,0.37,VWS V14.01,2013-01-31 00:16:00,
2013-01-30 19:17:00,41.5,37.1,28.47,NE,45,2.5,2.7,84,0.00,,---,0.37,VWS V14.01,2013-01-31 00:17:00,
2013-01-30 19:18:00,41.5,37.1,28.47,NE,45,2.5,2.5,84,0.00,,---,0.37,VWS V14.01,2013-01-31 00:18:00,
2013-01-30 19:19:00,41.5,37.1,28.47,NE,45,2.7,2.7,84,0.00,,---,0.37,VWS V14.01,2013-01-31 00:19:00,
2013-01-30 19:20:00,41.5,37.1,28.47,ENE,68,0.0,2.7,84,0.00,,---,0.37,VWS V14.01,2013-01-31 00:20:00,
2013-01-30 19:21:00,41.7,37.2,28.47,ENE,68,0.0,0.0,84,0.00,,---,0.37,VWS V14.01,2013-01-31 00:21:00,
2013-01-30 19:22:00,41.7,37.5,28.47,ENE,68,2.5,2.5,85,0.00,,---,0.37,VWS V14.01,2013-01-31 00:22:00,
2013-01-30 19:23:00,41.7,37.5,28.50,NNE,22,1.1,3.1,85,0.00,,---,0.37,VWS V14.01,2013-01-31 00:23:00,
2013-01-30 19:24:00,41.5,37.4,28.50,NNE,22,1.1,1.1,85,0.00,,---,0.37,VWS V14.01,2013-01-31 00:24:00,
2013-01-30 19:25:00,41.5,37.4,28.50,ENE,68,2.5,2.5,85,0.00,,---,0.37,VWS V14.01,2013-01-31 00:25:00,
2013-01-30 19:26:00,41.7,37.5,28.50,ENE,68,2.7,2.7,85,0.00,,---,0.37,VWS V14.01,2013-01-31 00:26:00,
2013-01-30 19:27:00,41.7,37.5,28.50,ENE,68,2.0,3.4,85,0.00,,---,0.37,VWS V14.01,2013-01-31 00:27:00,
2013-01-30 19:28:00,42.3,38.1,28.50,East,90,2.9,2.9,85,0.00,,---,0.37,VWS V14.01,2013-01-31 00:28:00,
2013-01-30 19:29:00,42.3,38.1,28.50,WNW,292,2.5,2.9,85,0.00,,---,0.37,VWS V14.01,2013-01-31 00:29:00,
2013-01-30 19:30:00,42.4,38.3,28.50,WNW,292,2.5,2.5,85,0.00,,---,0.37,VWS V14.01,2013-01-31 00:30:00,
2013-01-30 19:31:00,42.4,38.3,28.50,WNW,292,2.5,2.5,85,0.00,,---,0.37,VWS V14.01,2013-01-31 00:31:00,
2013-01-30 19:32:00,41.7,37.5,28.50,WNW,292,0.0,2.5,85,0.00,,---,0.37,VWS V14.01,2013-01-31 00:32:00,
2013-01-30 19:33:00,41.5,37.4,28.50,WNW,292,0.0,0.0,85,0.00,,---,0.37,VWS V14.01,2013-01-31 00:33:00,
2013-01-30 19:34:00,41.5,37.4,28.50,ENE,68,2.5,2.5,85,0.00,,---,0.37,VWS V14.01,2013-01-31 00:34:00,
2013-01-30 19:35:00,42.3,38.1,28.50,East,90,4.3,4.3,85,0.00,,---,0.37,VWS V14.01,2013-01-31 00:35:00,
2013-01-30 19:36:00,42.3,38.1,28.50,SSW,202,3.4,4.3,85,0.00,,---,0.37,VWS V14.01,2013-01-31 00:36:00,
2013-01-30 19:37:00,42.6,38.7,28.50,South,180,0.9,4.3,86,0.00,,---,0.37,VWS V14.01,2013-01-31 00:37:00,
2013-01-30 19:38:00,42.3,38.1,28.50,South,180,0.9,0.9,85,0.00,,---,0.37,VWS V14.01,2013-01-31 00:38:00,
2013-01-30 19:39:00,42.3,38.1,28.50,East,90,2.7,2.7,85,0.00,,---,0.37,VWS V14.01,2013-01-31 00:39:00,
2013-01-30 19:40:00,42.3,38.4,28.50,NNW,338,3.4,3.4,86,0.00,,---,0.37,VWS V14.01,2013-01-31 00:40:00,
2013-01-30 19:41:00,42.3,38.4,28.50,NNW,338,0.0,3.4,86,0.00,,---,0.37,VWS V14.01,2013-01-31 00:41:00,
2013-01-30 19:42:00,42.3,38.4,28.50,NE,45,1.1,1.1,86,0.00,,---,0.37,VWS V14.01,2013-01-31 00:42:00,
2013-01-30 19:43:00,42.6,38.7,28.50,NNE,22,1.1,2.5,86,0.00,,---,0.37,VWS V14.01,2013-01-31 00:43:00,
2013-01-30 19:44:00,44.6,40.4,28.50,NNE,22,1.1,1.1,85,0.00,,---,0.37,VWS V14.01,2013-01-31 00:44:00,
2013-01-30 19:45:00,44.6,40.4,28.50,West,270,3.1,3.1,85,0.00,,---,0.37,VWS V14.01,2013-01-31 00:45:00,
2013-01-30 19:46:00,44.2,40.3,28.50,WNW,292,1.6,3.1,86,0.00,,---,0.37,VWS V14.01,2013-01-31 00:46:00,
2013-01-30 19:47:00,44.2,40.3,28.50,WNW,292,0.0,0.0,86,0.00,,---,0.37,VWS V14.01,2013-01-31 00:47:00,
2013-01-30 19:48:00,45.0,41.0,28.50,WNW,292,0.0,0.0,86,0.00,,---,0.37,VWS V14.01,2013-01-31 00:48:00,
2013-01-30 19:49:00,45.1,41.2,28.50,WNW,292,0.0,0.0,86,0.00,,---,0.37,VWS V14.01,2013-01-31 00:49:00,
2013-01-30 19:50:00,45.1,41.2,28.50,WNW,292,0.0,0.0,86,0.00,,---,0.37,VWS V14.01,2013-01-31 00:50:00,
2013-01-30 19:51:00,45.1,41.2,28.50,WNW,292,0.0,0.0,86,0.00,,---,0.37,VWS V14.01,2013-01-31 00:51:00,
2013-01-30 19:52:00,45.1,41.2,28.50,WNW,292,0.0,0.0,86,0.00,,---,0.37,VWS V14.01,2013-01-31 00:52:00,
2013-01-30 19:53:00,45.9,41.9,28.52,NNE,22,1.1,1.1,86,0.00,,---,0.37,VWS V14.01,2013-01-31 00:53:00,
2013-01-30 19:54:00,46.0,42.1,28.52,SE,135,2.5,2.5,86,0.00,,---,0.37,VWS V14.01,2013-01-31 00:54:00,
2013-01-30 19:55:00,46.0,42.1,28.52,East,90,2.5,2.5,86,0.00,,---,0.37,VWS V14.01,2013-01-31 00:55:00,
2013-01-30 19:56:00,46.0,42.1,28.52,ENE,68,0.9,2.5,86,0.00,,---,0.37,VWS V14.01,2013-01-31 00:56:00,
2013-01-30 19:57:00,45.1,41.2,28.52,ENE,68,1.6,1.6,86,0.00,,---,0.37,VWS V14.01,2013-01-31 00:57:00,
2013-01-30 19:58:00,44.1,40.2,28.52,ENE,68,0.0,2.9,86,0.04,,---,0.41,VWS V14.01,2013-01-31 00:58:00,
2013-01-30 19:59:00,44.1,40.2,28.52,SSW,202,2.5,2.5,86,0.04,,---,0.41,VWS V14.01,2013-01-31 00:59:00,
2013-01-30 20:00:00,45.9,41.9,28.52,WSW,248,2.2,2.5,86,0.04,,---,0.41,VWS V14.01,2013-01-31 01:00:00,
2013-01-30 20:01:00,45.9,41.9,28.52,WNW,292,0.0,2.2,86,0.04,,---,0.41,VWS V14.01,2013-01-31 01:01:00,
2013-01-30 20:02:00,45.9,41.9,28.52,NE,45,0.9,2.7,86,0.04,,---,0.41,VWS V14.01,2013-01-31 01:02:00,
2013-01-30 20:03:00,45.9,41.9,28.52,NE,45,0.9,0.9,86,0.04,,---,0.41,VWS V14.01,2013-01-31 01:03:00,
2013-01-30 20:04:00,43.7,39.8,28.52,NE,45,2.5,2.5,86,0.04,,---,0.41,VWS V14.01,2013-01-31 01:04:00,
2013-01-30 20:05:00,43.3,39.1,28.52,NE,45,2.5,2.5,85,0.04,,---,0.41,VWS V14.01,2013-01-31 01:05:00,
2013-01-30 20:06:00,43.3,39.1,28.52,ENE,68,2.9,2.9,85,0.04,,---,0.41,VWS V14.01,2013-01-31 01:06:00,
2013-01-30 20:07:00,42.8,38.6,28.52,NNE,22,2.9,2.9,85,0.04,,---,0.41,VWS V14.01,2013-01-31 01:07:00,
2013-01-30 20:08:00,42.8,38.6,28.50,ENE,68,2.9,2.9,85,0.04,,---,0.41,VWS V14.01,2013-01-31 01:08:00,
2013-01-30 20:09:00,42.6,38.4,28.50,NE,45,1.3,2.9,85,0.04,,---,0.41,VWS V14.01,2013-01-31 01:09:00,
2013-01-30 20:10:00,42.6,38.4,28.50,WSW,248,0.9,1.3,85,0.04,,---,0.41,VWS V14.01,2013-01-31 01:10:00,
2013-01-30 20:11:00,42.6,38.4,28.50,WSW,248,0.0,0.9,85,0.04,,---,0.41,VWS V14.01,2013-01-31 01:11:00,
2013-01-30 20:12:00,43.7,39.8,28.50,ENE,68,1.6,1.6,86,0.04,,---,0.41,VWS V14.01,2013-01-31 01:12:00,
2013-01-30 20:13:00,43.7,39.8,28.50,ENE,68,3.4,3.4,86,0.04,,---,0.41,VWS V14.01,2013-01-31 01:13:00,
2013-01-30 20:14:00,43.3,39.4,28.50,ENE,68,3.4,3.4,86,0.04,,---,0.41,VWS V14.01,2013-01-31 01:14:00,
2013-01-30 20:15:00,43.3,39.4,28.50,NNE,22,2.9,3.4,86,0.04,,---,0.41,VWS V14.01,2013-01-31 01:15:00,
2013-01-30 20:16:00,42.4,38.6,28.50,NE,45,1.1,2.9,86,0.04,,---,0.41,VWS V14.01,2013-01-31 01:16:00,
2013-01-30 20:17:00,42.4,38.6,28.50,NNE,22,1.6,1.6,86,0.04,,---,0.41,VWS V14.01,2013-01-31 01:17:00,
2013-01-30 20:18:00,42.4,38.3,28.50,NNE,22,2.5,2.5,85,0.04,,---,0.41,VWS V14.01,2013-01-31 01:18:00,
2013-01-30 20:19:00,42.4,38.3,28.50,NNE,22,2.9,2.9,85,0.04,,---,0.41,VWS V14.01,2013-01-31 01:19:00,
2013-01-30 20:20:00,42.4,38.3,28.50,NNE,22,2.5,2.9,85,0.04,,---,0.41,VWS V14.01,2013-01-31 01:20:00,
2013-01-30 20:21:00,42.1,37.9,28.50,NNE,22,2.5,2.5,85,0.04,,---,0.41,VWS V14.01,2013-01-31 01:21:00,
2013-01-30 20:22:00,42.1,37.9,28.50,SW,225,3.6,3.6,85,0.04,,---,0.41,VWS V14.01,2013-01-31 01:22:00,
2013-01-30 20:23:00,42.6,38.7,28.50,WSW,248,1.3,3.6,86,0.04,,---,0.41,VWS V14.01,2013-01-31 01:23:00,
2013-01-30 20:24:00,42.6,38.7,28.50,NNW,338,2.5,2.5,86,0.04,,---,0.41,VWS V14.01,2013-01-31 01:24:00,
2013-01-30 20:25:00,44.1,40.5,28.50,ENE,68,3.4,3.4,87,0.04,,---,0.41,VWS V14.01,2013-01-31 01:25:00,
2013-01-30 20:26:00,44.1,40.5,28.50,ENE,68,3.4,3.4,87,0.04,,---,0.41,VWS V14.01,2013-01-31 01:26:00,
2013-01-30 20:27:00,43.7,40.1,28.50,ENE,68,2.7,3.4,87,0.04,,---,0.41,VWS V14.01,2013-01-31 01:27:00,
2013-01-30 20:28:00,43.0,39.4,28.50,ENE,68,2.7,2.7,87,0.04,,---,0.41,VWS V14.01,2013-01-31 01:28:00,
2013-01-30 20:29:00,43.0,39.4,28.50,ENE,68,2.7,2.7,87,0.04,,---,0.41,VWS V14.01,2013-01-31 01:29:00,
2013-01-30 20:30:00,42.8,39.2,28.50,ENE,68,1.1,2.7,87,0.04,,---,0.41,VWS V14.01,2013-01-31 01:30:00,
2013-01-30 20:31:00,42.8,39.2,28.50,NNE,22,0.9,1.1,87,0.04,,---,0.41,VWS V14.01,2013-01-31 01:31:00,
2013-01-30 20:32:00,42.6,39.0,28.50,NNE,22,0.0,0.9,87,0.04,,---,0.41,VWS V14.01,2013-01-31 01:32:00,
2013-01-30 20:33:00,43.2,39.3,28.50,ENE,68,3.1,3.1,86,0.04,,---,0.41,VWS V14.01,2013-01-31 01:33:00,
2013-01-30 20:34:00,43.2,39.3,28.50,ESE,112,2.7,3.1,86,0.04,,---,0.41,VWS V14.01,2013-01-31 01:34:00,
2013-01-30 20:35:00,43.2,39.3,28.50,East,90,2.7,2.7,86,0.04,,---,0.41,VWS V14.01,2013-01-31 01:35:00,
2013-01-30 20:36:00,43.7,40.1,28.50,East,90,2.7,2.7,87,0.04,,---,0.41,VWS V14.01,2013-01-31 01:36:00,
2013-01-30 20:37:00,45.5,41.9,28.50,South,180,1.3,1.3,87,0.04,,---,0.41,VWS V14.01,2013-01-31 01:37:00,
2013-01-30 20:38:00,45.5,41.9,28.50,East,90,2.9,2.9,87,0.04,,---,0.41,VWS V14.01,2013-01-31 01:38:00,
2013-01-30 20:39:00,44.2,40.6,28.50,NE,45,0.0,2.9,87,0.04,,---,0.41,VWS V14.01,2013-01-31 01:39:00,
2013-01-30 20:40:00,44.2,40.6,28.50,NE,45,0.0,0.0,87,0.04,,---,0.41,VWS V14.01,2013-01-31 01:40:00,
2013-01-30 20:41:00,43.0,39.4,28.50,NNE,22,2.7,2.7,87,0.04,,---,0.41,VWS V14.01,2013-01-31 01:41:00,
2013-01-30 20:42:00,44.1,40.5,28.50,ENE,68,2.7,2.7,87,0.04,,---,0.41,VWS V14.01,2013-01-31 01:42:00,
2013-01-30 20:43:00,44.1,40.5,28.50,NE,45,2.5,3.1,87,0.04,,---,0.41,VWS V14.01,2013-01-31 01:43:00,
2013-01-30 20:44:00,43.7,40.1,28.50,ENE,68,2.7,2.7,87,0.04,,---,0.41,VWS V14.01,2013-01-31 01:44:00,
2013-01-30 20:45:00,43.7,40.1,28.50,ESE,112,3.8,3.8,87,0.04,,---,0.41,VWS V14.01,2013-01-31 01:45:00,
2013-01-30 20:46:00,44.2,40.6,28.50,ENE,68,3.1,3.8,87,0.04,,---,0.41,VWS V14.01,2013-01-31 01:46:00,
2013-01-30 20:47:00,44.1,40.5,28.50,ENE,68,2.7,3.1,87,0.04,,---,0.41,VWS V14.01,2013-01-31 01:47:00,
2013-01-30 20:48:00,44.1,40.5,28.50,ENE,68,2.7,2.7,87,0.04,,---,0.41,VWS V14.01,2013-01-31 01:48:00,
2013-01-30 20:49:00,44.1,40.5,28.50,ENE,68,2.7,2.7,87,0.04,,---,0.41,VWS V14.01,2013-01-31 01:49:00,
2013-01-30 20:50:00,44.1,40.5,28.50,East,90,2.7,2.7,87,0.04,,---,0.41,VWS V14.01,2013-01-31 01:50:00,
2013-01-30 20:51:00,45.3,41.7,28.50,East,90,2.7,2.7,87,0.04,,---,0.41,VWS V14.01,2013-01-31 01:51:00,
2013-01-30 20:52:00,45.3,41.7,28.50,ESE,112,3.6,3.6,87,0.04,,---,0.41,VWS V14.01,2013-01-31 01:52:00,
2013-01-30 20:53:00,45.7,42.0,28.47,ESE,112,2.7,3.6,87,0.04,,---,0.41,VWS V14.01,2013-01-31 01:53:00,
2013-01-30 20:54:00,45.9,42.2,28.47,ENE,68,5.8,5.8,87,0.04,,---,0.41,VWS V14.01,2013-01-31 01:54:00,
2013-01-30 20:55:00,45.9,42.2,28.47,ENE,68,4.9,5.8,87,0.04,,---,0.41,VWS V14.01,2013-01-31 01:55:00,
2013-01-30 20:56:00,45.9,42.2,28.47,East,90,3.6,4.9,87,0.04,,---,0.41,VWS V14.01,2013-01-31 01:56:00,
2013-01-30 20:57:00,46.0,42.4,28.47,ENE,68,2.2,3.6,87,0.04,,---,0.41,VWS V14.01,2013-01-31 01:57:00,
2013-01-30 20:58:00,45.5,41.9,28.47,ENE,68,2.2,2.2,87,0.04,,---,0.41,VWS V14.01,2013-01-31 01:58:00,
2013-01-30 20:59:00,45.5,41.9,28.47,East,90,3.1,3.1,87,0.00,,---,0.41,VWS V14.01,2013-01-31 01:59:00,
2013-01-30 21:00:00,45.1,41.5,28.47,ENE,68,2.2,3.1,87,0.00,,---,0.41,VWS V14.01,2013-01-31 02:00:00,
2013-01-30 21:01:00,45.1,41.5,28.47,ENE,68,2.0,2.2,87,0.00,,---,0.41,VWS V14.01,2013-01-31 02:01:00,
2013-01-30 21:02:00,43.9,40.3,28.47,ENE,68,0.0,2.0,87,0.00,,---,0.41,VWS V14.01,2013-01-31 02:02:00,
2013-01-30 21:03:00,43.5,39.6,28.47,ENE,68,1.6,1.6,86,0.00,,---,0.41,VWS V14.01,2013-01-31 02:03:00,
2013-01-30 21:04:00,43.5,39.6,28.47,ENE,68,3.6,3.6,86,0.00,,---,0.41,VWS V14.01,2013-01-31 02:04:00,
2013-01-30 21:05:00,43.5,39.6,28.47,ENE,68,3.6,3.6,86,0.00,,---,0.41,VWS V14.01,2013-01-31 02:05:00,
2013-01-30 21:06:00,43.5,39.6,28.47,ENE,68,2.9,3.6,86,0.00,,---,0.41,VWS V14.01,2013-01-31 02:06:00,
2013-01-30 21:07:00,43.7,39.8,28.47,ENE,68,3.1,3.1,86,0.00,,---,0.41,VWS V14.01,2013-01-31 02:07:00,
2013-01-30 21:08:00,43.7,39.8,28.47,ENE,68,2.5,3.1,86,0.00,,---,0.41,VWS V14.01,2013-01-31 02:08:00,
2013-01-30 21:09:00,43.7,39.8,28.47,ENE,68,3.6,3.6,86,0.00,,---,0.41,VWS V14.01,2013-01-31 02:09:00,
2013-01-30 21:10:00,43.0,39.1,28.50,ENE,68,2.7,2.7,86,0.00,,---,0.41,VWS V14.01,2013-01-31 02:10:00,
2013-01-30 21:11:00,43.0,39.1,28.50,ENE,68,2.5,2.7,86,0.00,,---,0.41,VWS V14.01,2013-01-31 02:11:00,
2013-01-30 21:12:00,43.0,39.1,28.50,ENE,68,0.0,2.5,86,0.00,,---,0.41,VWS V14.01,2013-01-31 02:12:00,
2013-01-30 21:13:00,42.6,38.7,28.50,ENE,68,0.0,0.0,86,0.00,,---,0.41,VWS V14.01,2013-01-31 02:13:00,
2013-01-30 21:14:00,42.4,38.6,28.50,ENE,68,0.0,0.0,86,0.00,,---,0.41,VWS V14.01,2013-01-31 02:14:00,
2013-01-30 21:15:00,42.6,38.7,28.50,ENE,68,0.0,0.0,86,0.00,,---,0.41,VWS V14.01,2013-01-31 02:15:00,
2013-01-30 21:16:00,42.6,38.7,28.50,ENE,68,0.0,0.0,86,0.00,,---,0.41,VWS V14.01,2013-01-31 02:16:00,
2013-01-30 21:17:00,42.6,38.7,28.50,ESE,112,2.5,2.5,86,0.00,,---,0.41,VWS V14.01,2013-01-31 02:17:00,
2013-01-30 21:18:00,43.0,39.1,28.50,ESE,112,2.9,2.9,86,0.00,,---,0.41,VWS V14.01,2013-01-31 02:18:00,
2013-01-30 21:19:00,42.8,38.9,28.50,East,90,2.7,2.9,86,0.00,,---,0.41,VWS V14.01,2013-01-31 02:19:00,
2013-01-30 21:20:00,42.8,38.9,28.50,East,90,2.5,2.5,86,0.00,,---,0.41,VWS V14.01,2013-01-31 02:20:00,
2013-01-30 21:21:00,42.8,38.9,28.50,East,90,2.5,2.5,86,0.00,,---,0.41,VWS V14.01,2013-01-31 02:21:00,
2013-01-30 21:22:00,42.8,38.9,28.50,ENE,68,2.5,2.5,86,0.00,,---,0.41,VWS V14.01,2013-01-31 02:22:00,
2013-01-30 21:23:00,42.4,38.6,28.47,NE,45,0.0,2.5,86,0.00,,---,0.41,VWS V14.01,2013-01-31 02:23:00,
2013-01-30 21:24:00,42.4,38.6,28.47,NE,45,0.0,0.0,86,0.00,,---,0.41,VWS V14.01,2013-01-31 02:24:00,
2013-01-30 21:25:00,42.1,38.2,28.47,NE,45,0.0,0.0,86,0.00,,---,0.41,VWS V14.01,2013-01-31 02:25:00,
2013-01-30 21:26:00,42.1,38.2,28.47,NE,45,0.0,0.0,86,0.00,,---,0.41,VWS V14.01,2013-01-31 02:26:00,
2013-01-30 21:27:00,41.9,38.0,28.47,ENE,68,2.7,2.7,86,0.00,,---,0.41,VWS V14.01,2013-01-31 02:27:00,
2013-01-30 21:28:00,41.9,38.0,28.47,ENE,68,2.7,2.7,86,0.00,,---,0.41,VWS V14.01,2013-01-31 02:28:00,
2013-01-30 21:29:00,42.6,38.7,28.47,ENE,68,2.7,2.7,86,0.00,,---,0.41,VWS V14.01,2013-01-31 02:29:00,
2013-01-30 21:30:00,43.5,39.6,28.47,ENE,68,3.1,3.1,86,0.00,,---,0.41,VWS V14.01,2013-01-31 02:30:00,
2013-01-30 21:31:00,43.5,39.6,28.47,SSW,202,2.0,3.1,86,0.00,,---,0.41,VWS V14.01,2013-01-31 02:31:00,
2013-01-30 21:32:00,44.4,40.8,28.47,SSW,202,0.0,2.0,87,0.00,,---,0.41,VWS V14.01,2013-01-31 02:32:00,
2013-01-30 21:33:00,44.4,40.8,28.47,NE,45,3.4,3.4,87,0.00,,---,0.41,VWS V14.01,2013-01-31 02:33:00,
2013-01-30 21:34:00,43.3,39.7,28.47,NE,45,3.4,3.4,87,0.00,,---,0.41,VWS V14.01,2013-01-31 02:34:00,
2013-01-30 21:35:00,43.5,39.9,28.47,ESE,112,2.5,2.5,87,0.00,,---,0.41,VWS V14.01,2013-01-31 02:35:00,
2013-01-30 21:36:00,43.5,39.9,28.47,ESE,112,1.6,2.5,87,0.00,,---,0.41,VWS V14.01,2013-01-31 02:36:00,
2013-01-30 21:37:00,44.6,40.7,28.44,SSW,202,0.0,1.6,86,0.00,,---,0.41,VWS V14.01,2013-01-31 02:37:00,
2013-01-30 21:38:00,44.6,40.7,28.44,WSW,248,0.0,0.0,86,0.00,,---,0.41,VWS V14.01,2013-01-31 02:38:00,
2013-01-30 21:39:00,43.9,40.3,28.44,NNW,338,1.6,1.6,87,0.00,,---,0.41,VWS V14.01,2013-01-31 02:39:00,
2013-01-30 21:40:00,43.3,39.7,28.44,NNW,338,2.2,2.2,87,0.00,,---,0.41,VWS V14.01,2013-01-31 02:40:00,
2013-01-30 21:41:00,43.3,39.7,28.44,NNW,338,0.0,2.2,87,0.00,,---,0.41,VWS V14.01,2013-01-31 02:41:00,
2013-01-30 21:42:00,42.4,38.8,28.44,NNW,338,0.0,0.0,87,0.00,,---,0.41,VWS V14.01,2013-01-31 02:42:00,
2013-01-30 21:43:00,42.4,38.8,28.44,NNW,338,0.0,0.0,87,0.00,,---,0.41,VWS V14.01,2013-01-31 02:43:00,
2013-01-30 21:44:00,42.1,38.5,28.44,NNW,338,0.0,0.0,87,0.00,,---,0.41,VWS V14.01,2013-01-31 02:44:00,
2013-01-30 21:45:00,42.1,38.5,28.44,NNW,338,0.0,0.0,87,0.00,,---,0.41,VWS V14.01,2013-01-31 02:45:00,
2013-01-30 21:46:00,42.1,38.5,28.44,NNW,338,0.0,0.0,87,0.00,,---,0.41,VWS V14.01,2013-01-31 02:46:00,
2013-01-30 21:47:00,42.1,38.5,28.44,NNW,338,0.0,0.0,87,0.00,,---,0.41,VWS V14.01,2013-01-31 02:47:00,
2013-01-30 21:48:00,42.3,38.7,28.44,NNW,338,0.0,0.0,87,0.00,,---,0.41,VWS V14.01,2013-01-31 02:48:00,
2013-01-30 21:49:00,42.3,38.7,28.44,NNW,338,0.0,0.0,87,0.00,,---,0.41,VWS V14.01,2013-01-31 02:49:00,
2013-01-30 21:50:00,42.1,38.5,28.44,NNW,338,0.0,0.0,87,0.00,,---,0.41,VWS V14.01,2013-01-31 02:50:00,
2013-01-30 21:51:00,42.4,38.6,28.44,NNW,338,0.0,0.0,86,0.00,,---,0.41,VWS V14.01,2013-01-31 02:51:00,
2013-01-30 21:52:00,42.4,38.6,28.44,ENE,68,2.7,2.7,86,0.00,,---,0.41,VWS V14.01,2013-01-31 02:52:00,
2013-01-30 21:53:00,41.9,38.0,28.44,ENE,68,1.3,2.7,86,0.00,,---,0.41,VWS V14.01,2013-01-31 02:53:00,
2013-01-30 21:54:00,41.9,38.0,28.44,ENE,68,1.6,1.6,86,0.00,,---,0.41,VWS V14.01,2013-01-31 02:54:00,
2013-01-30 21:55:00,42.3,38.4,28.44,ENE,68,0.0,0.0,86,0.00,,---,0.41,VWS V14.01,2013-01-31 02:55:00,
2013-01-30 21:56:00,42.1,38.5,28.44,ENE,68,0.0,0.0,87,0.00,,---,0.41,VWS V14.01,2013-01-31 02:56:00,
2013-01-30 21:57:00,42.1,38.5,28.44,ENE,68,0.0,0.0,87,0.00,,---,0.41,VWS V14.01,2013-01-31 02:57:00,
2013-01-30 21:58:00,41.7,38.1,28.44,NNW,338,0.9,0.9,87,0.00,,---,0.41,VWS V14.01,2013-01-31 02:58:00,
2013-01-30 21:59:00,41.7,38.1,28.44,NNW,338,0.0,1.6,87,0.00,,---,0.41,VWS V14.01,2013-01-31 02:59:00,
2013-01-30 22:00:00,41.4,37.8,28.44,NNW,338,0.0,0.0,87,0.00,,---,0.41,VWS V14.01,2013-01-31 03:00:00,
2013-01-30 22:01:00,41.4,37.8,28.44,NNW,338,0.0,0.0,87,0.00,,---,0.41,VWS V14.01,2013-01-31 03:01:00,
2013-01-30 22:02:00,41.4,37.8,28.44,NNW,338,0.0,0.0,87,0.00,,---,0.41,VWS V14.01,2013-01-31 03:02:00,
2013-01-30 22:03:00,41.5,38.0,28.44,NNW,338,0.0,0.0,87,0.00,,---,0.41,VWS V14.01,2013-01-31 03:03:00,
2013-01-30 22:04:00,41.5,38.0,28.44,NNW,338,0.0,0.0,87,0.00,,---,0.41,VWS V14.01,2013-01-31 03:04:00,
2013-01-30 22:05:00,41.0,37.4,28.44,NNW,338,0.0,0.0,87,0.00,,---,0.41,VWS V14.01,2013-01-31 03:05:00,
2013-01-30 22:06:00,41.0,37.4,28.44,NNW,338,0.0,0.0,87,0.00,,---,0.41,VWS V14.01,2013-01-31 03:06:00,
2013-01-30 22:07:00,41.2,37.6,28.44,NNW,338,0.0,0.0,87,0.00,,---,0.41,VWS V14.01,2013-01-31 03:07:00,
2013-01-30 22:08:00,41.2,37.6,28.47,NNW,338,0.0,0.0,87,0.00,,---,0.41,VWS V14.01,2013-01-31 03:08:00,
2013-01-30 22:09:00,41.0,37.4,28.47,NNW,338,0.0,0.0,87,0.00,,---,0.41,VWS V14.01,2013-01-31 03:09:00,
2013-01-30 22:10:00,41.2,37.6,28.47,ENE,68,3.1,3.1,87,0.00,,---,0.41,VWS V14.01,2013-01-31 03:10:00,
2013-01-30 22:11:00,41.2,37.6,28.47,NE,45,2.0,3.1,87,0.00,,---,0.41,VWS V14.01,2013-01-31 03:11:00,
2013-01-30 22:12:00,41.2,37.6,28.47,NNE,22,3.4,3.4,87,0.00,,---,0.41,VWS V14.01,2013-01-31 03:12:00,
2013-01-30 22:13:00,41.2,37.6,28.47,NNE,22,2.5,3.4,87,0.00,,---,0.41,VWS V14.01,2013-01-31 03:13:00,
2013-01-30 22:14:00,41.4,37.8,28.47,NNE,22,2.2,2.5,87,0.00,,---,0.41,VWS V14.01,2013-01-31 03:14:00,
2013-01-30 22:15:00,41.5,38.0,28.47,NNE,22,2.7,2.7,87,0.00,,---,0.41,VWS V14.01,2013-01-31 03:15:00,
2013-01-30 22:16:00,41.5,38.0,28.47,NNE,22,0.0,2.7,87,0.00,,---,0.41,VWS V14.01,2013-01-31 03:16:00,
2013-01-30 22:17:00,41.5,38.3,28.47,NNE,22,2.0,2.0,88,0.00,,---,0.41,VWS V14.01,2013-01-31 03:17:00,
2013-01-30 22:18:00,41.5,38.3,28.47,NNE,22,1.6,2.0,88,0.00,,---,0.41,VWS V14.01,2013-01-31 03:18:00,
2013-01-30 22:19:00,41.5,38.3,28.47,NNE,22,1.6,1.6,88,0.00,,---,0.41,VWS V14.01,2013-01-31 03:19:00,
2013-01-30 22:20:00,41.7,38.4,28.47,NE,45,3.4,3.4,88,0.00,,---,0.41,VWS V14.01,2013-01-31 03:20:00,
2013-01-30 22:21:00,41.7,38.4,28.47,NE,45,3.4,3.4,88,0.00,,---,0.41,VWS V14.01,2013-01-31 03:21:00,
2013-01-30 22:22:00,41.5,38.3,28.47,East,90,2.5,3.4,88,0.00,,---,0.41,VWS V14.01,2013-01-31 03:22:00,
2013-01-30 22:23:00,41.5,38.3,28.44,ESE,112,2.0,2.5,88,0.00,,---,0.41,VWS V14.01,2013-01-31 03:23:00,
2013-01-30 22:24:00,41.5,38.3,28.44,East,90,1.3,2.0,88,0.00,,---,0.41,VWS V14.01,2013-01-31 03:24:00,
2013-01-30 22:25:00,41.9,38.6,28.44,ENE,68,2.9,2.9,88,0.00,,---,0.41,VWS V14.01,2013-01-31 03:25:00,
2013-01-30 22:26:00,41.9,38.6,28.44,NE,45,2.7,2.9,88,0.00,,---,0.41,VWS V14.01,2013-01-31 03:26:00,
2013-01-30 22:27:00,42.1,39.1,28.44,NE,45,0.9,2.7,89,0.00,,---,0.41,VWS V14.01,2013-01-31 03:27:00,
2013-01-30 22:28:00,42.1,39.1,28.44,ENE,68,1.6,2.7,89,0.00,,---,0.41,VWS V14.01,2013-01-31 03:28:00,
2013-01-30 22:29:00,42.1,39.1,28.44,NE,45,2.7,2.7,89,0.00,,---,0.41,VWS V14.01,2013-01-31 03:29:00,
2013-01-30 22:30:00,42.4,39.4,28.44,ENE,68,3.1,3.1,89,0.00,,---,0.41,VWS V14.01,2013-01-31 03:30:00,
2013-01-30 22:31:00,42.4,39.4,28.44,NE,45,3.8,3.8,89,0.00,,---,0.41,VWS V14.01,2013-01-31 03:31:00,
2013-01-30 22:32:00,42.3,39.3,28.44,East,90,2.5,3.8,89,0.00,,---,0.41,VWS V14.01,2013-01-31 03:32:00,
2013-01-30 22:33:00,42.3,39.3,28.44,NE,45,2.7,2.7,89,0.00,,---,0.41,VWS V14.01,2013-01-31 03:33:00,
2013-01-30 22:34:00,42.3,39.3,28.44,NE,45,0.0,2.7,89,0.00,,---,0.41,VWS V14.01,2013-01-31 03:34:00,
2013-01-30 22:35:00,42.3,39.5,28.44,ENE,68,2.2,2.2,90,0.00,,---,0.41,VWS V14.01,2013-01-31 03:35:00,
2013-01-30 22:36:00,42.3,39.5,28.44,ENE,68,2.2,2.2,90,0.00,,---,0.41,VWS V14.01,2013-01-31 03:36:00,
2013-01-30 22:37:00,42.3,39.5,28.44,NE,45,1.1,2.5,90,0.00,,---,0.41,VWS V14.01,2013-01-31 03:37:00,
2013-01-30 22:38:00,42.3,39.5,28.44,NE,45,1.1,1.1,90,0.00,,---,0.41,VWS V14.01,2013-01-31 03:38:00,
2013-01-30 22:39:00,42.3,39.5,28.44,NE,45,2.0,2.2,90,0.00,,---,0.41,VWS V14.01,2013-01-31 03:39:00,
2013-01-30 22:40:00,42.3,39.5,28.44,NE,45,1.3,2.0,90,0.00,,---,0.41,VWS V14.01,2013-01-31 03:40:00,
2013-01-30 22:41:00,42.3,39.5,28.44,NE,45,1.3,2.0,90,0.00,,---,0.41,VWS V14.01,2013-01-31 03:41:00,
2013-01-30 22:42:00,42.3,39.5,28.44,NE,45,1.1,1.3,90,0.00,,---,0.41,VWS V14.01,2013-01-31 03:42:00,
2013-01-30 22:43:00,42.1,39.4,28.44,ENE,68,2.5,2.5,90,0.00,,---,0.41,VWS V14.01,2013-01-31 03:43:00,
2013-01-30 22:44:00,42.1,39.4,28.44,ENE,68,2.5,2.5,90,0.00,,---,0.41,VWS V14.01,2013-01-31 03:44:00,
2013-01-30 22:45:00,42.1,39.4,28.44,NE,45,2.0,2.0,90,0.00,,---,0.41,VWS V14.01,2013-01-31 03:45:00,
2013-01-30 22:46:00,42.1,39.4,28.44,NE,45,0.0,2.0,90,0.00,,---,0.41,VWS V14.01,2013-01-31 03:46:00,
2013-01-30 22:47:00,42.1,39.4,28.44,NE,45,0.0,0.0,90,0.00,,---,0.41,VWS V14.01,2013-01-31 03:47:00,
2013-01-30 22:48:00,41.9,39.2,28.44,NE,45,0.0,0.0,90,0.00,,---,0.41,VWS V14.01,2013-01-31 03:48:00,
2013-01-30 22:49:00,41.9,39.2,28.44,NE,45,2.0,2.0,90,0.00,,---,0.41,VWS V14.01,2013-01-31 03:49:00,
2013-01-30 22:50:00,41.5,38.8,28.44,NE,45,0.0,2.0,90,0.00,,---,0.41,VWS V14.01,2013-01-31 03:50:00,
2013-01-30 22:51:00,41.0,38.3,28.44,NE,45,0.0,0.0,90,0.00,,---,0.41,VWS V14.01,2013-01-31 03:51:00,
2013-01-30 22:52:00,41.0,38.3,28.44,NE,45,0.0,0.0,90,0.00,,---,0.41,VWS V14.01,2013-01-31 03:52:00,
2013-01-30 22:53:00,41.0,38.3,28.44,NE,45,0.0,0.0,90,0.00,,---,0.41,VWS V14.01,2013-01-31 03:53:00,
2013-01-30 22:54:00,41.0,38.3,28.44,NE,45,1.3,1.3,90,0.00,,---,0.41,VWS V14.01,2013-01-31 03:54:00,
2013-01-30 22:55:00,41.0,38.3,28.44,NE,45,1.6,1.6,90,0.00,,---,0.41,VWS V14.01,2013-01-31 03:55:00,
2013-01-30 22:56:00,40.6,37.9,28.44,NE,45,1.6,1.6,90,0.00,,---,0.41,VWS V14.01,2013-01-31 03:56:00,
2013-01-30 22:57:00,40.6,37.9,28.44,ENE,68,2.5,2.5,90,0.00,,---,0.41,VWS V14.01,2013-01-31 03:57:00,
2013-01-30 22:58:00,40.6,37.9,28.44,ENE,68,2.5,2.5,90,0.00,,---,0.41,VWS V14.01,2013-01-31 03:58:00,
2013-01-30 22:59:00,40.8,38.1,28.44,ENE,68,0.0,2.5,90,0.00,,---,0.41,VWS V14.01,2013-01-31 03:59:00,
2013-01-30 23:00:00,40.8,38.1,28.44,ENE,68,0.0,0.0,90,0.00,,---,0.41,VWS V14.01,2013-01-31 04:00:00,
2013-01-30 23:01:00,40.8,38.1,28.44,ENE,68,2.5,2.5,90,0.00,,---,0.41,VWS V14.01,2013-01-31 04:01:00,
2013-01-30 23:02:00,41.2,38.5,28.44,NE,45,2.9,2.9,90,0.00,,---,0.41,VWS V14.01,2013-01-31 04:02:00,
2013-01-30 23:03:00,41.2,38.5,28.44,NE,45,2.9,2.9,90,0.00,,---,0.41,VWS V14.01,2013-01-31 04:03:00,
2013-01-30 23:04:00,41.4,38.7,28.44,NE,45,3.6,3.6,90,0.00,,---,0.41,VWS V14.01,2013-01-31 04:04:00,
2013-01-30 23:05:00,41.7,39.0,28.44,ENE,68,2.0,3.6,90,0.00,,---,0.41,VWS V14.01,2013-01-31 04:05:00,
2013-01-30 23:06:00,41.7,39.0,28.44,SSE,158,1.3,3.6,90,0.00,,---,0.41,VWS V14.01,2013-01-31 04:06:00,
2013-01-30 23:07:00,41.4,38.7,28.44,ESE,112,2.7,2.7,90,0.00,,---,0.41,VWS V14.01,2013-01-31 04:07:00,
2013-01-30 23:08:00,41.4,38.7,28.41,ESE,112,2.7,2.7,90,0.00,,---,0.41,VWS V14.01,2013-01-31 04:08:00,
2013-01-30 23:09:00,41.0,38.3,28.41,ENE,68,2.7,2.7,90,0.00,,---,0.41,VWS V14.01,2013-01-31 04:09:00,
2013-01-30 23:10:00,41.5,38.8,28.41,NE,45,2.7,2.7,90,0.00,,---,0.41,VWS V14.01,2013-01-31 04:10:00,
2013-01-30 23:11:00,41.5,38.8,28.41,NE,45,2.7,2.7,90,0.00,,---,0.41,VWS V14.01,2013-01-31 04:11:00,
2013-01-30 23:12:00,42.1,39.7,28.41,NE,45,2.5,2.7,91,0.00,,---,0.41,VWS V14.01,2013-01-31 04:12:00,
2013-01-30 23:13:00,42.1,39.7,28.41,NNE,22,2.0,2.5,91,0.00,,---,0.41,VWS V14.01,2013-01-31 04:13:00,
2013-01-30 23:14:00,42.1,39.7,28.41,NE,45,2.0,2.0,91,0.00,,---,0.41,VWS V14.01,2013-01-31 04:14:00,
2013-01-30 23:15:00,41.7,39.3,28.41,NE,45,2.9,2.9,91,0.00,,---,0.41,VWS V14.01,2013-01-31 04:15:00,
2013-01-30 23:16:00,41.7,39.3,28.41,NE,45,2.5,2.9,91,0.00,,---,0.41,VWS V14.01,2013-01-31 04:16:00,
2013-01-30 23:17:00,41.7,39.3,28.41,NE,45,2.0,2.5,91,0.00,,---,0.41,VWS V14.01,2013-01-31 04:17:00,
2013-01-30 23:18:00,41.5,39.1,28.41,ENE,68,0.9,3.6,91,0.00,,---,0.41,VWS V14.01,2013-01-31 04:18:00,
2013-01-30 23:19:00,41.5,39.1,28.41,ENE,68,0.9,0.9,91,0.00,,---,0.41,VWS V14.01,2013-01-31 04:19:00,
2013-01-30 23:20:00,42.1,39.7,28.41,WSW,248,1.1,1.3,91,0.00,,---,0.41,VWS V14.01,2013-01-31 04:20:00,
2013-01-30 23:21:00,41.7,39.3,28.41,WSW,248,1.1,1.3,91,0.00,,---,0.41,VWS V14.01,2013-01-31 04:21:00,
2013-01-30 23:22:00,41.7,39.3,28.41,ENE,68,0.0,2.5,91,0.04,,---,0.45,VWS V14.01,2013-01-31 04:22:00,
2013-01-30 23:23:00,42.1,39.7,28.41,NE,45,0.0,0.0,91,0.04,,---,0.45,VWS V14.01,2013-01-31 04:23:00,
2013-01-30 23:24:00,42.1,39.7,28.41,NE,45,0.0,0.0,91,0.04,,---,0.45,VWS V14.01,2013-01-31 04:24:00,
2013-01-30 23:25:00,42.4,40.0,28.41,ENE,68,1.6,1.6,91,0.04,,---,0.45,VWS V14.01,2013-01-31 04:25:00,
2013-01-30 23:26:00,42.4,40.0,28.41,NNE,22,1.3,1.6,91,0.04,,---,0.45,VWS V14.01,2013-01-31 04:26:00,
2013-01-30 23:27:00,42.4,40.3,28.41,NNE,22,3.1,3.1,92,0.04,,---,0.45,VWS V14.01,2013-01-31 04:27:00,
2013-01-30 23:28:00,42.4,40.3,28.41,NNE,22,2.0,3.1,92,0.04,,---,0.45,VWS V14.01,2013-01-31 04:28:00,
2013-01-30 23:29:00,42.4,40.3,28.41,NNE,22,1.6,2.0,92,0.04,,---,0.45,VWS V14.01,2013-01-31 04:29:00,
2013-01-30 23:30:00,42.3,40.1,28.41,NNE,22,2.0,2.0,92,0.04,,---,0.45,VWS V14.01,2013-01-31 04:30:00,
2013-01-30 23:31:00,42.3,40.1,28.41,NNE,22,0.0,2.0,92,0.04,,---,0.45,VWS V14.01,2013-01-31 04:31:00,
2013-01-30 23:32:00,42.4,40.3,28.41,NNE,22,0.0,0.0,92,0.04,,---,0.45,VWS V14.01,2013-01-31 04:32:00,
2013-01-30 23:33:00,41.9,39.8,28.41,NNE,22,2.0,2.0,92,0.04,,---,0.45,VWS V14.01,2013-01-31 04:33:00,
2013-01-30 23:34:00,41.9,39.8,28.41,NNE,22,0.0,2.0,92,0.04,,---,0.45,VWS V14.01,2013-01-31 04:34:00,
2013-01-30 23:35:00,41.7,39.6,28.41,NNE,22,0.0,0.0,92,0.04,,---,0.45,VWS V14.01,2013-01-31 04:35:00,
2013-01-30 23:36:00,41.7,39.6,28.41,NNE,22,0.0,0.0,92,0.04,,---,0.45,VWS V14.01,2013-01-31 04:36:00,
2013-01-30 23:37:00,42.1,39.9,28.41,NNE,22,0.0,0.0,92,0.04,,---,0.45,VWS V14.01,2013-01-31 04:37:00,
2013-01-30 23:38:00,42.1,39.9,28.41,ESE,112,0.9,2.7,92,0.04,,---,0.45,VWS V14.01,2013-01-31 04:38:00,
2013-01-30 23:39:00,41.5,39.4,28.41,ESE,112,0.9,0.9,92,0.04,,---,0.45,VWS V14.01,2013-01-31 04:39:00,
2013-01-30 23:40:00,41.9,39.8,28.41,NE,45,2.5,2.5,92,0.04,,---,0.45,VWS V14.01,2013-01-31 04:40:00,
2013-01-30 23:41:00,41.9,39.8,28.41,NE,45,1.6,2.5,92,0.04,,---,0.45,VWS V14.01,2013-01-31 04:41:00,
2013-01-30 23:42:00,41.9,39.8,28.41,NE,45,1.6,1.6,92,0.04,,---,0.45,VWS V14.01,2013-01-31 04:42:00,
2013-01-30 23:43:00,41.9,39.8,28.41,NE,45,2.0,2.0,92,0.04,,---,0.45,VWS V14.01,2013-01-31 04:43:00,
2013-01-30 23:44:00,42.1,39.9,28.41,NE,45,2.0,2.0,92,0.04,,---,0.45,VWS V14.01,2013-01-31 04:44:00,
2013-01-30 23:45:00,42.1,39.9,28.41,West,270,1.3,2.0,92,0.04,,---,0.45,VWS V14.01,2013-01-31 04:45:00,
2013-01-30 23:46:00,42.4,40.3,28.41,WNW,292,0.0,1.3,92,0.04,,---,0.45,VWS V14.01,2013-01-31 04:46:00,
2013-01-30 23:47:00,42.4,40.3,28.41,WNW,292,0.0,0.0,92,0.04,,---,0.45,VWS V14.01,2013-01-31 04:47:00,
2013-01-30 23:48:00,42.1,39.9,28.41,NNW,338,2.2,2.9,92,0.04,,---,0.45,VWS V14.01,2013-01-31 04:48:00,
2013-01-30 23:49:00,41.9,40.0,28.41,NNW,338,2.0,2.2,93,0.04,,---,0.45,VWS V14.01,2013-01-31 04:49:00,
2013-01-30 23:50:00,41.9,40.0,28.41,NNW,338,2.0,2.0,93,0.04,,---,0.45,VWS V14.01,2013-01-31 04:50:00,
2013-01-30 23:51:00,41.9,40.0,28.41,NNW,338,2.7,2.7,93,0.04,,---,0.45,VWS V14.01,2013-01-31 04:51:00,
2013-01-30 23:52:00,42.1,40.2,28.44,ENE,68,2.7,2.9,93,0.04,,---,0.45,VWS V14.01,2013-01-31 04:52:00,
2013-01-30 23:53:00,42.8,40.6,28.44,NE,45,2.5,2.7,92,0.04,,---,0.45,VWS V14.01,2013-01-31 04:53:00,
2013-01-30 23:54:00,42.8,40.6,28.44,NE,45,2.5,2.5,92,0.04,,---,0.45,VWS V14.01,2013-01-31 04:54:00,
2013-01-30 23:55:00,42.8,40.6,28.44,NE,45,2.5,2.5,92,0.04,,---,0.45,VWS V14.01,2013-01-31 04:55:00,
2013-01-30 23:56:00,42.8,40.6,28.44,NE,45,2.5,2.5,92,0.04,,---,0.45,VWS V14.01,2013-01-31 04:56:00,
2013-01-30 23:57:00,43.7,41.8,28.44,ENE,68,3.1,3.1,93,0.04,,---,0.45,VWS V14.01,2013-01-31 04:57:00,
2013-01-30 23:58:00,43.3,41.5,28.44,ENE,68,3.1,3.1,93,0.04,,---,0.45,VWS V14.01,2013-01-31 04:58:00,
2013-01-30 23:59:00,43.3,41.5,28.44,East,90,1.1,3.1,93,0.04,,---,0.45,VWS V14.01,2013-01-31 04:59:00,